Date StartTime U_cm/s V_cm/s W_cm/s Ustd_cm/s Vstd_cm/s Wstd_cm/s Uvar_(cm/s)^2 Vvar_(cm/s)^2 Wvar_(cm/s)^2 KE_(m/s)^2 TurbulentKE_(m/s)^2 HorizWindSpeed_cm/s FrictionSpeec_cm/s DragCoef SpeedOfSound_m/s SonicTemperature_C Pressure_mb 
08/14/2013  00:00:00     -134.241      -72.265        3.960       61.458       54.671       34.631     3777.072     2988.972     1199.282        1.561        0.398      152.456       35.603        0.055      344.739       21.771      863.211
08/14/2013  00:01:00     -119.443        3.318      -10.143       42.088       26.884       20.801     1771.405      722.759      432.696        0.865        0.146      119.489       12.570        0.011      344.798       21.871      863.214
08/14/2013  00:02:00      -47.071        6.891       -0.588       23.960       20.958       12.819      574.092      439.228      164.335        0.172        0.059       47.573       10.039        0.045      344.727       21.751      863.191
08/14/2013  00:03:00      -52.692       11.476       -5.358       10.128       11.352        8.499      102.586      128.871       72.233        0.162        0.015       53.927        6.071        0.013      344.721       21.741      863.185
08/14/2013  00:04:00      -74.725      -22.093       -4.629       32.901       26.246       14.808     1082.458      688.831      219.269        0.404        0.100       77.923       12.241        0.025      344.718       21.735      863.189
08/14/2013  00:05:00     -105.277      -59.706       -0.477       53.935       35.959       27.896     2909.036     1293.046      778.200        0.981        0.249      121.029       30.015        0.062      344.617       21.562      863.199
08/14/2013  00:06:00      -94.508      -27.631       -0.010       25.350       22.677       15.001      642.607      514.268      225.027        0.554        0.069       98.465       14.084        0.020      344.618       21.567      863.208
08/14/2013  00:07:00      -74.168      -19.443       -3.875       12.802       13.144        9.350      163.888      172.761       87.419        0.316        0.021       76.674        6.014        0.006      344.542       21.434      863.213
08/14/2013  00:08:00     -103.301       -5.400      -12.446       29.444       22.748       14.617      866.978      517.492      213.656        0.623        0.080      103.442       14.890        0.021      344.549       21.446      863.213
08/14/2013  00:09:00      -81.402      -21.013       -9.187       28.356       39.648       17.019      804.045     1571.951      289.662        0.491        0.133       84.070       11.714        0.019      344.479       21.327      863.219
08/14/2013  00:10:00      -50.162      -13.970        2.223       29.182       37.028       18.241      851.599     1371.044      332.728        0.264        0.128       52.071       13.360        0.066      344.409       21.206      863.223
08/14/2013  00:11:00      -41.947        9.110       10.000       37.556       33.886       22.687     1410.453     1148.247      514.703        0.251        0.154       42.925       22.407        0.272      344.368       21.137      863.231
08/14/2013  00:12:00        8.360        7.101        0.290       31.093       22.411       20.585      966.766      502.258      423.728        0.101        0.095       10.969       14.942        1.856      343.924       20.378      863.228
08/14/2013  00:13:00      -27.833       38.569        5.827       18.670       25.820       16.405      348.551      666.680      269.134        0.179        0.064       47.563       14.515        0.093      344.434       21.249      863.226
08/14/2013  00:14:00      -91.332       15.151       -7.336       28.773       19.068       15.870      827.912      363.593      251.866        0.503        0.072       92.581       15.334        0.027      344.603       21.539      863.242
08/14/2013  00:15:00      -90.993       -5.456      -11.321       24.642       28.202       15.665      607.222      795.346      245.386        0.504        0.082       91.156       11.868        0.017      344.464       21.300      863.251
08/14/2013  00:16:00     -100.763       13.949       -9.719       33.480       26.689       16.467     1120.936      712.297      271.176        0.627        0.105      101.724       16.105        0.025      344.347       21.103      863.254
08/14/2013  00:17:00     -137.582       45.411      -12.097       36.614       21.631       17.207     1340.567      467.890      296.083        1.162        0.105      144.883       11.559        0.006      344.547       21.443      863.251
08/14/2013  00:18:00     -112.952       29.798       -9.588       22.228       21.634       13.214      494.103      468.029      174.606        0.744        0.057      116.816       10.416        0.008      344.590       21.517      863.270
08/14/2013  00:19:00     -102.704      -32.609      -10.166       19.408       19.062       10.145      376.676      363.377      102.921        0.628        0.042      107.757        6.974        0.004      344.313       21.044      863.275
08/14/2013  00:20:00      -51.849        2.836        0.484       23.105       18.240       13.719      533.835      332.697      188.214        0.188        0.053       51.927       12.290        0.056      344.217       20.877      863.282
08/14/2013  00:21:00      -70.922       -5.138       -6.410       22.008       17.064       12.515      484.350      291.195      156.624        0.301        0.047       71.107        8.418        0.014      344.212       20.872      863.296
08/14/2013  00:22:00      -48.722       -1.686       -3.188       22.453       22.535       12.315      504.141      507.829      151.648        0.178        0.058       48.751        9.440        0.037      344.184       20.823      863.309
08/14/2013  00:23:00       -4.979       -4.429       -2.441       47.650       17.578       17.045     2270.539      308.973      290.539        0.146        0.144        6.664       14.835        4.956      343.993       20.494      863.315
08/14/2013  00:24:00       12.140       -0.975        7.651       32.708       24.658       16.024     1069.807      608.025      256.758        0.107        0.097       12.179        9.213        0.572      343.763       20.104      863.316
08/14/2013  00:25:00      -20.250       40.337        0.625       20.140       26.321       13.882      405.600      692.791      192.700        0.166        0.065       45.134        9.271        0.042      344.379       21.156      863.332
08/14/2013  00:26:00        8.391       48.493       11.533       32.219       42.123       22.588     1038.083     1774.316      510.211        0.294        0.166       49.214       23.717        0.232      344.227       20.895      863.346
08/14/2013  00:27:00       44.045       24.482       -1.251       19.713       29.042       20.261      388.601      843.419      410.493        0.209        0.082       50.392        6.135        0.015      343.811       20.187      863.347
08/14/2013  00:28:00       36.538       45.393        6.028       26.592       20.203       23.474      707.116      408.158      551.037        0.255        0.083       58.271       16.128        0.077      344.039       20.576      863.346
08/14/2013  00:29:00      -11.808       75.315       -7.886       10.971       16.813        6.502      120.356      282.676       42.278        0.316        0.022       76.235        5.693        0.006      344.664       21.641      863.359
08/14/2013  00:30:00       -3.971       58.959       -5.524       14.537       14.937       11.112      211.315      223.127      123.473        0.204        0.028       59.092       10.511        0.032      344.622       21.571      863.369
08/14/2013  00:31:00      -21.899       47.159        0.804       18.261       21.276       12.994      333.452      452.677      168.831        0.183        0.048       51.996       14.201        0.075      344.280       20.987      863.369
08/14/2013  00:32:00        8.935       47.118        4.772       17.711       22.523        9.894      313.691      507.288       97.898        0.162        0.046       47.958        6.602        0.019      344.397       21.187      863.364
08/14/2013  00:33:00       14.447       59.122        8.017       23.474       26.192       20.286      551.038      686.025      411.506        0.271        0.082       60.861       18.408        0.091      344.475       21.320      863.366
08/14/2013  00:34:00       15.865      114.988       -0.139       30.987       31.627       22.414      960.174     1000.283      502.404        0.797        0.123      116.078       19.564        0.028      344.787       21.855      863.344
08/14/2013  00:35:00       21.221       31.266       10.604       24.393       23.934       20.437      595.010      572.846      417.653        0.156        0.079       37.787        9.838        0.068      344.651       21.622      863.333
08/14/2013  00:36:00        8.197       41.263       -0.803       25.179       22.256       15.835      633.962      495.333      250.744        0.158        0.069       42.069       14.581        0.120      344.415       21.217      863.328
08/14/2013  00:37:00      -46.755       -4.884        0.156        8.584       19.968        7.482       73.692      398.738       55.976        0.137        0.026       47.009        7.657        0.027      344.142       20.752      863.328
08/14/2013  00:38:00      -66.493      -10.183       -3.953       11.970       10.142        7.590      143.281      102.866       57.608        0.242        0.015       67.269        6.471        0.009      344.063       20.617      863.310
08/14/2013  00:39:00      -84.592       27.426       -0.866       36.630       22.566       21.731     1341.790      509.203      472.246        0.512        0.116       88.927       23.458        0.070      344.398       21.188      863.312
08/14/2013  00:40:00      -67.701       19.384       -7.173       17.187       22.421       14.767      295.381      502.716      218.056        0.301        0.051       70.422        8.985        0.016      344.350       21.106      863.322
08/14/2013  00:41:00      -39.242       52.632       -3.312       29.080       26.620       19.774      845.641      708.632      390.995        0.313        0.097       65.651       19.937        0.092      344.610       21.550      863.308
08/14/2013  00:42:00       -1.844       72.604        5.867       42.695       35.821       24.393     1822.857     1283.121      595.036        0.450        0.185       72.628       24.884        0.117      344.697       21.699      863.298
08/14/2013  00:43:00      -32.758       83.224       -9.213       22.386       44.509       18.223      501.152     1981.090      332.067        0.545        0.141       89.439       12.287        0.019      344.770       21.826      863.303
08/14/2013  00:44:00      -59.639       96.467       -9.222       33.647       47.822       18.343     1132.106     2286.990      336.477        0.835        0.188      113.414       16.453        0.021      344.772       21.828      863.302
08/14/2013  00:45:00      -37.855       11.448       -5.130       17.340       36.885       19.099      300.665     1360.518      364.778        0.181        0.101       39.548        7.533        0.036      344.422       21.229      863.306
08/14/2013  00:46:00      -24.749        6.182        7.929       12.950       21.235       14.357      167.715      450.926      206.137        0.077        0.041       25.509       11.628        0.208      343.986       20.485      863.311
08/14/2013  00:47:00       11.984        1.494        8.528       24.661       13.868       12.682      608.174      192.316      160.842        0.059        0.048       12.077        7.928        0.431      343.772       20.119      863.301
08/14/2013  00:48:00       36.678      -13.085       -3.802       27.498       29.852       12.599      756.133      891.170      158.740        0.167        0.090       38.942        7.195        0.034      343.917       20.366      863.292
08/14/2013  00:49:00        4.387       11.088        5.788       13.668        8.229       11.423      186.818       67.720      130.481        0.028        0.019       11.924        5.128        0.185      344.080       20.644      863.283
08/14/2013  00:50:00       10.032        8.745       -3.080       21.946        9.805       14.455      481.619       96.132      208.955        0.049        0.039       13.309        6.345        0.227      344.361       21.123      863.283
08/14/2013  00:51:00       25.434      -16.336      -12.979       23.364       41.376       20.262      545.887     1711.984      410.557        0.187        0.133       30.228        9.058        0.090      344.162       20.785      863.288
08/14/2013  00:52:00       61.792       25.593       -3.062       38.323       30.362       29.872     1468.654      921.862      892.347        0.388        0.164       66.882       17.807        0.071      344.065       20.619      863.287
08/14/2013  00:53:00       46.792       -0.373       -0.168       22.433       21.956       21.190      503.245      482.046      449.015        0.181        0.072       46.794        7.954        0.029      344.141       20.749      863.272
08/14/2013  00:54:00       21.397       39.376       10.477       22.936       19.394       17.652      526.064      376.145      311.594        0.167        0.061       44.814        6.692        0.022      344.121       20.714      863.257
08/14/2013  00:55:00       45.134       11.369        8.926       25.273       19.594       17.521      638.709      383.933      306.998        0.179        0.066       46.543       10.400        0.050      343.814       20.191      863.252
08/14/2013  00:56:00      -84.940      -15.411       -7.118       47.090       32.808       18.764     2217.453     1076.360      352.089        0.557        0.182       86.327       17.797        0.043      344.228       20.897      863.243
08/14/2013  00:57:00      -66.322      -39.798        0.510       28.377       29.418       15.780      805.266      865.406      249.015        0.395        0.096       77.346       12.513        0.026      344.604       21.540      863.230
08/14/2013  00:58:00      -37.669        7.214       -0.739       11.492       25.622        9.941      132.075      656.474       98.815        0.118        0.044       38.354        7.326        0.036      344.436       21.254      863.227
08/14/2013  00:59:00        3.833        9.712       -4.780       31.136       16.819       12.320      969.445      282.875      151.777        0.077        0.070       10.441       14.894        2.035      344.302       21.025      863.229
08/14/2013  01:00:00       20.372       -6.474        1.097       17.962       18.923       13.066      322.623      358.084      170.730        0.065        0.043       21.376        8.347        0.152      344.072       20.632      863.243
08/14/2013  01:01:00        8.517      -31.066        5.124       12.673       25.124       12.013      160.611      631.199      144.309        0.100        0.047       32.212       13.247        0.169      343.881       20.305      863.251
08/14/2013  01:02:00       11.665      -18.852       16.965       14.987       32.650       12.943      224.599     1066.043      167.515        0.112        0.073       22.169       18.184        0.673      343.878       20.300      863.258
08/14/2013  01:03:00      -22.285      -73.416        4.004       37.920       37.893       19.978     1437.915     1435.915      399.119        0.459        0.164       76.724        8.272        0.012      344.238       20.915      863.274
08/14/2013  01:04:00       31.855      -68.866        4.177       24.532       29.375       20.291      601.795      862.895      411.714        0.383        0.094       75.877       13.550        0.032      344.368       21.137      863.273
08/14/2013  01:05:00        3.954        1.189        6.400       19.075       19.069       17.467      363.868      363.636      305.101        0.055        0.052        4.129       10.700        6.716      343.959       20.438      863.277
08/14/2013  01:06:00       13.286      -23.288        8.801       21.227       25.762       23.164      450.588      663.655      536.572        0.122        0.083       26.811       14.330        0.286      343.806       20.178      863.286
08/14/2013  01:07:00       79.519      -44.943        1.877       39.375       39.446       30.149     1550.424     1555.994      908.953        0.618        0.201       91.341       26.072        0.081      343.462       19.590      863.290
08/14/2013  01:08:00       71.644      -21.322       16.838       55.580       38.778       30.185     3089.089     1503.750      911.115        0.569        0.275       74.750       27.951        0.140      343.436       19.546      863.282
08/14/2013  01:09:00       41.561       12.458       33.100       50.551       45.560       37.868     2555.358     2075.748     1433.996        0.452        0.303       43.388       43.345        0.998      343.473       19.610      863.275
08/14/2013  01:10:00        9.194       -2.458       25.843       21.402       24.922       25.702      458.039      621.116      660.597        0.125        0.087        9.517       12.826        1.816      343.487       19.633      863.276
08/14/2013  01:11:00        7.598       -5.922       27.236       25.598       27.618       24.358      655.235      762.759      593.289        0.142        0.101        9.633        6.651        0.477      343.799       20.164      863.279
08/14/2013  01:12:00       35.069      -19.798        0.760       24.342       27.616       23.199      592.545      762.622      538.171        0.176        0.095       40.271       19.050        0.224      343.528       19.703      863.285
08/14/2013  01:13:00        1.038        5.389       17.314       30.924       20.137       14.836      956.292      405.489      220.100        0.096        0.079        5.488       10.736        3.827      343.268       19.262      863.291
08/14/2013  01:14:00      -53.773       13.204       -0.309       13.591       10.987        9.428      184.716      120.719       88.878        0.173        0.020       55.371        9.706        0.031      343.648       19.908      863.284
08/14/2013  01:15:00      -43.140       19.777       -5.253        8.290        8.651        6.351       68.731       74.846       40.336        0.123        0.009       47.457        5.364        0.013      343.967       20.449      863.275
08/14/2013  01:16:00      -33.717        5.653       -1.132        7.513       13.669        6.583       56.448      186.831       43.336        0.073        0.014       34.188        6.023        0.031      344.057       20.605      863.274
08/14/2013  01:17:00        1.002        5.155        7.712       13.972       12.066       11.205      195.209      145.595      125.543        0.028        0.023        5.252        9.629        3.361      343.506       19.665      863.264
08/14/2013  01:18:00      -15.398        8.443        1.056       10.794        9.560        6.995      116.504       91.401       48.928        0.028        0.013       17.561        6.469        0.136      343.819       20.200      863.253
08/14/2013  01:19:00       15.420       15.224       10.093       18.962       10.436       14.293      359.551      108.919      204.303        0.062        0.034       21.669        9.407        0.188      343.594       19.816      863.255
08/14/2013  01:20:00       37.134       -5.809       20.067       25.721       22.379       18.073      661.574      500.799      326.619        0.165        0.074       37.586       13.001        0.120      343.442       19.558      863.245
08/14/2013  01:21:00       78.339      -18.124        6.473       34.485       23.174       26.067     1189.202      537.022      679.512        0.446        0.120       80.408       14.700        0.033      343.522       19.692      863.232
08/14/2013  01:22:00       56.317      -30.736       17.649       26.448       26.970       20.148      699.501      727.358      405.945        0.313        0.092       64.158       17.645        0.076      343.375       19.442      863.220
08/14/2013  01:23:00       36.262      -22.057       15.689       22.593       22.588       19.001      510.434      510.199      361.041        0.171        0.069       42.444       14.722        0.120      343.568       19.771      863.220
08/14/2013  01:24:00        1.084      -27.276       -2.086       22.213       25.413       17.333      493.424      645.816      300.448        0.109        0.072       27.298       13.777        0.255      343.216       19.171      863.212
08/14/2013  01:25:00       34.962      -64.778        8.898       34.760       45.610       30.919     1208.281     2080.250      956.000        0.487        0.212       73.611       23.889        0.105      343.465       19.596      863.207
08/14/2013  01:26:00       10.359      -15.652        6.345       17.928       34.621       26.861      321.409     1198.609      721.500        0.132        0.112       18.770       16.846        0.806      343.414       19.509      863.222
08/14/2013  01:27:00       19.586        2.384        5.503       37.586       34.382       15.142     1412.683     1182.156      229.271        0.162        0.141       19.731       11.999        0.370      343.487       19.633      863.226
08/14/2013  01:28:00       39.208       28.022       25.857       27.349       17.735       26.013      747.955      314.535      676.652        0.236        0.087       48.193       14.901        0.096      343.543       19.728      863.233
08/14/2013  01:29:00       56.544       47.210       25.593       22.699       27.023       28.540      515.233      730.227      814.515        0.407        0.103       73.661        7.672        0.011      343.589       19.807      863.251
08/14/2013  01:30:00      109.924       81.229       31.540       34.475       33.818       31.291     1188.498     1143.652      979.139        1.149        0.166      136.681       17.397        0.016      343.985       20.486      863.260
08/14/2013  01:31:00       79.749       62.465       18.944       25.051       28.788       27.454      627.570      828.768      753.703        0.641        0.111      101.301       11.566        0.013      343.924       20.379      863.268
08/14/2013  01:32:00       38.817       -0.467       16.384       17.662       25.844       18.246      311.958      667.900      332.916        0.154        0.066       38.820        4.299        0.012      343.602       19.828      863.293
08/14/2013  01:33:00       19.061       -6.270       -7.003       17.292       16.631       19.366      299.030      276.578      375.044        0.070        0.048       20.066        6.499        0.105      343.655       19.919      863.296
08/14/2013  01:34:00        1.184        8.039       13.423        7.213        8.541       11.512       52.030       72.942      132.530        0.025        0.013        8.126        4.332        0.284      343.259       19.243      863.299
08/14/2013  01:35:00       38.740       -5.904       11.295       23.629       16.763       17.133      558.335      281.006      293.547        0.140        0.057       39.188       13.020        0.110      343.552       19.745      863.303
08/14/2013  01:36:00        8.686        9.840       -0.999       12.831        9.164        7.693      164.645       83.980       59.182        0.024        0.015       13.125        3.477        0.070      343.732       20.050      863.311
08/14/2013  01:37:00       11.640        6.591       11.863       15.307       14.271       13.542      234.295      203.653      183.375        0.047        0.031       13.377        4.577        0.117      343.345       19.391      863.310
08/14/2013  01:38:00       12.451        1.150        7.252       14.670       11.349       11.339      215.196      128.807      128.566        0.034        0.024       12.504        7.386        0.349      343.570       19.776      863.306
08/14/2013  01:39:00      -18.798        9.002        7.807       13.061        8.405        9.293      170.595       70.648       86.351        0.041        0.016       20.842        9.775        0.220      343.259       19.247      863.300
08/14/2013  01:40:00      -32.971        6.348       -3.247        6.522        3.938        4.034       42.538       15.511       16.276        0.061        0.004       33.576        3.197        0.009      343.495       19.647      863.292
08/14/2013  01:41:00      -12.747        0.328        8.200       17.003        8.583       10.248      289.104       73.660      105.026        0.035        0.023       12.751       10.163        0.635      343.339       19.380      863.283
08/14/2013  01:42:00       -9.255       -7.535        4.275       10.218        7.963        7.068      104.405       63.411       49.951        0.019        0.011       11.935        5.801        0.236      343.151       19.061      863.257
08/14/2013  01:43:00      -43.078      -19.335       -7.277       13.871        7.285        6.808      192.414       53.076       46.354        0.129        0.015       47.219        6.046        0.016      343.047       18.883      863.246
08/14/2013  01:44:00      -90.080       -5.020       -8.667       17.509       15.661       11.999      306.553      245.253      143.983        0.446        0.035       90.220       11.866        0.017      342.937       18.696      863.241
08/14/2013  01:45:00      -85.100      -24.326       -8.467       18.207       20.808       15.979      331.504      432.979      255.340        0.446        0.051       88.508        8.254        0.009      342.839       18.529      863.231
08/14/2013  01:46:00      -53.572      -41.418       -0.802       32.493       22.510       18.091     1055.785      506.700      327.271        0.324        0.094       67.716       14.219        0.044      342.793       18.451      863.210
08/14/2013  01:47:00      -65.459      -31.326       -7.768       28.518       19.477       14.936      813.252      379.360      223.086        0.337        0.071       72.568       13.875        0.037      342.748       18.374      863.201
08/14/2013  01:48:00      -75.517      -29.463      -15.953       20.900       18.829       13.451      436.796      354.527      180.926        0.390        0.049       81.061        8.406        0.011      342.863       18.570      863.209
08/14/2013  01:49:00      -79.791      -31.272      -12.138       16.405       22.640       16.150      269.134      512.549      260.809        0.427        0.052       85.701        5.687        0.004      342.902       18.637      863.207
08/14/2013  01:50:00     -113.372      -38.157      -10.085       15.532       14.144        8.739      241.251      200.047       76.369        0.746        0.026      119.621        6.138        0.003      342.820       18.496      863.215
08/14/2013  01:51:00      -97.848      -18.200       -9.500       14.023       11.783        7.298      196.633      138.841       53.264        0.519        0.019       99.526        4.173        0.002      342.843       18.536      863.223
08/14/2013  01:52:00      -83.739       -7.403      -10.208       12.871        9.006        9.590      165.666       81.110       91.964        0.375        0.017       84.065        6.165        0.005      342.938       18.697      863.221
08/14/2013  01:53:00      -65.598       -7.232      -10.066       12.602        7.542        5.675      158.818       56.885       32.202        0.235        0.012       65.996        4.620        0.005      342.987       18.782      863.221
08/14/2013  01:54:00      -75.796       -7.293       -9.298       21.388       10.192        9.080      457.451      103.881       82.451        0.326        0.032       76.146        4.204        0.003      343.081       18.941      863.225
08/14/2013  01:55:00      -65.285      -15.406       -7.181       18.710       17.433       13.274      350.058      303.918      176.211        0.269        0.042       67.078       12.464        0.035      342.970       18.752      863.245
08/14/2013  01:56:00      -67.669       -5.131       -9.109       22.739       12.506       10.573      517.051      156.388      111.785        0.274        0.039       67.864        8.162        0.014      342.874       18.590      863.248
08/14/2013  01:57:00      -48.374      -16.419      -11.231       16.653       12.499        8.010      277.323      156.225       64.154        0.162        0.025       51.085        5.490        0.012      342.714       18.317      863.242
08/14/2013  01:58:00      -70.954      -28.632      -15.686       15.713       17.313        9.010      246.909      299.755       81.189        0.336        0.031       76.513        5.891        0.006      342.804       18.469      863.239
08/14/2013  01:59:00      -78.286      -29.055       -9.678       23.268       16.157       18.313      541.420      261.043      335.360        0.410        0.057       83.504       17.753        0.045      342.666       18.235      863.229
08/14/2013  02:00:00      -82.321      -23.504       -9.808       12.685       22.412       12.475      160.922      502.280      155.626        0.412        0.041       85.611        9.145        0.011      342.682       18.262      863.212
08/14/2013  02:01:00      -61.143      -29.780       -7.468       23.648       24.360       15.330      559.218      593.417      235.015        0.303        0.069       68.009       11.301        0.028      342.613       18.145      863.206
08/14/2013  02:02:00      -82.300      -37.985       -8.316       29.615       26.287       13.243      877.031      691.017      175.377        0.501        0.087       90.643       11.874        0.017      342.585       18.097      863.210
08/14/2013  02:03:00      -83.899      -42.309       -9.147       31.258       26.943       16.279      977.041      725.920      265.010        0.544        0.098       93.964        8.346        0.008      342.531       18.006      863.218
08/14/2013  02:04:00      -82.258       -5.225       -6.746       31.001       46.255       23.431      961.040     2139.513      549.014        0.524        0.182       82.424       18.023        0.048      342.533       18.009      863.233
08/14/2013  02:05:00     -102.973        5.933       -7.318       44.096       38.449       24.285     1944.429     1478.347      589.774        0.735        0.201      103.143       21.415        0.043      342.601       18.124      863.258
08/14/2013  02:06:00     -111.216       10.429      -11.349       47.506       39.352       26.161     2256.777     1548.565      684.395        0.855        0.224      111.704       22.097        0.039      342.516       17.981      863.272
08/14/2013  02:07:00     -111.837      -10.770       -7.078       45.660       34.871       26.129     2084.856     1215.969      682.744        0.833        0.199      112.355       26.201        0.054      342.584       18.097      863.280
08/14/2013  02:08:00     -116.980      -32.660      -12.341       32.225       31.859       18.937     1038.470     1015.004      358.625        0.866        0.121      121.454        8.275        0.005      342.447       17.864      863.293
08/14/2013  02:09:00      -64.633      -34.189       -6.092       33.094       21.233       16.459     1095.228      450.842      270.915        0.360        0.091       73.118       16.074        0.048      342.379       17.748      863.301
08/14/2013  02:10:00      -53.861      -25.760      -16.540       28.128       26.961       18.803      791.188      726.895      353.554        0.285        0.094       59.704       13.999        0.055      342.467       17.898      863.288
08/14/2013  02:11:00       -0.084      -26.023        3.636       47.552       34.770       34.154     2261.150     1208.987     1166.509        0.266        0.232       26.024       28.653        1.212      342.323       17.651      863.281
08/14/2013  02:12:00      -76.867      -60.754        0.638       48.404       41.625       31.253     2342.925     1732.665      976.730        0.733        0.253       97.977       26.239        0.072      342.349       17.696      863.290
08/14/2013  02:13:00     -114.307      -22.837        0.265       59.795       39.479       21.507     3575.437     1558.572      462.547        0.959        0.280      116.566       23.193        0.040      342.327       17.659      863.290
08/14/2013  02:14:00      -88.019      -12.676        3.053       33.339       40.680       23.329     1111.501     1654.839      544.264        0.561        0.166       88.927       20.487        0.053      342.344       17.687      863.273
08/14/2013  02:15:00     -119.008      -39.118       -9.612       21.016       26.296       15.775      441.688      691.488      248.864        0.858        0.069      125.272        7.547        0.004      342.387       17.762      863.278
08/14/2013  02:16:00     -133.857      -27.221       -2.259       26.000       23.805       18.017      675.982      566.656      324.595        1.012        0.078      136.597       15.450        0.013      342.345       17.690      863.286
08/14/2013  02:17:00      -73.713      -19.355        8.422       52.792       35.553       20.357     2787.005     1263.980      414.400        0.517        0.223       76.211       26.481        0.121      342.238       17.507      863.289
08/14/2013  02:18:00     -102.678       24.244       -1.115       47.898       27.465       19.314     2294.193      754.319      373.037        0.728        0.171      105.501       17.086        0.026      342.457       17.879      863.302
08/14/2013  02:19:00      -87.689       -7.658       -3.063       26.356       17.079       15.236      694.633      291.699      232.123        0.449        0.061       88.023       10.179        0.013      342.501       17.955      863.304
08/14/2013  02:20:00      -88.257      -55.976        3.485       29.719       28.412       20.399      883.190      807.247      416.106        0.652        0.105      104.511       14.465        0.019      342.456       17.877      863.301
08/14/2013  02:21:00      -54.786        7.004       10.745       47.872       27.261       21.973     2291.689      743.175      482.804        0.334        0.176       55.232       23.219        0.177      342.350       17.697      863.317
08/14/2013  02:22:00      -66.283      -37.519       -3.716       34.146       27.495       16.486     1165.939      755.962      271.798        0.400        0.110       76.165       13.663        0.032      342.454       17.875      863.319
08/14/2013  02:23:00      -45.977      -25.129       -3.255       21.260       23.503       17.577      451.984      552.388      308.965        0.203        0.066       52.396       13.305        0.064      342.346       17.692      863.313
08/14/2013  02:24:00      -51.712      -28.799       -1.219       23.897       18.091       15.436      571.087      327.275      238.272        0.232        0.057       59.191       12.819        0.047      342.385       17.760      863.307
08/14/2013  02:25:00      -92.681      -25.605       -9.475       24.906       29.936       17.867      620.327      896.165      319.224        0.559        0.092       96.153       14.542        0.023      342.376       17.742      863.300
08/14/2013  02:26:00      -96.105      -20.091      -16.204       20.703       21.563       14.383      428.630      464.948      206.875        0.550        0.055       98.182       12.117        0.015      342.340       17.680      863.289
08/14/2013  02:27:00      -90.324      -37.591       -9.506       33.986       23.741       20.398     1155.029      563.624      416.073        0.590        0.107       97.834       15.610        0.025      342.317       17.641      863.280
08/14/2013  02:28:00     -117.876      -37.979      -15.086       22.408       18.787       16.898      502.117      352.937      285.551        0.835        0.057      123.843       10.655        0.007      342.264       17.552      863.278
08/14/2013  02:29:00     -106.870      -50.820      -15.358       14.441       16.687       10.504      208.556      278.442      110.331        0.742        0.030      118.337        5.715        0.002      342.182       17.413      863.270
08/14/2013  02:30:00     -111.293      -42.870      -13.629       22.763       17.538       16.882      518.137      307.586      285.013        0.776        0.056      119.264        9.052        0.006      342.117       17.302      863.272
08/14/2013  02:31:00     -129.390      -28.103      -21.135       12.708       13.244       13.139      161.497      175.411      172.622        0.924        0.025      132.407        3.193        0.001      342.109       17.288      863.277
08/14/2013  02:32:00     -129.188      -35.687       -5.102       30.786       19.934       14.788      947.787      397.351      218.678        0.978        0.078      134.027       15.964        0.014      342.130       17.324      863.275
08/14/2013  02:33:00     -106.999      -37.227      -10.739       11.344       14.465        9.491      128.692      209.235       90.081        0.669        0.021      113.290        5.599        0.002      342.253       17.533      863.280
08/14/2013  02:34:00      -95.945      -31.770       -5.266       16.001       16.091       12.218      256.026      258.906      149.275        0.545        0.033      101.068        8.685        0.007      342.243       17.516      863.270
08/14/2013  02:35:00      -99.783      -37.503       -0.027       16.227       13.276        9.016      263.302      176.259       81.281        0.594        0.026      106.598        6.407        0.004      342.222       17.481      863.261
08/14/2013  02:36:00      -97.832      -47.069       -0.716       19.981       15.264       12.791      399.257      232.978      163.616        0.629        0.040      108.565       11.178        0.011      342.172       17.396      863.266
08/14/2013  02:37:00     -118.912      -32.374       -5.615       14.669       15.643       10.885      215.180      244.695      118.483        0.790        0.029      123.240        8.228        0.004      342.244       17.518      863.268
08/14/2013  02:38:00     -126.321      -43.153       -8.750       15.777       16.921        8.945      248.911      286.332       80.016        0.926        0.031      133.488        3.752        0.001      342.220       17.477      863.277
08/14/2013  02:39:00     -127.001      -38.739      -11.102       20.807       20.614       13.428      432.949      424.941      180.312        0.940        0.052      132.778       10.240        0.006      342.064       17.211      863.281
08/14/2013  02:40:00     -101.554      -35.444       -8.310       20.180       23.371       12.407      407.217      546.204      153.945        0.637        0.055      107.562        7.281        0.005      342.036       17.165      863.283
08/14/2013  02:41:00      -93.266      -56.685       -6.087       31.852       27.293       20.031     1014.544      744.898      401.224        0.705        0.108      109.141       16.978        0.024      341.907       16.946      863.294
08/14/2013  02:42:00      -66.581      -56.263        0.996       40.109       32.946       20.212     1608.700     1085.444      408.542        0.535        0.155       87.170       18.227        0.044      341.876       16.892      863.308
08/14/2013  02:43:00      -51.959      -32.650        6.473       51.091       38.560       29.597     2610.276     1486.860      875.965        0.439        0.249       61.366       29.003        0.223      341.919       16.966      863.305
08/14/2013  02:44:00     -114.880      -67.382       -2.346       28.229       23.292       17.839      796.874      542.502      318.231        0.970        0.083      133.183       11.117        0.007      342.021       17.139      863.314
08/14/2013  02:45:00      -92.246      -53.857       -6.474       44.111       26.559       14.662     1945.812      705.383      214.977        0.716        0.143      106.817       11.883        0.012      341.988       17.083      863.310
08/14/2013  02:46:00     -112.268      -49.271       -0.362       31.413       27.224       18.608      986.787      741.129      346.250        0.855        0.104      122.604        9.352        0.006      341.948       17.016      863.309
08/14/2013  02:47:00      -66.524      -47.671        2.816       40.663       32.947       21.473     1653.470     1085.534      461.093        0.495        0.160       81.841       22.859        0.078      341.950       17.018      863.301
08/14/2013  02:48:00      -79.321      -50.458        8.339       47.313       38.025       25.447     2238.480     1445.880      647.526        0.662        0.217       94.010       30.862        0.108      341.894       16.924      863.298
08/14/2013  02:49:00     -143.325      -50.976       -8.700       30.218       23.374       17.477      913.115      546.353      305.432        1.249        0.088      152.121       16.177        0.011      341.867       16.878      863.285
08/14/2013  02:50:00     -148.345      -58.244       -6.332       29.817       33.713       20.694      889.038     1136.571      428.226        1.395        0.123      159.370       16.733        0.011      341.846       16.842      863.295
08/14/2013  02:51:00     -143.604      -76.903        2.288       60.244       34.955       19.928     3629.335     1221.823      397.132        1.589        0.262      162.899       24.238        0.022      341.844       16.838      863.293
08/14/2013  02:52:00     -167.018      -73.817        0.336       47.162       42.784       27.573     2224.277     1830.449      760.251        1.908        0.241      182.603       26.546        0.021      341.790       16.747      863.311
08/14/2013  02:53:00     -132.133      -14.924       -1.019       45.194       28.330       24.376     2042.488      802.607      594.170        1.056        0.172      132.974       26.618        0.040      341.709       16.610      863.326
08/14/2013  02:54:00     -130.831       -6.955      -11.042       22.737       21.893       12.217      516.967      479.296      149.244        0.922        0.057      131.016        7.618        0.003      341.685       16.570      863.315
08/14/2013  02:55:00     -138.071       34.710      -16.364       52.046       24.569       22.449     2708.787      603.655      503.978        1.218        0.191      142.367       12.649        0.008      341.869       16.882      863.314
08/14/2013  02:56:00     -156.375       13.675      -12.424       45.673       43.349       17.662     2086.053     1879.165      311.938        1.454        0.214      156.971       16.347        0.011      341.981       17.071      863.294
08/14/2013  02:57:00      -61.419        2.156        0.199       41.162       32.285       25.736     1694.301     1042.322      662.339        0.359        0.170       61.457       23.730        0.149      341.862       16.870      863.293
08/14/2013  02:58:00      -69.678      -16.870        1.157       45.604       30.157       20.720     2079.688      909.428      429.321        0.428        0.171       71.691       12.964        0.033      341.795       16.756      863.289
08/14/2013  02:59:00     -123.633      -63.439       -1.490       35.915       31.970       20.139     1289.875     1022.065      405.572        1.101        0.136      138.959       18.579        0.018      341.793       16.752      863.288
08/14/2013  03:00:00     -104.710      -49.728        0.947       37.964       30.591       21.824     1441.292      935.819      476.279        0.815        0.143      115.918       12.340        0.011      341.780       16.731      863.292
08/14/2013  03:01:00      -74.921      -52.695        1.525       55.651       33.969       18.351     3096.987     1153.894      336.769        0.649        0.229       91.596       25.152        0.075      341.850       16.850      863.283
08/14/2013  03:02:00      -96.576      -51.494       -8.298       26.076       21.404       18.256      679.933      458.119      333.283        0.676        0.074      109.447       11.837        0.012      341.847       16.843      863.275
08/14/2013  03:03:00     -107.588      -44.014       -7.448       15.206       17.341       10.576      231.208      300.714      111.842        0.711        0.032      116.243        8.968        0.006      341.834       16.821      863.268
08/14/2013  03:04:00     -124.055      -41.218       -8.017       23.974       25.057       16.843      574.759      627.838      283.683        0.932        0.074      130.723       14.076        0.012      341.927       16.979      863.256
08/14/2013  03:05:00     -113.733      -40.708       -3.911       23.457       17.683       14.495      550.228      312.684      210.103        0.784        0.054      120.799       11.273        0.009      341.958       17.033      863.251
08/14/2013  03:06:00     -110.499      -37.035       -8.571       18.111       16.535       11.228      327.993      273.395      126.075        0.719        0.036      116.540        8.008        0.005      341.947       17.012      863.243
08/14/2013  03:07:00     -111.281      -44.790       -6.625       23.041       25.269       14.713      530.866      638.516      216.462        0.791        0.069      119.956       15.379        0.016      342.008       17.116      863.251
08/14/2013  03:08:00     -129.308      -38.300       -7.248       16.912       20.290       12.716      286.023      411.687      161.707        0.955        0.043      134.860        5.181        0.001      342.015       17.130      863.246
08/14/2013  03:09:00     -151.992      -38.711      -12.737       19.573       20.316       16.306      383.108      412.749      265.888        1.291        0.053      156.844       11.755        0.006      341.964       17.042      863.237
08/14/2013  03:10:00     -119.100      -30.608        2.123       38.385       28.687       19.590     1473.372      822.960      383.772        0.890        0.134      122.970       18.518        0.023      341.982       17.074      863.236
08/14/2013  03:11:00     -140.521      -19.050      -10.087       32.625       30.336       21.253     1064.396      920.252      451.700        1.132        0.122      141.807       18.290        0.017      342.129       17.324      863.235
08/14/2013  03:12:00     -139.992      -14.177      -11.917       26.085       22.670       12.300      680.426      513.938      151.296        1.064        0.067      140.708       10.617        0.006      342.179       17.407      863.236
08/14/2013  03:13:00     -163.348       -0.020      -16.354       24.960       22.329       14.540      622.990      498.597      211.408        1.414        0.067      163.348       13.274        0.007      342.151       17.361      863.242
08/14/2013  03:14:00     -170.109       -2.812      -19.104       19.827       17.963       12.904      393.111      322.654      166.516        1.510        0.044      170.132        7.651        0.002      342.146       17.350      863.260
08/14/2013  03:15:00     -155.588      -16.451      -13.796       24.524       22.092       16.360      601.440      488.079      267.637        1.301        0.068      156.455       16.276        0.011      342.051       17.189      863.266
08/14/2013  03:16:00     -139.344      -44.010      -13.080       30.145       26.978       15.589      908.697      727.792      243.019        1.170        0.094      146.129       16.656        0.013      342.100       17.273      863.270
08/14/2013  03:17:00     -117.262      -51.427       -6.054       26.613       23.732       18.498      708.260      563.212      342.173        0.902        0.081      128.044       16.088        0.016      342.098       17.270      863.286
08/14/2013  03:18:00      -92.605      -63.432        1.584       29.658       21.696       18.783      879.624      470.708      352.806        0.715        0.085      112.246       12.173        0.012      342.108       17.286      863.296
08/14/2013  03:19:00      -78.085      -41.340        0.388       38.315       24.665       18.920     1468.049      608.345      357.953        0.512        0.122       88.353       19.171        0.047      342.064       17.210      863.303
08/14/2013  03:20:00      -62.761      -39.763       -4.542       35.415       30.618       19.176     1254.202      937.462      367.726        0.405        0.128       74.297       11.866        0.026      342.144       17.348      863.310
08/14/2013  03:21:00      -60.053      -44.035        1.396       41.156       24.051       18.425     1693.848      578.440      339.465        0.408        0.131       74.467       20.500        0.076      342.095       17.266      863.312
08/14/2013  03:22:00      -43.260      -16.548        8.494       45.619       25.500       24.093     2081.101      650.275      580.483        0.276        0.166       46.317       21.816        0.222      342.122       17.310      863.305
08/14/2013  03:23:00      -97.655      -65.346       -0.730       51.007       41.482       27.446     2601.707     1720.784      753.301        0.944        0.254      117.502       28.191        0.058      342.200       17.443      863.302
08/14/2013  03:24:00      -98.986      -29.414      -11.049       44.037       36.175       22.968     1939.223     1308.634      527.536        0.728        0.189      103.263       16.565        0.026      342.287       17.589      863.303
08/14/2013  03:25:00     -106.631       12.476      -15.965       29.538       33.945       20.807      872.490     1152.270      432.918        0.712        0.123      107.359       14.680        0.019      342.240       17.512      863.291
08/14/2013  03:26:00     -118.718      -23.105       -9.538       33.480       30.745       22.893     1120.937      945.243      524.096        0.865        0.130      120.946       18.629        0.024      342.180       17.409      863.274
08/14/2013  03:27:00      -98.304      -34.814       -5.353       20.712       29.348       17.328      428.996      861.299      300.243        0.625        0.080      104.287       12.148        0.014      342.211       17.461      863.261
08/14/2013  03:28:00      -77.017      -25.833       -2.575       26.177       20.685       18.223      685.253      427.864      332.062        0.403        0.072       81.234       20.016        0.061      342.218       17.472      863.266
08/14/2013  03:29:00      -64.443      -44.429       -3.998       41.732       19.605       13.581     1741.578      384.341      184.448        0.423        0.116       78.274       16.243        0.043      342.228       17.490      863.285
08/14/2013  03:30:00      -30.573      -49.398       10.495       38.736       33.549       22.016     1500.471     1125.532      484.719        0.330        0.156       58.093       24.142        0.173      342.217       17.472      863.297
08/14/2013  03:31:00      -29.504      -53.221        6.488       35.774       33.261       27.169     1279.814     1106.264      738.132        0.343        0.156       60.851       22.110        0.132      342.213       17.465      863.306
08/14/2013  03:32:00      -56.475      -78.836        3.993       31.275       36.454       17.060      978.114     1328.913      291.048        0.601        0.130       96.977       11.472        0.014      342.169       17.392      863.317
08/14/2013  03:33:00      -77.161      -37.983        0.979       37.674       45.342       18.421     1419.325     2055.861      339.346        0.561        0.191       86.003       22.836        0.071      342.192       17.431      863.325
08/14/2013  03:34:00      -81.432      -39.743        3.736       50.508       37.973       22.745     2551.102     1441.958      517.327        0.637        0.226       90.613       15.119        0.028      342.129       17.324      863.323
08/14/2013  03:35:00      -88.465      -61.579        0.620       41.507       38.698       25.308     1722.827     1497.533      640.504        0.774        0.193      107.787       26.143        0.059      342.059       17.203      863.316
08/14/2013  03:36:00     -127.273      -55.463       -7.587       25.807       24.031       19.245      666.002      577.508      370.385        1.047        0.081      138.833       10.380        0.006      342.038       17.168      863.319
08/14/2013  03:37:00      -90.660      -95.020       -3.268       39.059       45.752       26.674     1525.593     2093.208      711.490        1.079        0.217      131.332       23.755        0.033      341.904       16.939      863.321
08/14/2013  03:38:00     -126.136     -102.297      -15.058       48.652       47.840       32.216     2367.016     2288.661     1037.900        1.615        0.285      162.404       31.446        0.037      341.792       16.750      863.319
08/14/2013  03:39:00     -111.798     -115.398       -9.728       38.813       33.628       23.345     1506.470     1130.820      544.992        1.455        0.159      160.672       15.066        0.009      341.786       16.740      863.315
08/14/2013  03:40:00     -124.807     -102.847       -8.840       31.110       29.382       21.852      967.835      863.286      477.511        1.427        0.115      161.723        8.477        0.003      341.744       16.670      863.305
08/14/2013  03:41:00     -108.171      -89.621       -5.248       55.637       51.334       26.913     3095.429     2635.206      724.304        1.311        0.323      140.474       27.897        0.039      341.729       16.643      863.307
08/14/2013  03:42:00     -124.886      -65.249        0.946       53.531       36.753       25.261     2865.555     1350.758      638.109        1.235        0.243      140.905       23.315        0.027      341.691       16.580      863.318
08/14/2013  03:43:00      -87.567      -65.193       -5.190       44.008       24.592       15.847     1936.665      604.753      251.137        0.737        0.140      109.170       15.079        0.019      341.745       16.670      863.322
08/14/2013  03:44:00      -56.193      -58.871        5.018       40.782       39.501       22.637     1663.164     1560.291      512.443        0.519        0.187       81.385       22.052        0.073      341.756       16.690      863.325
08/14/2013  03:45:00      -29.707      -42.216        8.723       40.654       28.928       25.566     1652.730      836.852      653.617        0.294        0.157       51.621       19.657        0.145      341.698       16.592      863.330
08/14/2013  03:46:00      -36.727      -47.386        3.201       41.569       35.905       23.899     1727.962     1289.191      571.151        0.360        0.179       59.952       23.519        0.154      341.732       16.649      863.342
08/14/2013  03:47:00     -100.164     -105.281       -5.270       50.238       35.541       24.194     2523.852     1263.146      585.351        1.276        0.219      145.316       25.068        0.030      341.735       16.654      863.359
08/14/2013  03:48:00     -106.437      -87.919       -3.252       49.795       42.302       30.585     2479.574     1789.495      935.441        1.214        0.260      138.053       33.641        0.059      341.637       16.487      863.376
08/14/2013  03:49:00     -147.736     -120.863      -13.567       46.438       51.472       23.711     2156.451     2649.327      562.208        2.099        0.268      190.876       19.158        0.010      341.584       16.395      863.370
08/14/2013  03:50:00     -137.127     -102.044       -5.631       46.887       46.525       25.465     2198.351     2164.610      648.466        1.713        0.251      170.929       19.658        0.013      341.518       16.285      863.366
08/14/2013  03:51:00     -107.434      -78.600       -4.398       47.194       30.069       24.140     2227.306      904.129      582.742        1.073        0.186      133.117       23.125        0.030      341.485       16.228      863.359
08/14/2013  03:52:00     -130.228      -97.738       -9.743       56.219       41.397       27.387     3160.522     1713.692      750.048        1.611        0.281      162.825       29.897        0.034      341.453       16.174      863.365
08/14/2013  03:53:00     -114.242      -87.347       -5.186       36.803       51.312       24.865     1354.488     2632.887      618.254        1.266        0.230      143.808       24.318        0.029      341.465       16.196      863.354
08/14/2013  03:54:00     -123.331      -83.945       -0.399       58.031       43.164       26.432     3367.559     1863.110      698.672        1.409        0.296      149.189       22.145        0.022      341.447       16.165      863.345
08/14/2013  03:55:00     -136.732      -94.785       -1.135       49.189       39.229       31.358     2419.584     1538.938      983.340        1.631        0.247      166.373       28.581        0.030      341.360       16.016      863.340
08/14/2013  03:56:00     -114.700      -62.801       -4.686       58.738       46.849       26.034     3450.108     2194.832      677.790        1.172        0.316      130.768       25.898        0.039      341.374       16.042      863.334
08/14/2013  03:57:00      -74.049      -63.009       -3.031       47.177       28.849       27.975     2225.646      832.264      782.607        0.665        0.192       97.229       27.527        0.080      341.379       16.052      863.326
08/14/2013  03:58:00     -108.594      -85.246       -2.565       44.356       42.376       26.292     1967.459     1795.754      691.291        1.176        0.223      138.056       26.284        0.036      341.383       16.058      863.312
08/14/2013  03:59:00     -119.151     -112.896       -4.106       57.175       41.880       35.796     3268.950     1753.909     1281.326        1.663        0.315      164.141       37.008        0.051      341.336       15.978      863.304
08/14/2013  04:00:00     -117.327      -88.861        0.576       61.923       48.852       38.167     3834.418     2386.539     1456.717        1.467        0.384      147.180       37.458        0.065      341.397       16.081      863.303
08/14/2013  04:01:00     -105.610     -100.222        3.147       57.404       48.327       36.057     3295.273     2335.513     1300.086        1.407        0.347      145.595       34.969        0.058      341.339       15.982      863.307
08/14/2013  04:02:00     -174.233     -159.911       -4.399       69.239       53.547       35.985     4793.999     2867.238     1294.926        3.245        0.448      236.492       35.103        0.022      341.378       16.045      863.301
08/14/2013  04:03:00     -119.751      -86.054       -2.592       56.150       46.616       29.630     3152.798     2173.066      877.934        1.398        0.310      147.464       25.895        0.031      341.334       15.975      863.291
08/14/2013  04:04:00      -78.456      -81.419       -1.057       39.977       40.459       23.960     1598.160     1636.936      574.093        0.830        0.190      113.069       25.725        0.052      341.315       15.942      863.294
08/14/2013  04:05:00     -127.920     -124.575       -1.574       63.304       56.208       35.092     4007.381     3159.356     1231.464        2.014        0.420      178.556       40.054        0.050      341.241       15.815      863.311
08/14/2013  04:06:00     -130.104     -103.035       -5.455       53.663       50.894       33.320     2879.703     2590.163     1110.203        1.708        0.329      165.962       34.314        0.043      341.278       15.877      863.310
08/14/2013  04:07:00      -77.747      -53.620       -1.184       40.016       38.093       26.359     1601.262     1451.099      694.794        0.633        0.187       94.444       25.207        0.071      341.275       15.875      863.311
08/14/2013  04:08:00     -145.675      -83.853       -8.291       43.251       35.224       22.534     1870.630     1240.758      507.798        1.597        0.181      168.085       19.059        0.013      341.317       15.946      863.326
08/14/2013  04:09:00     -104.720      -67.424       -4.322       39.240       30.867       21.056     1539.771      952.771      443.339        0.923        0.147      124.549       16.053        0.017      341.288       15.897      863.328
08/14/2013  04:10:00     -108.187      -47.669        4.171       50.510       27.557       24.371     2551.226      759.370      593.942        0.895        0.195      118.223       28.203        0.057      341.275       15.873      863.332
08/14/2013  04:11:00     -102.467     -104.962       -3.587       81.847       60.396       34.950     6698.892     3647.631     1221.477        1.655        0.578      146.686       40.435        0.076      341.249       15.830      863.352
08/14/2013  04:12:00     -134.021     -114.287       -0.761       69.443       54.356       36.001     4822.386     2954.578     1296.049        2.005        0.454      176.134       33.335        0.036      341.171       15.697      863.352
08/14/2013  04:13:00     -136.609      -96.079       -2.785       53.465       38.588       34.020     2858.467     1489.024     1157.350        1.670        0.275      167.012       32.898        0.039      341.200       15.747      863.337
08/14/2013  04:14:00      -86.722      -58.732       -2.587       48.780       38.489       22.838     2379.494     1481.388      521.557        0.768        0.219      104.738       22.637        0.047      341.177       15.709      863.322
08/14/2013  04:15:00      -62.718      -51.591       -4.854       37.990       24.854       17.897     1443.240      617.745      320.292        0.450        0.119       81.211       14.524        0.032      341.181       15.716      863.319
08/14/2013  04:16:00      -53.161      -40.788        5.238       36.821       27.520       22.467     1355.754      757.370      504.763        0.357        0.131       67.006       21.718        0.105      341.219       15.780      863.310
08/14/2013  04:17:00     -116.694      -49.233       -3.504       32.778       32.046       15.402     1074.397     1026.976      237.221        0.920        0.117      126.655       10.011        0.006      341.243       15.821      863.313
08/14/2013  04:18:00     -128.984      -48.326       -6.622       18.966       21.372       15.287      359.711      456.760      233.679        1.003        0.053      137.740        5.266        0.001      341.150       15.662      863.314
08/14/2013  04:19:00     -111.339      -56.494       -5.199       27.843       31.860       21.294      775.230     1015.064      453.417        0.893        0.112      124.852       15.130        0.015      341.099       15.578      863.301
08/14/2013  04:20:00      -80.464      -59.510        4.359       52.569       50.580       25.045     2763.550     2558.322      627.263        0.799        0.297      100.080       30.088        0.090      341.072       15.531      863.285
08/14/2013  04:21:00     -102.381      -54.492        3.004       50.680       32.282       24.999     2568.416     1042.120      624.956        0.885        0.212      115.979       20.915        0.033      341.062       15.514      863.273
08/14/2013  04:22:00     -141.607      -59.024       -4.456       24.992       22.914       10.921      624.608      525.063      119.275        1.241        0.063      153.416        8.951        0.003      341.069       15.527      863.264
08/14/2013  04:23:00     -116.102      -36.144       -4.290       37.670       38.666       16.849     1419.011     1495.065      283.893        0.900        0.160      121.598       17.546        0.021      341.117       15.609      863.264
08/14/2013  04:24:00     -106.637      -39.683       -2.093       38.036       26.902       19.706     1446.714      723.697      388.328        0.775        0.128      113.781       21.037        0.034      341.034       15.466      863.265
08/14/2013  04:25:00      -97.285      -56.063       -4.687       36.691       27.200       19.167     1346.263      739.857      367.381        0.754        0.123      112.283       14.015        0.016      341.031       15.461      863.262
08/14/2013  04:26:00      -61.402      -62.699        6.694       54.834       34.054       23.321     3006.799     1159.652      543.854        0.623        0.236       87.758       27.260        0.096      341.035       15.468      863.267
08/14/2013  04:27:00      -53.049      -68.651        2.268       47.992       41.590       24.294     2303.205     1729.756      590.197        0.608        0.231       86.759       24.765        0.081      340.995       15.401      863.272
08/14/2013  04:28:00      -90.416      -51.849       -4.977       35.549       18.485       15.501     1263.747      341.708      240.266        0.637        0.092      104.228       19.365        0.035      341.073       15.534      863.270
08/14/2013  04:29:00      -49.002      -47.383       11.448       56.177       30.416       21.132     3155.854      925.158      446.555        0.465        0.226       68.164       25.418        0.139      341.044       15.484      863.284
08/14/2013  04:30:00      -57.100      -51.618        1.978       44.556       31.638       20.749     1985.250     1000.991      430.541        0.467        0.171       76.973       25.015        0.106      341.047       15.489      863.300
08/14/2013  04:31:00      -29.912      -32.358       10.407       40.581       26.970       19.218     1646.799      727.400      369.319        0.240        0.137       44.066       22.167        0.253      341.049       15.492      863.296
08/14/2013  04:32:00      -87.671      -81.423       -0.535       58.905       41.899       31.932     3469.781     1755.522     1019.676        1.028        0.312      119.649       33.070        0.076      341.129       15.627      863.305
08/14/2013  04:33:00     -100.190      -52.784        0.650       45.629       36.922       26.418     2081.963     1363.206      697.896        0.848        0.207      113.244       25.462        0.051      341.141       15.648      863.306
08/14/2013  04:34:00      -92.718      -69.736       -3.517       39.968       25.935       19.063     1597.417      672.616      363.412        0.805        0.132      116.016       22.725        0.038      341.131       15.631      863.301
08/14/2013  04:35:00      -86.948      -50.227       -8.464       36.167       20.759       15.322     1308.067      430.916      234.768        0.606        0.099      100.413        6.503        0.004      341.074       15.532      863.289
08/14/2013  04:36:00     -104.719      -56.902       -6.121       28.920       26.404       19.273      836.366      697.190      371.432        0.807        0.095      119.180        9.246        0.006      341.059       15.509      863.291
08/14/2013  04:37:00      -57.333      -41.620        6.513       40.633       26.774       19.450     1651.046      716.863      378.314        0.390        0.137       70.847       20.477        0.084      341.016       15.437      863.304
08/14/2013  04:38:00      -50.587      -48.887       12.941       50.364       36.433       29.776     2536.550     1327.379      886.598        0.493        0.238       70.349       33.019        0.220      341.043       15.482      863.298
08/14/2013  04:39:00     -108.951      -61.907       -4.162       26.439       27.172       17.419      699.000      738.333      303.437        0.873        0.087      125.310       13.275        0.011      341.135       15.638      863.291
08/14/2013  04:40:00     -119.472      -58.778       -6.572       35.491       25.227       20.654     1259.645      636.398      426.595        1.005        0.116      133.148       16.842        0.016      341.127       15.624      863.284
08/14/2013  04:41:00      -75.178      -61.863        7.734       47.363       37.777       26.468     2243.292     1427.129      700.568        0.695        0.219       97.359       27.292        0.079      341.058       15.508      863.281
08/14/2013  04:42:00      -52.100      -45.855        3.659       46.345       37.329       30.978     2147.836     1393.424      959.657        0.466        0.225       69.406       25.377        0.134      341.047       15.488      863.274
08/14/2013  04:43:00      -54.472      -62.101       15.340       68.916       51.839       34.128     4749.432     2687.257     1164.706        0.783        0.430       82.606       42.969        0.271      341.010       15.426      863.287
08/14/2013  04:44:00      -93.626     -106.074        1.148       49.775       44.176       24.305     2477.558     1951.543      590.709        1.252        0.251      141.483       20.854        0.022      341.096       15.571      863.302
08/14/2013  04:45:00     -129.860      -82.384       -9.478       40.365       43.171       22.258     1629.305     1863.778      495.431        1.386        0.199      153.788       20.785        0.018      341.103       15.584      863.302
08/14/2013  04:46:00     -119.178      -80.886       -8.889       38.735       58.671       28.280     1500.412     3442.229      799.731        1.328        0.287      144.034       30.454        0.045      341.064       15.519      863.295
08/14/2013  04:47:00      -78.914      -66.195       -3.027       55.798       32.232       27.719     3113.376     1038.901      768.323        0.777        0.246      103.001       31.832        0.096      341.053       15.498      863.294
08/14/2013  04:48:00      -66.547      -49.193       -2.119       22.122       26.574       14.203      489.363      706.178      201.736        0.412        0.070       82.755       12.477        0.023      341.026       15.453      863.275
08/14/2013  04:49:00      -68.126      -51.745       -2.495       26.543       25.487       16.651      704.552      649.596      277.252        0.448        0.082       85.549       14.795        0.030      341.058       15.507      863.270
08/14/2013  04:50:00      -54.981      -52.326       -3.960       37.654       35.781       23.061     1417.798     1280.257      531.798        0.450        0.161       75.901       19.905        0.069      341.032       15.463      863.288
08/14/2013  04:51:00      -66.089      -55.871        5.570       55.257       26.033       19.413     3053.355      677.702      376.881        0.581        0.205       86.541       23.385        0.073      340.985       15.383      863.306
08/14/2013  04:52:00      -74.253      -68.623       -3.121       52.201       43.730       36.994     2724.970     1912.296     1368.539        0.812        0.300      101.107       33.059        0.107      340.945       15.314      863.309
08/14/2013  04:53:00      -96.992      -56.123        3.519       46.712       46.329       21.404     2182.056     2146.358      458.120        0.868        0.239      112.059       22.959        0.042      340.902       15.243      863.315
08/14/2013  04:54:00      -90.339      -55.860       -7.000       38.667       26.851       17.859     1495.154      720.952      318.947        0.693        0.127      106.214       19.338        0.033      340.910       15.256      863.321
08/14/2013  04:55:00      -94.405      -37.115       -7.365       23.644       17.771       16.766      559.046      315.808      281.083        0.575        0.058      101.439        9.756        0.009      340.908       15.252      863.315
08/14/2013  04:56:00      -77.529      -29.819        0.250       36.602       20.009       14.863     1339.684      400.365      220.907        0.443        0.098       83.066       16.551        0.040      340.843       15.142      863.311
08/14/2013  04:57:00      -82.763      -56.843        3.149       59.381       34.493       28.682     3526.055     1189.741      822.683        0.781        0.277      100.404       33.232        0.110      340.805       15.079      863.309
08/14/2013  04:58:00     -115.211     -105.379      -12.059       65.924       46.959       29.552     4345.946     2205.153      873.336        1.597        0.371      156.135       27.396        0.031      340.813       15.091      863.312
08/14/2013  04:59:00      -80.137      -70.937        0.159       67.743       43.941       29.327     4589.098     1930.788      860.097        0.942        0.369      107.024       38.077        0.127      340.784       15.044      863.305
08/14/2013  05:00:00     -104.141      -62.812       -7.334       48.016       32.068       18.999     2305.574     1028.348      360.954        0.927        0.185      121.617       16.980        0.019      340.829       15.120      863.292
08/14/2013  05:01:00      -70.659      -45.877        3.881       45.593       37.561       21.808     2078.762     1410.838      475.585        0.554        0.198       84.246       23.220        0.076      340.766       15.013      863.293
08/14/2013  05:02:00      -68.258      -55.509       -1.904       26.833       46.728       16.358      720.032     2183.508      267.574        0.546        0.159       87.980       19.648        0.050      340.838       15.135      863.296
08/14/2013  05:03:00      -69.706      -54.289       -1.775       33.488       33.485       18.999     1121.476     1121.254      360.956        0.521        0.130       88.353       16.043        0.033      340.838       15.134      863.279
08/14/2013  05:04:00      -86.881      -12.111       -7.584       30.364       20.835       19.567      921.958      434.113      382.859        0.475        0.087       87.721       16.574        0.036      340.773       15.024      863.256
08/14/2013  05:05:00      -85.821      -18.744       -7.052       26.648       20.749       13.432      710.101      430.515      180.406        0.454        0.066       87.844        9.514        0.012      340.802       15.075      863.244
08/14/2013  05:06:00      -96.951      -46.494        2.649       31.344       32.760       17.985      982.441     1073.222      323.456        0.697        0.119      107.523       16.260        0.023      340.805       15.078      863.257
08/14/2013  05:07:00      -57.632      -55.406        7.144       39.637       30.561       21.153     1571.114      933.954      447.461        0.470        0.148       79.945       17.365        0.047      340.845       15.146      863.268
08/14/2013  05:08:00      -91.700      -53.703        5.227       45.353       60.206       25.507     2056.865     3624.719      650.590        0.883        0.317      106.268       28.416        0.072      340.764       15.009      863.286
08/14/2013  05:09:00     -147.420      -71.096       -6.955       30.572       38.443       25.234      934.674     1477.899      636.764        1.494        0.152      163.669       19.746        0.015      340.809       15.085      863.301
08/14/2013  05:10:00     -125.766       -5.832       -7.549       22.049       25.936       16.934      486.171      672.660      286.770        0.868        0.072      125.901       14.921        0.014      340.823       15.111      863.295
08/14/2013  05:11:00      -77.745      -17.386       -2.425       24.973       28.503       14.825      623.626      812.431      219.768        0.400        0.083       79.666       11.650        0.021      340.760       15.001      863.287
08/14/2013  05:12:00      -71.717      -35.033       -1.897       29.014       20.298       13.918      841.803      412.010      193.721        0.391        0.072       79.816       12.014        0.023      340.743       14.975      863.295
08/14/2013  05:13:00      -93.878      -48.218        2.515       31.793       24.612       16.916     1010.816      605.733      286.142        0.652        0.095      105.537       17.683        0.028      340.724       14.941      863.321
08/14/2013  05:14:00      -52.883      -37.188        4.856       42.080       34.338       20.919     1770.729     1179.070      437.599        0.379        0.169       64.650       21.925        0.115      340.753       14.992      863.339
08/14/2013  05:15:00     -116.433      -58.676       -2.212       37.222       29.183       19.182     1385.467      851.655      367.958        0.980        0.130      130.382       16.610        0.016      340.777       15.032      863.341
08/14/2013  05:16:00     -111.291      -42.055       -7.075       32.902       32.202       19.838     1082.557     1036.990      393.529        0.836        0.126      118.972       20.046        0.028      340.743       14.975      863.330
08/14/2013  05:17:00      -85.610      -43.919       -1.744       34.451       25.704       12.577     1186.862      660.671      158.169        0.563        0.100       96.219       14.070        0.021      340.717       14.930      863.319
08/14/2013  05:18:00      -62.851      -18.135       -8.727       17.449       19.010       11.597      304.463      361.362      134.487        0.258        0.040       65.415        9.979        0.023      340.779       15.034      863.306
08/14/2013  05:19:00      -71.224      -31.266       -4.606       23.201       19.101       10.735      538.303      364.851      115.235        0.354        0.051       77.784        9.440        0.015      340.688       14.882      863.312
08/14/2013  05:20:00      -79.073      -55.229       -1.996       30.070       13.570       14.307      904.202      184.137      204.697        0.530        0.065       96.451        4.419        0.002      340.712       14.922      863.333
08/14/2013  05:21:00      -11.614      -40.412       15.914       42.236       25.020       23.475     1783.865      626.023      551.097        0.249        0.148       42.048       20.038        0.227      340.684       14.874      863.360
08/14/2013  05:22:00      -48.800      -46.279       -5.748       34.890       47.079       19.480     1217.280     2216.392      379.486        0.418        0.191       67.255       19.754        0.086      340.775       15.030      863.365
08/14/2013  05:23:00      -30.944        0.944       12.257       25.825       23.056       14.696      666.953      531.573      215.970        0.126        0.071       30.959       11.955        0.149      340.818       15.103      863.355
08/14/2013  05:24:00     -104.926      -51.848      -10.592       27.719       35.083       22.458      768.341     1230.814      504.368        0.816        0.125      117.037        9.088        0.006      340.918       15.272      863.354
08/14/2013  05:25:00      -99.585      -70.812       -6.529       60.105       27.681       26.257     3612.573      766.253      689.404        1.002        0.253      122.195       28.777        0.055      340.855       15.163      863.363
08/14/2013  05:26:00     -142.432      -74.924       -3.486       46.586       32.929       23.727     2170.295     1084.291      562.960        1.486        0.191      160.936       15.950        0.010      340.683       14.873      863.366
08/14/2013  05:27:00     -143.623      -97.762       -8.351       37.287       41.767       21.884     1390.291     1744.455      478.905        1.693        0.181      173.738       10.163        0.003      340.747       14.980      863.365
08/14/2013  05:28:00     -106.463      -78.129       -5.778       36.340       41.019       21.000     1320.562     1682.543      440.999        1.046        0.172      132.055       17.945        0.018      340.719       14.934      863.369
08/14/2013  05:29:00     -113.825      -47.954        0.984       23.615       20.680       14.887      557.680      427.650      221.623        0.823        0.060      123.514       11.720        0.009      340.713       14.924      863.369
08/14/2013  05:30:00      -67.883      -20.435       -6.081       16.342       20.118       11.971      267.071      404.726      143.307        0.294        0.041       70.892        8.312        0.014      340.721       14.938      863.382
08/14/2013  05:31:00      -26.337      -26.147       -3.416       26.196       14.472        9.938      686.233      209.433       98.772        0.119        0.050       37.112       12.283        0.110      340.726       14.945      863.379
08/14/2013  05:32:00      -52.776      -29.594        2.905       29.170       12.501        9.506      850.890      156.279       90.358        0.238        0.055       60.507        8.214        0.018      340.810       15.086      863.390
08/14/2013  05:33:00      -73.261      -40.515        0.641       41.643       22.098       19.319     1734.127      488.321      373.220        0.480        0.130       83.718       11.168        0.018      340.688       14.881      863.399
08/14/2013  05:34:00      -76.011      -57.995       -1.392       56.498       40.469       28.420     3192.006     1637.742      807.692        0.739        0.282       95.609       30.263        0.100      340.653       14.822      863.412
08/14/2013  05:35:00      -99.237      -85.321       -6.804       30.647       26.172       19.104      939.249      684.987      364.945        0.958        0.099      130.872       18.412        0.020      340.645       14.807      863.410
08/14/2013  05:36:00      -78.798      -59.798        2.542       34.435       35.079       25.394     1185.754     1230.520      644.855        0.643        0.153       98.919       22.984        0.054      340.678       14.864      863.409
08/14/2013  05:37:00      -43.355      -45.477       -1.293       23.676       28.449       16.107      560.542      809.335      259.441        0.279        0.081       62.832       10.663        0.029      340.737       14.964      863.416
08/14/2013  05:38:00       -8.215      -24.254       16.914       35.642       23.801       20.952     1270.334      566.492      438.999        0.161        0.114       25.607       19.045        0.553      340.758       14.999      863.434
08/14/2013  05:39:00      -22.795      -41.043        8.254       50.613       43.511       33.212     2561.691     1893.216     1103.065        0.391        0.278       46.948       39.377        0.703      340.692       14.889      863.451
08/14/2013  05:40:00     -103.764      -87.283       -4.702       30.829       44.085       21.584      950.411     1943.498      465.868        1.088        0.168      135.592       15.549        0.013      340.621       14.768      863.461
08/14/2013  05:41:00      -70.307      -72.451       -4.683       32.307       45.012       17.858     1043.751     2026.085      318.905        0.680        0.169      100.956       12.335        0.015      340.768       15.016      863.464
08/14/2013  05:42:00      -54.774      -37.434       -0.383       42.531       23.046       19.668     1808.925      531.115      386.822        0.356        0.136       66.344       17.922        0.073      340.747       14.980      863.463
08/14/2013  05:43:00       -5.889      -37.946        4.807       20.084       23.888       17.980      403.371      570.623      323.286        0.140        0.065       38.401       10.869        0.080      340.730       14.953      863.472
08/14/2013  05:44:00      -37.418      -57.888       -0.203       33.746       32.163       15.979     1138.816     1034.488      255.339        0.359        0.121       68.929       15.779        0.052      340.765       15.010      863.484
08/14/2013  05:45:00      -80.025      -96.789      -10.036       43.998       39.015       24.870     1935.831     1522.198      618.536        0.997        0.204      125.587       27.434        0.048      340.675       14.858      863.494
08/14/2013  05:46:00     -150.239      -98.996      -11.896       53.752       53.049       31.132     2889.263     2814.161      969.217        1.959        0.334      179.922       16.638        0.009      340.558       14.661      863.493
08/14/2013  05:47:00     -178.481     -126.215       -9.224       45.834       48.882       29.542     2100.801     2389.411      872.731        2.662        0.268      218.599       24.557        0.013      340.502       14.563      863.488
08/14/2013  05:48:00     -137.624      -66.799        3.280       46.217       36.966       28.092     2136.052     1366.501      789.177        1.385        0.215      152.979       22.977        0.023      340.542       14.633      863.481
08/14/2013  05:49:00      -81.906      -47.387       11.619       78.719       27.754       28.233     6196.687      770.308      797.082        0.843        0.388       94.626       39.444        0.174      340.494       14.553      863.474
08/14/2013  05:50:00       -3.104      -18.594       17.641       43.249       24.913       23.805     1870.459      620.660      566.655        0.186        0.153       18.851       23.633        1.572      340.479       14.529      863.477
08/14/2013  05:51:00      -34.748      -39.459       15.978       70.249       28.798       23.662     4934.983      829.307      559.881        0.467        0.316       52.578       32.388        0.379      340.576       14.694      863.478
08/14/2013  05:52:00     -126.276      -86.289       -3.698       66.420       40.677       24.846     4411.674     1654.634      617.318        1.504        0.334      152.943       22.309        0.021      340.548       14.643      863.475
08/14/2013  05:53:00      -92.564      -77.595       -0.906       45.263       34.700       29.421     2048.730     1204.093      865.579        0.935        0.206      120.785       22.303        0.034      340.500       14.563      863.477
08/14/2013  05:54:00      -93.683      -82.940       -5.602       49.768       23.727       22.995     2476.889      562.950      528.761        0.963        0.178      125.123       23.087        0.034      340.510       14.580      863.483
08/14/2013  05:55:00      -50.093      -68.553        4.443       59.672       37.961       30.311     3560.791     1441.062      918.730        0.657        0.296       84.905       33.294        0.154      340.538       14.628      863.485
08/14/2013  05:56:00      -85.235     -110.726       -7.781       39.565       34.682       23.007     1565.416     1202.851      529.316        1.144        0.165      139.733       15.488        0.012      340.544       14.638      863.487
08/14/2013  05:57:00     -132.466      -88.994       -6.039       37.485       32.312       19.850     1405.148     1044.039      394.003        1.417        0.142      159.584       22.431        0.020      340.588       14.711      863.479
08/14/2013  05:58:00      -82.143      -69.460        6.466       34.910       33.405       19.484     1218.722     1115.926      379.620        0.716        0.136      107.574       14.333        0.018      340.601       14.734      863.469
08/14/2013  05:59:00      -70.896      -67.766        4.149       47.537       40.625       27.869     2259.797     1650.354      776.668        0.716        0.234       98.074       25.532        0.068      340.486       14.540      863.477
08/14/2013  06:00:00     -152.073      -90.331      -19.563       50.142       42.058       31.975     2514.235     1768.862     1022.416        1.849        0.265      176.878       20.609        0.014      340.396       14.386      863.481
08/14/2013  06:01:00     -170.298      -55.683        3.931       39.617       41.219       25.587     1569.543     1699.022      654.711        1.802        0.196      179.171       19.072        0.011      340.301       14.226      863.483
08/14/2013  06:02:00     -145.693     -104.930        3.450       52.768       44.704       32.500     2784.480     1998.457     1056.238        1.904        0.292      179.546       29.014        0.026      340.304       14.230      863.487
08/14/2013  06:03:00     -117.582      -80.316       -9.007       43.921       26.727       20.682     1929.093      714.330      427.725        1.171        0.154      142.395       22.643        0.025      340.408       14.407      863.503
08/14/2013  06:04:00     -116.735      -94.580        0.284       41.316       37.194       28.049     1707.003     1383.367      786.767        1.322        0.194      150.241       23.224        0.024      340.414       14.418      863.520
08/14/2013  06:05:00      -59.127      -48.498       12.110       54.846       35.421       25.873     3008.123     1254.618      669.401        0.546        0.247       76.473       30.536        0.159      340.406       14.405      863.546
08/14/2013  06:06:00      -70.216      -52.700        4.970       42.441       28.167       21.492     1801.204      793.364      461.891        0.539        0.153       87.792       17.916        0.042      340.419       14.427      863.574
08/14/2013  06:07:00      -53.101      -61.444        9.444       63.244       57.434       30.212     3999.850     3298.643      912.771        0.745        0.411       81.210       31.666        0.152      340.309       14.241      863.596
08/14/2013  06:08:00     -139.730      -74.853       -7.007       34.427       40.015       24.936     1185.188     1601.238      621.783        1.429        0.170      158.517       22.073        0.019      340.300       14.225      863.602
08/14/2013  06:09:00     -132.679      -54.058        2.706       60.225       39.646       26.384     3627.078     1571.799      696.115        1.321        0.295      143.269       26.668        0.035      340.260       14.157      863.611
08/14/2013  06:10:00     -112.564      -81.679        3.195       36.346       39.488       29.902     1321.036     1559.267      894.125        1.156        0.189      139.076       26.341        0.036      340.247       14.135      863.619
08/14/2013  06:11:00     -124.395      -35.285       -3.055       37.184       38.141       22.816     1382.680     1454.707      520.559        1.004        0.168      129.303       16.846        0.017      340.244       14.128      863.642
08/14/2013  06:12:00     -132.744      -38.759       -3.408       45.646       45.327       23.509     2083.562     2054.542      552.684        1.191        0.235      138.286       24.525        0.031      340.227       14.102      863.665
08/14/2013  06:13:00     -118.713      -24.035        1.651       50.056       38.924       25.692     2505.590     1515.090      660.062        0.968        0.234      121.122       23.770        0.039      340.120       13.922      863.673
08/14/2013  06:14:00     -146.836      -32.896       -9.047       55.296       47.505       32.456     3057.646     2256.690     1053.392        1.455        0.318      150.476       29.516        0.038      340.096       13.879      863.678
08/14/2013  06:15:00     -124.643      -16.068        6.282       63.510       43.303       29.974     4033.483     1875.162      898.419        1.132        0.340      125.675       28.784        0.052      340.028       13.766      863.687
08/14/2013  06:16:00      -87.973      -42.406        2.393       56.951       34.466       24.035     3243.392     1187.887      577.699        0.728        0.250       97.660       21.630        0.049      340.092       13.875      863.692
08/14/2013  06:17:00     -122.750      -46.644       -3.768       43.552       43.113       21.581     1896.763     1858.714      465.745        1.074        0.211      131.314       16.900        0.017      340.131       13.939      863.701
08/14/2013  06:18:00     -138.802      -57.101       -4.453       32.677       29.882       24.272     1067.794      892.921      589.149        1.255        0.127      150.088       20.012        0.018      340.131       13.940      863.717
08/14/2013  06:19:00     -112.874      -85.194       -1.627       47.223       47.968       29.082     2229.970     2300.916      845.738        1.269        0.269      141.416       22.777        0.026      340.178       14.018      863.715
08/14/2013  06:20:00     -146.171     -116.789        0.145       51.767       40.984       29.291     2679.790     1679.669      857.986        2.011        0.261      187.098       25.310        0.018      340.189       14.036      863.708
08/14/2013  06:21:00     -138.551      -99.031        5.892       52.936       47.227       29.611     2802.233     2230.409      876.839        1.747        0.295      170.304       25.531        0.022      340.178       14.020      863.697
08/14/2013  06:22:00     -120.645      -94.523       -9.689       51.905       39.072       26.605     2694.080     1526.628      707.826        1.426        0.246      153.264       30.879        0.041      340.183       14.027      863.710
08/14/2013  06:23:00      -82.992      -64.083        1.233       41.526       30.879       20.278     1724.423      953.491      411.200        0.704        0.154      104.853       16.387        0.024      340.217       14.084      863.738
08/14/2013  06:24:00      -83.916      -69.162       -1.603       47.642       35.710       26.325     2269.735     1275.180      693.028        0.803        0.212      108.744       25.150        0.053      340.220       14.090      863.747
08/14/2013  06:25:00      -83.991      -66.898        2.187       45.364       28.311       26.416     2057.909      801.505      697.806        0.755        0.178      107.377       25.340        0.056      340.223       14.094      863.763
08/14/2013  06:26:00      -94.682      -69.538       -0.060       55.430       32.690       29.029     3072.450     1068.648      842.706        0.939        0.249      117.474       18.450        0.025      340.207       14.067      863.774
08/14/2013  06:27:00      -90.884      -64.424        6.515       84.137       62.797       36.605     7079.054     3943.447     1339.924        1.241        0.618      111.401       48.020        0.186      340.247       14.134      863.780
08/14/2013  06:28:00     -128.165      -79.031       -0.460       65.346       42.947       30.993     4270.046     1844.468      960.562        1.487        0.354      150.573       30.146        0.040      340.205       14.065      863.767
08/14/2013  06:29:00      -86.052      -67.217        4.035       47.395       44.321       28.179     2246.295     1964.310      794.037        0.847        0.250      109.193       18.844        0.030      340.212       14.076      863.764
08/14/2013  06:30:00     -127.142      -94.214        0.740       49.073       43.211       31.977     2408.172     1867.161     1022.552        1.517        0.265      158.245       26.622        0.028      340.256       14.149      863.761
08/14/2013  06:31:00     -146.068      -77.872        1.280       37.721       30.377       27.848     1422.877      922.763      775.510        1.526        0.156      165.530       25.490        0.024      340.269       14.174      863.761
08/14/2013  06:32:00     -124.976      -88.910       -1.957       58.997       42.125       32.733     3480.687     1774.509     1071.422        1.493        0.316      153.375       30.484        0.040      340.284       14.198      863.759
08/14/2013  06:33:00     -136.349      -89.453        1.129       82.376       43.080       37.737     6785.776     1855.918     1424.088        1.833        0.503      163.073       43.366        0.071      340.265       14.164      863.771
08/14/2013  06:34:00     -137.977      -93.674        0.633       59.526       42.443       25.360     3543.380     1801.388      643.105        1.690        0.299      166.771       27.642        0.027      340.310       14.241      863.766
08/14/2013  06:35:00     -148.999      -51.302      -17.216       31.864       41.481       19.998     1015.283     1720.645      399.929        1.413        0.157      157.583       16.255        0.011      340.341       14.294      863.762
08/14/2013  06:36:00      -95.997      -26.763       -5.737       37.058       24.287       23.250     1373.320      589.839      540.571        0.623        0.125       99.658       21.169        0.045      340.398       14.390      863.749
08/14/2013  06:37:00      -64.639      -45.360       -8.508       25.480       17.957       15.392      649.233      322.466      236.906        0.376        0.060       78.966        6.342        0.006      340.471       14.515      863.756
08/14/2013  06:38:00      -42.397      -34.788        1.295       38.188       24.490       14.855     1458.344      599.760      220.680        0.264        0.114       54.843        9.864        0.032      340.433       14.450      863.766
08/14/2013  06:39:00      -81.012      -88.079        7.316       51.451       51.026       33.659     2647.163     2603.699     1132.932        1.038        0.319      119.670       27.337        0.052      340.409       14.411      863.792
08/14/2013  06:40:00     -157.955     -118.860       -7.201       50.765       44.528       28.537     2577.134     1982.718      814.350        2.225        0.269      197.681       24.748        0.016      340.304       14.229      863.798
08/14/2013  06:41:00     -145.492      -71.089       -6.806       48.859       37.813       27.674     2387.200     1429.800      765.827        1.542        0.229      161.931       24.578        0.023      340.320       14.260      863.783
08/14/2013  06:42:00     -109.529      -12.819       -8.347       35.884       27.211       21.619     1287.680      740.451      467.391        0.736        0.125      110.277       20.362        0.034      340.367       14.338      863.769
08/14/2013  06:43:00      -68.767      -21.118        4.290       28.969       22.182       18.558      839.193      492.038      344.417        0.343        0.084       71.936       18.086        0.063      340.390       14.377      863.762
08/14/2013  06:44:00     -105.776      -25.929       -4.525       29.204       26.897       17.588      852.873      723.427      309.344        0.688        0.094      108.908       13.774        0.016      340.315       14.250      863.767
08/14/2013  06:45:00      -73.401      -50.319        7.028       56.099       29.700       19.982     3147.100      882.115      399.271        0.620        0.221       88.992       19.603        0.049      340.376       14.356      863.788
08/14/2013  06:46:00      -83.007      -84.796        3.067       64.705       49.604       28.848     4186.737     2460.556      832.186        1.078        0.374      118.662       33.136        0.078      340.417       14.425      863.808
08/14/2013  06:47:00     -167.666      -80.348       -2.928       61.038       55.953       35.503     3725.591     3130.731     1260.463        2.135        0.406      185.924       32.157        0.030      340.346       14.302      863.815
08/14/2013  06:48:00      -92.236      -20.352        2.543       43.395       46.467       22.443     1883.129     2159.211      503.670        0.674        0.227       94.454       22.310        0.056      340.419       14.426      863.811
08/14/2013  06:49:00     -103.896        1.953       -5.358       41.931       31.611       18.225     1758.177      999.250      332.156        0.696        0.154      103.914       16.517        0.025      340.415       14.419      863.813
08/14/2013  06:50:00      -70.971      -24.262        5.044       31.700       31.193       19.869     1004.920      972.999      394.763        0.401        0.119       75.003       16.524        0.049      340.387       14.370      863.833
08/14/2013  06:51:00      -87.967      -12.801        1.032       19.781       21.689       15.721      391.295      470.400      247.151        0.451        0.055       88.893       13.734        0.024      340.325       14.266      863.842
08/14/2013  06:52:00      -73.243      -47.134        4.528       37.021       23.474       16.540     1370.528      551.041      273.579        0.490        0.110       87.098        8.824        0.010      340.425       14.437      863.848
08/14/2013  06:53:00      -47.663      -45.696        1.823       34.311       28.203       18.022     1177.256      795.411      324.775        0.333        0.115       66.029       16.625        0.063      340.477       14.524      863.858
08/14/2013  06:54:00      -82.768      -60.916        0.886       45.585       34.263       19.364     2077.985     1173.941      374.969        0.709        0.181      102.769       24.492        0.057      340.453       14.483      863.850
08/14/2013  06:55:00     -102.864      -39.599       -5.416       26.472       28.010       12.537      700.752      784.543      157.171        0.691        0.082      110.222        9.729        0.008      340.479       14.528      863.844
08/14/2013  06:56:00      -80.850      -19.299        1.093       33.689       31.879       18.266     1134.921     1016.256      333.659        0.470        0.124       83.122       19.213        0.053      340.433       14.450      863.848
08/14/2013  06:57:00      -31.735      -30.478        3.779       30.176       21.431       13.418      910.603      459.282      180.037        0.175        0.077       44.000        9.746        0.049      340.524       14.604      863.856
08/14/2013  06:58:00      -55.821       -8.253        4.571       50.837       20.782       15.120     2584.402      431.899      228.616        0.322        0.162       56.428       21.531        0.146      340.600       14.731      863.873
08/14/2013  06:59:00     -107.318      -62.340       -5.330       41.906       29.936       17.059     1756.103      896.135      291.013        0.919        0.147      124.111        6.674        0.003      340.510       14.580      863.888
08/14/2013  07:00:00      -77.183      -80.441       -1.230       39.152       33.143       19.227     1532.864     1098.479      369.666        0.771        0.150      111.481       19.256        0.030      340.459       14.494      863.896
08/14/2013  07:01:00      -54.209      -30.255       -7.688       26.171       17.382       18.532      684.935      302.134      343.431        0.262        0.067       62.080        9.947        0.026      340.516       14.590      863.911
08/14/2013  07:02:00      -32.700        0.285       -5.159       12.425       14.231       11.147      154.370      202.508      124.265        0.079        0.024       32.702        6.968        0.045      340.582       14.701      863.910
08/14/2013  07:03:00      -53.912      -24.774      -14.851       17.848       11.032       11.937      318.539      121.702      142.495        0.216        0.029       59.332        5.238        0.008      340.644       14.807      863.925
08/14/2013  07:04:00      -70.317      -38.256      -10.747       19.992       17.461       12.064      399.665      304.901      145.537        0.369        0.043       80.050        9.569        0.014      340.653       14.822      863.947
08/14/2013  07:05:00      -55.410      -63.920        3.663       59.793       55.281       24.655     3575.154     3056.012      607.856        0.720        0.362       84.594       30.923        0.134      340.667       14.845      863.971
08/14/2013  07:06:00     -110.715      -87.748       -4.091       38.156       50.927       23.575     1455.847     2593.516      555.780        1.229        0.230      141.271       18.827        0.018      340.510       14.580      863.981
08/14/2013  07:07:00      -93.698      -72.339       -0.550       45.722       39.533       23.978     2090.457     1562.839      574.951        0.912        0.211      118.373       24.437        0.043      340.630       14.784      863.977
08/14/2013  07:08:00      -83.309      -63.908       -2.754       39.751       38.867       24.876     1580.147     1510.648      618.836        0.737        0.185      104.998       23.801        0.051      340.710       14.919      863.980
08/14/2013  07:09:00      -76.871      -60.936       -5.368       34.951       30.873       25.190     1221.578      953.130      634.554        0.623        0.140       98.094       14.333        0.021      340.677       14.863      863.983
08/14/2013  07:10:00      -74.344      -74.035       -3.313       44.500       37.515       17.270     1980.206     1407.357      298.250        0.735        0.184      104.920       16.804        0.026      340.679       14.866      863.993
08/14/2013  07:11:00      -67.864      -69.542        1.418       35.877       40.368       22.700     1287.134     1629.589      515.273        0.644        0.172       97.168       24.612        0.064      340.697       14.897      863.991
08/14/2013  07:12:00      -75.615     -106.141       -6.468       32.047       26.282       19.354     1027.033      690.758      374.594        0.956        0.105      130.321       17.639        0.018      340.638       14.797      863.994
08/14/2013  07:13:00      -67.510      -88.594       -4.228       46.314       46.226       20.691     2145.018     2136.875      428.115        0.857        0.236      111.385       18.382        0.027      340.629       14.782      863.982
08/14/2013  07:14:00     -115.821     -109.626       -3.890       50.830       40.733       33.320     2583.673     1659.169     1110.232        1.540        0.268      159.475       31.577        0.039      340.597       14.726      863.992
08/14/2013  07:15:00     -120.766      -93.450       -2.910       37.370       27.772       25.300     1396.532      771.261      640.103        1.307        0.140      152.700       23.848        0.024      340.637       14.796      863.992
08/14/2013  07:16:00     -111.755     -121.372      -13.956       27.104       32.795       22.492      734.643     1075.488      505.907        1.487        0.116      164.985       11.827        0.005      340.690       14.885      864.011
08/14/2013  07:17:00     -105.306      -75.921       -8.715       50.990       45.834       33.622     2599.973     2100.713     1130.436        1.138        0.292      129.820       21.836        0.028      340.702       14.906      864.019
08/14/2013  07:18:00     -122.560      -99.551       -9.344       30.708       39.569       26.836      942.965     1565.674      720.190        1.412        0.161      157.897       16.139        0.010      340.744       14.976      864.033
08/14/2013  07:19:00     -106.225      -81.898       -0.077       29.958       26.418       19.685      897.461      697.908      387.511        0.999        0.099      134.131       16.493        0.015      340.745       14.979      864.039
08/14/2013  07:20:00      -78.221      -54.494        3.636       34.041       25.911       17.212     1158.770      671.364      296.268        0.561        0.106       95.332       14.585        0.023      340.869       15.188      864.049
08/14/2013  07:21:00      -88.808      -83.626       -3.374       38.925       36.208       21.832     1515.138     1311.044      476.627        0.910        0.165      121.985       17.521        0.021      340.862       15.174      864.045
08/14/2013  07:22:00     -114.973     -104.653       -3.399       39.303       47.879       22.806     1544.722     2292.439      520.119        1.427        0.218      155.470       21.433        0.019      340.844       15.146      864.052
08/14/2013  07:23:00     -149.273      -92.298       -0.532       45.322       38.175       23.760     2054.069     1457.346      564.548        1.744        0.204      175.503       16.762        0.009      340.879       15.203      864.036
08/14/2013  07:24:00     -150.434      -53.944       -3.089       41.285       31.517       22.711     1704.465      993.307      515.795        1.438        0.161      159.814       23.754        0.022      340.945       15.314      864.039
08/14/2013  07:25:00     -165.938      -25.602       -2.461       52.294       34.468       27.354     2734.704     1188.036      748.240        1.643        0.234      167.902       28.148        0.028      340.981       15.377      864.027
08/14/2013  07:26:00     -111.011      -41.125        2.948       37.042       32.861       21.257     1372.134     1079.865      451.858        0.846        0.145      118.384       20.468        0.030      341.030       15.462      864.035
08/14/2013  07:27:00      -88.189      -59.963       -1.964       36.340       30.320       18.220     1320.593      919.291      331.960        0.697        0.129      106.644       18.955        0.032      341.147       15.658      864.026
08/14/2013  07:28:00      -70.516      -14.576        4.108       29.294       30.878       18.234      858.168      953.455      332.484        0.367        0.107       72.007       17.678        0.060      341.174       15.702      864.034
08/14/2013  07:29:00      -72.972      -20.760        2.294       35.304       46.139       20.687     1246.407     2128.848      427.946        0.478        0.190       75.868       18.704        0.061      341.208       15.761      864.031
08/14/2013  07:30:00      -59.332      -27.439        1.304       25.755       37.160       17.662      663.336     1380.841      311.931        0.332        0.118       65.369       12.833        0.039      341.232       15.801      864.047
08/14/2013  07:31:00      -35.235      -43.965        1.521       32.715       30.430       15.460     1070.255      925.969      239.003        0.271        0.112       56.342       16.897        0.090      341.277       15.878      864.047
08/14/2013  07:32:00      -76.701      -65.747       -4.558       33.313       16.256       16.019     1109.729      264.244      256.612        0.593        0.082      101.023       11.833        0.014      341.286       15.893      864.065
08/14/2013  07:33:00      -85.911      -58.320       -5.034       28.153       28.072       17.848      792.590      788.046      318.542        0.635        0.095      103.836       13.820        0.018      341.256       15.844      864.067
08/14/2013  07:34:00      -48.547      -48.371        8.003       43.232       34.731       24.612     1869.028     1206.219      605.754        0.422        0.184       68.531       31.002        0.205      341.413       16.109      864.080
08/14/2013  07:35:00      -76.723      -79.085       -2.901       42.130       27.936       20.554     1774.960      780.446      422.484        0.756        0.149      110.185       24.010        0.047      341.331       15.969      864.083
08/14/2013  07:36:00      -94.115      -86.375      -10.438       28.642       30.887       21.573      820.360      953.995      465.394        0.933        0.112      127.743       17.202        0.018      341.328       15.964      864.099
08/14/2013  07:37:00      -99.125      -83.596       -3.082       42.659       37.501       22.462     1819.796     1406.346      504.549        1.028        0.187      129.669       24.557        0.036      341.348       15.997      864.104
08/14/2013  07:38:00      -90.129      -75.131       -3.087       23.105       31.001       18.824      533.842      961.091      354.352        0.781        0.092      117.337       15.302        0.017      341.392       16.074      864.110
08/14/2013  07:39:00      -65.810      -72.801        5.102       37.793       32.985       25.946     1428.334     1087.981      673.186        0.642        0.159       98.137       24.423        0.062      341.441       16.157      864.118
08/14/2013  07:40:00      -77.043      -68.502        1.240       40.278       46.683       22.336     1622.330     2179.276      498.898        0.746        0.215      103.093       24.211        0.055      341.550       16.339      864.122
08/14/2013  07:41:00     -105.827     -101.400       -4.907       36.085       39.744       19.888     1302.112     1579.574      395.525        1.239        0.164      146.565       18.076        0.015      341.524       16.297      864.133
08/14/2013  07:42:00      -98.825     -100.333       -7.203       37.882       37.112       23.611     1435.059     1377.334      557.467        1.163        0.168      140.830       10.681        0.006      341.513       16.277      864.149
08/14/2013  07:43:00      -83.495     -106.937       -4.250       38.888       25.587       19.584     1512.243      654.697      383.533        1.049        0.128      135.672       18.128        0.018      341.559       16.355      864.159
08/14/2013  07:44:00      -84.642      -52.155        2.398       31.874       38.337       17.008     1015.935     1469.707      289.278        0.633        0.139       99.421       15.756        0.025      341.612       16.444      864.154
08/14/2013  07:45:00      -85.959      -88.198       -3.089       22.032       19.698       15.199      485.412      388.021      231.022        0.814        0.055      123.158        5.665        0.002      341.614       16.448      864.151
08/14/2013  07:46:00      -68.414      -50.763        2.242       27.752       22.798       15.305      770.181      519.729      234.242        0.439        0.076       85.190       13.022        0.023      341.694       16.584      864.150
08/14/2013  07:47:00      -67.592      -69.795       -2.044       38.140       25.083       20.668     1454.680      629.177      427.180        0.598        0.126       97.160       17.255        0.032      341.702       16.599      864.144
08/14/2013  07:48:00      -45.216      -33.958        4.448       34.580       25.457       20.538     1195.763      648.049      421.796        0.274        0.113       56.548       20.221        0.128      341.830       16.814      864.139
08/14/2013  07:49:00      -44.352      -50.932       -5.393       23.251       20.838       13.732      540.610      434.232      188.566        0.288        0.058       67.537        9.897        0.021      341.810       16.781      864.138
08/14/2013  07:50:00      -33.052      -36.834        1.461       13.854       28.420       12.068      191.940      807.680      145.627        0.180        0.057       49.489       14.424        0.085      341.821       16.800      864.137
08/14/2013  07:51:00      -39.688      -55.759        1.795       22.320       23.433       16.245      498.177      549.124      263.884        0.300        0.066       68.441       16.409        0.057      341.870       16.885      864.139
08/14/2013  07:52:00      -56.082      -77.518      -13.673       23.200       26.007       13.195      538.235      676.366      174.110        0.536        0.069       95.678        5.269        0.003      341.817       16.792      864.135
08/14/2013  07:53:00      -44.017      -53.970       -1.007       32.776       23.069       18.324     1074.275      532.184      335.761        0.340        0.097       69.644       18.947        0.074      341.921       16.969      864.138
08/14/2013  07:54:00      -43.602      -69.087       -4.727       26.586       14.557       14.960      706.811      211.917      223.810        0.392        0.057       81.696       10.426        0.016      341.892       16.920      864.140
08/14/2013  07:55:00      -39.760      -74.626       -1.195       22.963       18.478       12.974      527.315      341.425      168.327        0.409        0.052       84.557       11.520        0.019      341.909       16.947      864.137
08/14/2013  07:56:00      -38.718      -76.018        4.634       22.039       42.778       10.713      485.703     1829.939      114.773        0.486        0.122       85.310       11.103        0.017      342.071       17.225      864.137
08/14/2013  07:57:00       -6.125      -55.172       18.245       27.214       41.658       24.451      740.600     1735.348      597.866        0.324        0.154       55.511       30.499        0.302      342.287       17.592      864.136
08/14/2013  07:58:00      -45.191      -57.901        1.481       31.871       28.741       15.694     1015.755      826.064      246.303        0.374        0.104       73.449       12.454        0.029      342.079       17.238      864.128
08/14/2013  07:59:00      -52.690      -40.080        4.076       22.255       25.655       18.416      495.294      658.154      339.143        0.295        0.075       66.201       15.100        0.052      342.097       17.268      864.117
08/14/2013  08:00:00      -35.842      -72.424       -1.369       15.332       26.301       10.462      235.066      691.763      109.462        0.378        0.052       80.808        6.436        0.006      342.061       17.207      864.112
08/14/2013  08:01:00      -38.810      -69.360        1.770       21.786       19.652       15.456      474.618      386.214      238.900        0.371        0.055       79.479        8.978        0.013      342.103       17.275      864.111
08/14/2013  08:02:00      -53.472      -50.096        2.754       23.215       21.966       16.117      538.946      482.517      259.770        0.333        0.064       73.273       12.157        0.028      342.151       17.360      864.114
08/14/2013  08:03:00      -42.138      -41.666        3.317       24.746       22.131       12.714      612.352      489.780      161.637        0.239        0.063       59.259        9.393        0.025      342.250       17.529      864.118
08/14/2013  08:04:00       -5.644      -39.196        5.038       17.048       30.932       23.984      290.621      956.774      575.244        0.171        0.091       39.601       16.698        0.178      342.541       18.022      864.124
08/14/2013  08:05:00      -34.842      -76.714        5.319       22.569       22.341       15.283      509.378      499.101      233.579        0.418        0.062       84.255       13.000        0.024      342.278       17.577      864.128
08/14/2013  08:06:00      -50.679      -65.198       -8.601       28.473       26.710       18.238      810.712      713.425      332.634        0.437        0.093       82.578       12.683        0.024      342.234       17.500      864.127
08/14/2013  08:07:00      -41.644      -49.255        0.731       29.144       16.035       15.821      849.353      257.128      250.288        0.276        0.068       64.500       13.817        0.046      342.302       17.616      864.126
08/14/2013  08:08:00      -63.597      -64.663       -7.317       26.638       23.964       11.420      709.594      574.283      130.414        0.485        0.071       90.697       11.800        0.017      342.293       17.600      864.113
08/14/2013  08:09:00      -47.405      -67.323        0.993       29.985       30.307       18.508      899.116      918.528      342.553        0.447        0.108       82.338       18.426        0.050      342.358       17.711      864.109
08/14/2013  08:10:00      -47.259      -66.018        3.806       20.304       21.790       13.775      412.263      474.784      189.738        0.384        0.054       81.190        6.651        0.007      342.342       17.683      864.107
08/14/2013  08:11:00      -33.048      -87.435       -1.189       24.125       27.014       19.886      582.004      729.744      395.454        0.522        0.085       93.473       17.850        0.036      342.354       17.704      864.109
08/14/2013  08:12:00      -41.597      -51.105       11.708       29.412       30.879       22.524      865.049      953.538      507.349        0.340        0.116       65.895       26.322        0.160      342.629       18.172      864.106
08/14/2013  08:13:00      -52.698      -75.936        3.216       21.843       30.100       14.551      477.127      906.015      211.732        0.507        0.080       92.430        8.723        0.009      342.422       17.820      864.113
08/14/2013  08:14:00      -68.996      -89.264        4.616       19.323       24.383       13.394      373.382      594.544      179.403        0.695        0.057      112.821       11.301        0.010      342.409       17.798      864.110
08/14/2013  08:15:00      -46.336      -14.629        5.997       39.231       38.857       20.199     1539.075     1509.879      408.015        0.293        0.173       48.590       24.893        0.262      342.723       18.332      864.114
08/14/2013  08:16:00      -33.618      -27.635        3.425       22.294       29.507       17.561      497.015      870.659      308.399        0.179        0.084       43.519       15.636        0.129      342.550       18.039      864.121
08/14/2013  08:17:00      -53.956      -54.847        1.004       33.057       33.199       19.891     1092.739     1102.168      395.635        0.426        0.130       76.938       21.390        0.077      342.602       18.127      864.121
08/14/2013  08:18:00      -57.565      -44.693       -0.399       20.824       19.605       11.831      433.633      384.360      139.978        0.313        0.048       72.878        7.323        0.010      342.560       18.057      864.126
08/14/2013  08:19:00      -73.660      -77.166       -3.380       22.391       31.052       20.521      501.350      964.202      421.126        0.664        0.094      106.679       14.499        0.018      342.570       18.072      864.127
08/14/2013  08:20:00      -59.497      -17.778       -3.373       22.653       46.823       22.930      513.176     2192.378      525.782        0.355        0.162       62.096       23.741        0.146      342.662       18.228      864.119
08/14/2013  08:21:00      -41.707      -10.010       12.519       28.201       24.177       24.092      795.285      584.550      580.414        0.198        0.098       42.891       20.475        0.228      342.883       18.605      864.120
08/14/2013  08:22:00      -47.416       -4.872       -3.098       19.213       20.623       13.772      369.143      425.314      189.661        0.163        0.049       47.666       11.889        0.062      342.689       18.274      864.119
08/14/2013  08:23:00      -46.308       16.871       15.398       20.272       20.403       21.073      410.939      416.298      444.091        0.197        0.064       49.286       17.220        0.122      342.853       18.552      864.105
08/14/2013  08:24:00      -33.125        6.144        4.405       13.281       19.785       16.107      176.384      391.440      259.423        0.099        0.041       33.690       10.375        0.095      342.912       18.654      864.098
08/14/2013  08:25:00      -35.078        6.154       -0.468       16.918       11.849       11.658      286.214      140.400      135.905        0.092        0.028       35.614        4.547        0.016      342.839       18.527      864.088
08/14/2013  08:26:00      -39.760        7.814       -0.569       20.367       23.062       21.567      414.794      531.868      465.122        0.153        0.071       40.520       15.659        0.149      343.029       18.853      864.086
08/14/2013  08:27:00      -45.499       17.258       -2.382       19.214       13.458       20.903      369.166      181.129      436.929        0.168        0.049       48.662        9.347        0.037      342.924       18.675      864.096
08/14/2013  08:28:00        1.606      -15.463        9.632       26.548       19.703       29.043      704.804      388.191      843.487        0.114        0.097       15.546       20.326        1.709      343.160       19.077      864.104
08/14/2013  08:29:00       23.299       -4.739       10.526       35.632       37.082       32.848     1269.622     1375.085     1078.973        0.220        0.186       23.776       26.860        1.276      342.745       18.369      864.108
08/14/2013  08:30:00       -3.932       35.484       52.717       19.715       26.401       14.363      388.686      697.020      206.284        0.267        0.065       35.702        6.163        0.030      343.268       19.260      864.118
08/14/2013  08:31:00       -2.412        5.360       44.024       24.756       21.920       13.096      612.847      480.496      171.505        0.162        0.063        5.878       11.509        3.834      343.499       19.654      864.127
08/14/2013  08:32:00       -0.363        0.823       29.338       24.825       12.686       13.847      616.273      160.940      191.746        0.092        0.048        0.899        8.941       98.874      343.454       19.576      864.135
08/14/2013  08:33:00        6.760        5.991       34.376       26.243       22.466       23.274      688.671      504.711      541.700        0.150        0.087        9.032       20.993        5.402      343.680       19.963      864.131
08/14/2013  08:34:00        2.056       18.303       39.314       20.189       24.124       19.673      407.586      581.973      387.008        0.163        0.069       18.418       14.776        0.644      343.752       20.087      864.131
08/14/2013  08:35:00        8.245       -7.920       22.526       29.240       24.462       31.439      854.952      598.369      988.431        0.154        0.122       11.433       18.630        2.655      343.038       18.870      864.124
08/14/2013  08:36:00        6.054       -6.169        8.193       29.281       18.875       20.761      857.377      356.256      431.008        0.089        0.082        8.644       11.945        1.910      343.082       18.945      864.118
08/14/2013  08:37:00       16.680       -7.312       11.532       27.994       24.636       24.120      783.683      606.945      581.794        0.122        0.099       18.212       18.477        1.029      343.128       19.021      864.112
08/14/2013  08:38:00        4.508      -12.908       14.158       17.853       22.529       22.913      318.723      507.539      524.988        0.087        0.068       13.672       13.785        1.017      343.203       19.151      864.106
08/14/2013  08:39:00       16.471      -38.269        1.070       27.846       26.656       28.767      775.420      710.541      827.564        0.202        0.116       41.663       17.872        0.184      342.727       18.339      864.098
08/14/2013  08:40:00      -12.664      -15.134        1.528       31.972       24.655       23.526     1022.240      607.889      553.496        0.129        0.109       19.734       11.482        0.339      342.761       18.395      864.088
08/14/2013  08:41:00      -34.064       18.915        8.740       17.039       14.698       19.994      290.321      216.045      399.750        0.125        0.045       38.963       15.411        0.156      343.389       19.468      864.084
08/14/2013  08:42:00        1.917       25.406       14.563       20.520       25.329       21.750      421.084      641.543      473.046        0.120        0.077       25.478       16.672        0.428      343.723       20.036      864.078
08/14/2013  08:43:00      -36.545       13.824       18.394       22.839       29.549       20.463      521.631      873.157      418.735        0.184        0.091       39.072       17.146        0.193      343.514       19.679      864.065
08/14/2013  08:44:00      -49.759       23.042       10.051       16.412       20.180       15.215      269.351      407.242      231.502        0.201        0.045       54.836       10.716        0.038      343.290       19.298      864.057
08/14/2013  08:45:00      -20.174       22.075       40.068       17.102       25.093       28.260      292.467      629.677      798.625        0.211        0.086       29.905       21.621        0.523      343.911       20.356      864.045
08/14/2013  08:46:00      -22.046        6.185       10.806       15.191       16.963       20.540      230.766      287.733      421.883        0.079        0.047       22.897       14.627        0.408      343.540       19.725      864.039
08/14/2013  08:47:00      -18.192       -2.029        6.712       27.506       21.020       20.302      756.572      441.855      412.167        0.100        0.081       18.305       15.715        0.737      343.751       20.084      864.036
08/14/2013  08:48:00      -26.811       10.250       -4.438       23.362       21.376       24.290      545.774      456.949      589.994        0.122        0.080       28.704        8.866        0.095      343.697       19.992      864.036
08/14/2013  08:49:00        2.846      -10.283       12.582       17.484       22.007       25.162      305.673      484.317      633.111        0.085        0.071       10.669       20.516        3.698      344.173       20.805      864.034
08/14/2013  08:50:00      -47.257      -40.940        0.063       27.751       31.514       16.510      770.100      993.133      272.576        0.297        0.102       62.525        8.082        0.017      343.508       19.669      864.030
08/14/2013  08:51:00      -22.328      -32.503        0.355       24.865       28.634       17.560      618.246      819.926      308.364        0.165        0.087       39.433       13.102        0.110      343.405       19.494      864.031
08/14/2013  08:52:00      -29.959       -2.387        6.906       28.007       26.536       19.607      784.394      704.142      384.454        0.141        0.094       30.054       21.967        0.534      343.709       20.013      864.025
08/14/2013  08:53:00       14.446        1.690       21.086       40.092       32.067       30.511     1607.344     1028.263      930.930        0.211        0.178       14.545       26.670        3.362      344.019       20.540      864.012
08/14/2013  08:54:00       -4.134       12.095       22.742       30.379       26.959       30.196      922.886      726.800      911.769        0.162        0.128       12.782       18.779        2.158      343.971       20.459      864.017
08/14/2013  08:55:00      -21.001       13.335       23.321       15.296       18.960       19.351      233.974      359.495      374.474        0.107        0.048       24.877        9.464        0.145      343.760       20.100      864.021
08/14/2013  08:56:00      -18.682       -3.741        2.176       30.799       16.020       20.691      948.580      256.633      428.099        0.100        0.082       19.053       15.300        0.645      343.602       19.829      864.025
08/14/2013  08:57:00       14.595       -0.849       24.154       23.841       20.305       22.405      568.403      412.278      501.979        0.114        0.074       14.620       12.827        0.770      344.055       20.604      864.015
08/14/2013  08:58:00        7.140       24.139       38.911       32.711       27.146       31.867     1070.002      736.891     1015.478        0.248        0.141       25.173       23.462        0.869      344.111       20.699      864.007
08/14/2013  08:59:00       14.638       -3.327       38.007       33.577       31.085       30.452     1127.386      966.271      927.331        0.234        0.151       15.012       21.260        2.006      344.146       20.758      864.002
08/14/2013  09:00:00        7.541       12.601       22.118       31.781       31.277       36.204     1010.051      978.240     1310.711        0.200        0.165       14.685       20.479        1.945      343.946       20.418      864.004
08/14/2013  09:01:00       -2.119       -4.528       32.326       24.299       26.806       18.655      590.439      718.580      348.017        0.136        0.083        4.999       13.266        7.043      344.220       20.884      864.002
08/14/2013  09:02:00        0.153       -5.487       23.039       40.597       39.443       31.008     1648.098     1555.736      961.478        0.236        0.208        5.489       25.505       21.589      343.952       20.427      864.010
08/14/2013  09:03:00      -22.375       -3.948       -0.050       22.326       20.754       10.861      498.471      430.749      117.964        0.078        0.052       22.720        9.473        0.174      343.782       20.136      864.026
08/14/2013  09:04:00       10.311      -10.252       13.963       33.927       36.734       31.354     1151.029     1349.365      983.061        0.194        0.174       14.540       26.474        3.315      344.159       20.780      864.035
08/14/2013  09:05:00        9.381       12.600       42.920       38.781       43.614       36.057     1503.934     1902.220     1300.113        0.340        0.235       15.709       28.897        3.384      344.235       20.911      864.029
08/14/2013  09:06:00       -2.935       -0.361       24.071       28.582       45.080       25.015      816.921     2032.185      625.762        0.203        0.174        2.957       25.491       74.297      343.986       20.485      864.027
08/14/2013  09:07:00      -13.420        5.340       45.180       18.604       22.026       24.678      346.113      485.132      608.998        0.184        0.072       14.443       16.183        1.255      344.592       21.521      864.029
08/14/2013  09:08:00        5.740        1.663       38.376       36.139       56.318       26.821     1306.061     3171.703      719.385        0.335        0.260        5.976       31.610       27.983      344.230       20.902      864.028
08/14/2013  09:09:00       18.490       17.624       38.712       36.000       37.482       30.390     1296.011     1404.873      923.573        0.289        0.181       25.544       25.022        0.960      344.348       21.103      864.020
08/14/2013  09:10:00       57.484       -8.737       29.557       51.374       40.060       35.204     2639.275     1604.764     1239.344        0.487        0.274       58.144       32.674        0.316      344.070       20.628      864.008
08/14/2013  09:11:00       39.521        9.812       37.126       36.674       25.732       23.658     1345.007      662.152      559.699        0.280        0.128       40.720       15.395        0.143      344.170       20.799      863.996
08/14/2013  09:12:00       48.255      -18.746       10.240       42.010       28.020       26.276     1764.831      785.095      690.426        0.301        0.162       51.768       21.135        0.167      343.905       20.347      863.995
08/14/2013  09:13:00       32.394        9.960        9.202       43.469       27.665       32.347     1889.585      765.327     1046.338        0.247        0.185       33.891       16.440        0.235      343.868       20.283      863.984
08/14/2013  09:14:00       -6.973        8.175       25.904       26.299       22.944       23.538      691.626      526.434      554.058        0.128        0.089       10.745        6.075        0.320      344.414       21.217      863.968
08/14/2013  09:15:00       -4.182       18.690       26.013       39.477       29.149       27.211     1558.457      849.659      740.438        0.210        0.157       19.152       22.054        1.326      344.152       20.769      863.968
08/14/2013  09:16:00       -8.044        4.777       12.723       15.678       13.887       20.170      245.811      192.856      406.829        0.055        0.042        9.356       10.827        1.339      344.606       21.545      863.958
08/14/2013  09:17:00      -17.911       -7.217       14.449       21.647       14.353       14.684      468.572      206.004      215.629        0.074        0.045       19.311        9.161        0.225      344.367       21.135      863.957
08/14/2013  09:18:00       -1.407      -19.426       -2.704       38.596       26.464       16.936     1489.660      700.356      286.834        0.143        0.124       19.477       15.142        0.604      344.091       20.663      863.953
08/14/2013  09:19:00        9.266      -43.456        6.160       37.055       33.259       24.257     1373.062     1106.154      588.383        0.254        0.153       44.433       11.737        0.070      343.861       20.273      863.950
08/14/2013  09:20:00       -9.614        4.424       22.589       29.941       25.329       19.755      896.472      641.535      390.270        0.127        0.096       10.583       16.002        2.286      344.770       21.824      863.942
08/14/2013  09:21:00       -8.908       -1.115       14.222       24.713       18.297       17.644      610.729      334.772      311.314        0.077        0.063        8.978       13.300        2.195      344.623       21.573      863.938
08/14/2013  09:22:00      -23.368       -5.719        5.357       23.466       15.161       23.588      550.656      229.851      556.388        0.097        0.067       24.058       18.626        0.599      344.542       21.436      863.927
08/14/2013  09:23:00      -15.379        2.938       17.457       28.489       27.092       25.365      811.635      734.001      643.406        0.137        0.109       15.657       15.262        0.950      344.872       21.999      863.910
08/14/2013  09:24:00       -5.153        0.082       38.312       41.490       34.719       25.996     1721.407     1205.398      675.769        0.255        0.180        5.153       11.618        5.082      344.556       21.461      863.880
08/14/2013  09:25:00       48.994       -4.747       19.905       43.706       34.065       44.322     1910.227     1160.392     1964.399        0.393        0.252       49.223       31.273        0.404      344.151       20.767      863.874
08/14/2013  09:26:00       15.991       -4.577       20.316       53.318       29.349       34.985     2842.833      861.352     1223.936        0.281        0.246       16.633       13.821        0.690      344.206       20.861      863.852
08/14/2013  09:27:00      -24.489       10.130       16.204       19.352       19.538       20.778      374.499      381.720      431.741        0.108        0.059       26.502       16.255        0.376      344.724       21.747      863.842
08/14/2013  09:28:00       -4.235       32.981       67.136       33.289       34.111       28.179     1108.163     1163.529      794.067        0.434        0.153       33.252       25.353        0.581      345.002       22.224      863.836
08/14/2013  09:29:00       47.381        5.070       38.354       46.778       49.907       35.039     2188.161     2490.749     1227.702        0.482        0.295       47.652       34.036        0.510      344.536       21.424      863.829
08/14/2013  09:30:00      -27.072       10.747       18.081       28.470       19.490       21.384      810.517      379.871      457.273        0.141        0.082       29.127       14.120        0.235      344.896       22.041      863.836
08/14/2013  09:31:00      -38.058      -27.446       13.226       34.504       32.248       20.162     1190.505     1039.958      406.525        0.251        0.132       46.922       21.098        0.202      344.846       21.955      863.826
08/14/2013  09:32:00      -37.926      -64.659        9.263       40.267       48.209       27.127     1621.457     2324.107      735.860        0.519        0.234       74.961       25.257        0.114      344.580       21.501      863.825
08/14/2013  09:33:00      -26.642      -55.141       -8.739       37.646       22.828       13.862     1417.217      521.108      192.162        0.298        0.107       61.240       12.981        0.045      344.564       21.472      863.825
08/14/2013  09:34:00      -77.855      -33.898        3.452       47.026       33.364       26.795     2211.398     1113.132      717.955        0.563        0.202       84.914       21.198        0.062      344.632       21.588      863.818
08/14/2013  09:35:00      -48.774      -30.310        7.024       34.575       33.491       23.193     1195.421     1121.680      537.901        0.310        0.143       57.425       16.730        0.085      344.639       21.601      863.821
08/14/2013  09:36:00      -49.403      -19.811       15.772       44.974       32.783       27.317     2022.665     1074.709      746.231        0.346        0.192       53.227       31.711        0.355      345.101       22.392      863.808
08/14/2013  09:37:00      -32.239       -0.025       -4.426       41.282       36.421       28.160     1704.174     1326.490      793.004        0.244        0.191       32.239       19.652        0.372      344.621       21.570      863.811
08/14/2013  09:38:00      -32.680       25.065       16.260       29.856       24.221       23.853      891.360      586.636      568.983        0.200        0.102       41.185        9.743        0.056      344.969       22.166      863.812
08/14/2013  09:39:00        4.714       13.645       40.802       27.758       23.579       32.319      770.528      555.958     1044.506        0.212        0.119       14.436       24.283        2.829      345.108       22.404      863.804
08/14/2013  09:40:00       38.800      -17.337       -0.052       24.219       28.021       25.097      586.563      785.197      629.861        0.190        0.100       42.497       17.849        0.176      344.484       21.335      863.806
08/14/2013  09:41:00       51.545      -23.158       14.330       32.192       45.888       31.219     1036.350     2105.681      974.602        0.376        0.206       56.508       31.589        0.313      344.335       21.082      863.815
08/14/2013  09:42:00       28.865       36.495       41.576       49.418       30.169       38.432     2442.140      910.191     1477.056        0.436        0.241       46.530       27.759        0.356      344.564       21.473      863.814
08/14/2013  09:43:00       -6.152       15.457       39.125       17.102       32.498       20.154      292.471     1056.107      406.200        0.178        0.088       16.637       14.637        0.774      345.401       22.906      863.813
08/14/2013  09:44:00       -2.238      -14.329        0.151       25.063       26.738       19.208      628.131      714.929      368.950        0.096        0.086       14.503       10.553        0.529      344.392       21.177      863.805
08/14/2013  09:45:00       26.472       11.514      -13.752       44.837       31.018       23.151     2010.375      962.111      535.973        0.226        0.175       28.867       12.122        0.176      344.036       20.570      863.798
08/14/2013  09:46:00       17.081       26.251      -11.826       38.091       28.102       27.795     1450.893      789.710      772.538        0.207        0.151       31.319       13.811        0.194      344.393       21.181      863.791
08/14/2013  09:47:00        2.935       52.537       -0.263       43.056       44.455       31.441     1853.794     1976.245      988.557        0.379        0.241       52.619        5.214        0.010      344.483       21.334      863.779
08/14/2013  09:48:00      -43.336        6.423       -1.732       28.642       19.738       18.857      820.381      389.592      355.594        0.174        0.078       43.809       18.656        0.181      344.822       21.914      863.779
08/14/2013  09:49:00      -21.994       -6.130       -4.897        9.579       14.120       13.714       91.764      199.363      188.062        0.051        0.024       22.832        9.403        0.170      344.981       22.186      863.763
08/14/2013  09:50:00      -31.460       -3.437      -10.474       13.376       12.592       13.740      178.918      158.564      188.789        0.082        0.026       31.648        9.259        0.086      344.980       22.185      863.751
08/14/2013  09:51:00      -22.251      -13.321        3.027       20.035       20.497       15.424      401.410      420.146      237.885        0.087        0.053       25.933       15.013        0.335      345.228       22.609      863.745
08/14/2013  09:52:00      -36.250       12.377        6.366       26.869       15.297       16.110      721.930      233.992      259.519        0.136        0.061       38.305       15.745        0.169      345.216       22.590      863.731
08/14/2013  09:53:00      -16.172       30.474       45.155       18.942       27.194       26.515      358.785      739.506      703.039        0.251        0.090       34.499       19.478        0.319      345.810       23.608      863.728
08/14/2013  09:54:00        0.926       26.234       53.047       32.605       38.808       22.543     1063.070     1506.074      508.181        0.329        0.154       26.250       23.083        0.773      345.273       22.686      863.713
08/14/2013  09:55:00       46.387        5.136       28.876       50.845       31.147       36.473     2585.201      970.153     1330.302        0.395        0.244       46.671       29.124        0.389      345.083       22.363      863.708
08/14/2013  09:56:00       51.220       12.735       13.731       39.473       24.944       44.514     1558.152      622.195     1981.479        0.357        0.208       52.779       11.828        0.050      344.701       21.708      863.712
08/14/2013  09:57:00       22.930       52.460       -9.458       26.659       30.614       22.249      710.684      937.202      495.014        0.275        0.107       57.252       12.942        0.051      344.818       21.907      863.704
08/14/2013  09:58:00       16.703       45.515       -2.927       16.385       22.900       21.808      268.468      524.402      475.572        0.181        0.063       48.483       16.170        0.111      345.299       22.731      863.700
08/14/2013  09:59:00        9.963        3.731       38.907       17.282       13.172       13.162      298.658      173.508      173.248        0.114        0.032       10.638        9.168        0.743      346.315       24.475      863.696
08/14/2013  10:00:00       43.533        4.019       35.132       35.443       18.276       20.769     1256.191      333.994      431.339        0.258        0.101       43.718       12.682        0.084      345.467       23.020      863.701
08/14/2013  10:01:00       20.958       -1.126       21.819       27.025       32.399       21.947      730.360     1049.703      481.674        0.159        0.113       20.989       19.051        0.824      345.473       23.028      863.690
08/14/2013  10:02:00        9.823       -1.659       12.079       22.771       13.641       22.908      518.533      186.074      524.757        0.074        0.061        9.963       12.895        1.675      345.760       23.522      863.694
08/14/2013  10:03:00      -42.333      -34.905        1.489       40.549       32.942       19.523     1644.215     1085.189      381.165        0.306        0.156       54.868       17.067        0.097      345.461       23.008      863.694
08/14/2013  10:04:00      -66.188      -54.987        9.764       54.306       36.443       24.601     2949.138     1328.101      605.232        0.619        0.244       86.049       30.945        0.129      345.413       22.927      863.693
08/14/2013  10:05:00      -73.767      -49.732       10.426       53.410       41.407       24.961     2852.646     1714.567      623.035        0.661        0.260       88.965       25.863        0.085      345.540       23.145      863.697
08/14/2013  10:06:00      -90.448      -76.194       11.154       55.383       33.834       24.600     3067.323     1144.724      605.145        0.946        0.241      118.264       22.656        0.037      345.261       22.667      863.694
08/14/2013  10:07:00      -63.351      -37.598        7.003       33.048       34.346       18.831     1092.195     1179.657      354.625        0.405        0.131       73.668       14.381        0.038      345.384       22.875      863.705
08/14/2013  10:08:00      -68.669      -14.361       -5.347       12.774       13.966       10.798      163.173      195.054      116.588        0.271        0.024       70.155        4.262        0.004      345.260       22.660      863.692
08/14/2013  10:09:00      -61.152       14.876      -10.686       16.526       12.031       10.630      273.118      144.753      112.999        0.230        0.027       62.935        9.152        0.021      345.252       22.648      863.685
08/14/2013  10:10:00      -38.120        7.923       -0.982       11.681       17.754       13.304      136.445      315.187      177.009        0.107        0.031       38.935        8.804        0.051      345.500       23.074      863.676
08/14/2013  10:11:00      -79.907      -56.223      -16.630       21.243       25.419       12.127      451.245      646.135      147.061        0.553        0.062       97.705        8.120        0.007      345.326       22.776      863.665
08/14/2013  10:12:00      -82.345      -49.108       -7.462       11.739       12.142       11.108      137.811      147.428      123.387        0.483        0.020       95.876        4.976        0.003      345.381       22.870      863.657
08/14/2013  10:13:00      -36.958      -38.726       -5.023       12.187       19.409       10.097      148.534      376.712      101.947        0.176        0.031       53.531        8.476        0.025      345.463       23.009      863.648
08/14/2013  10:14:00      -45.083      -57.960       -2.921       12.599       13.726       10.126      158.734      188.414      102.526        0.292        0.022       73.429        6.031        0.007      345.379       22.865      863.638
08/14/2013  10:15:00      -51.994       19.153       -8.225       20.947       26.571       18.919      438.767      706.035      357.944        0.232        0.075       55.410       15.510        0.078      345.618       23.276      863.646
08/14/2013  10:16:00       -5.061      -13.598      -14.064       22.410       16.540       11.836      502.224      273.581      140.087        0.066        0.046       14.509       11.210        0.597      345.627       23.293      863.645
08/14/2013  10:17:00       22.055       -9.438       13.901       17.877       15.418       13.993      319.578      237.727      195.813        0.076        0.038       23.989        6.577        0.075      346.144       24.179      863.638
08/14/2013  10:18:00       19.115      -16.347       11.151       23.950       21.456       19.928      573.585      460.341      397.107        0.109        0.072       25.152       10.560        0.176      345.880       23.727      863.634
08/14/2013  10:19:00      -14.934       -6.192        4.295       17.973       12.650       11.117      323.023      160.014      123.588        0.044        0.030       16.167        8.854        0.300      346.077       24.066      863.630
08/14/2013  10:20:00        8.949        5.057       18.888       30.341       20.511       21.190      920.589      420.711      449.020        0.113        0.090       10.279        8.375        0.664      346.713       25.160      863.623
08/14/2013  10:21:00       34.128      -10.756       30.543       26.489       29.391       26.910      701.677      863.855      724.126        0.225        0.114       35.783       17.106        0.229      345.952       23.852      863.623
08/14/2013  10:22:00       55.952      -10.933       21.885       38.565       26.628       33.843     1487.276      709.045     1145.354        0.353        0.167       57.010       28.849        0.256      345.620       23.280      863.623
08/14/2013  10:23:00       29.875       24.826       42.881       42.748       32.264       33.057     1827.416     1040.987     1092.768        0.365        0.198       38.843       23.330        0.361      345.620       23.281      863.612
08/14/2013  10:24:00       68.115       17.429       24.091       40.816       40.824       46.152     1665.915     1666.640     2130.053        0.549        0.273       70.310       20.620        0.086      345.338       22.797      863.596
08/14/2013  10:25:00        6.458      -15.134       41.280       22.741       36.277       19.071      517.142     1315.988      363.698        0.209        0.110       16.454       16.012        0.947      346.290       24.432      863.590
08/14/2013  10:26:00        9.750       31.765       59.618       31.781       34.392       15.861     1010.020     1182.810      251.581        0.355        0.122       33.228       20.352        0.375      346.724       25.177      863.580
08/14/2013  10:27:00       62.733       54.484       35.879       35.296       20.424       30.948     1245.813      417.139      957.777        0.541        0.131       83.090        3.828        0.002      346.005       23.941      863.569
08/14/2013  10:28:00        9.945       45.025       54.694       21.987       26.732       17.839      483.409      714.616      318.216        0.332        0.076       46.111       12.738        0.076      346.703       25.142      863.566
08/14/2013  10:29:00      -12.376       18.801       54.921       15.739       22.699       12.300      247.719      515.267      151.289        0.222        0.046       22.508        6.349        0.080      347.042       25.726      863.563
08/14/2013  10:30:00      -15.410      -29.148       10.642       19.030       27.865       29.635      362.152      776.475      878.241        0.161        0.101       32.971       24.919        0.571      346.609       24.980      863.564
08/14/2013  10:31:00       -5.361      -36.152        2.111       32.797       33.518       22.197     1075.611     1123.448      492.710        0.202        0.135       36.547       13.966        0.146      346.503       24.799      863.559
08/14/2013  10:32:00      -26.785       15.226        5.841       23.688       24.085       28.802      561.115      580.107      829.530        0.148        0.099       30.810       19.938        0.419      346.647       25.046      863.554
08/14/2013  10:33:00      -27.520       13.231       -4.310       38.912       19.029       22.835     1514.129      362.094      521.426        0.167        0.120       30.536       14.420        0.223      346.713       25.161      863.549
08/14/2013  10:34:00      -10.458        1.409       36.725       16.541       19.244       15.300      273.615      370.330      234.091        0.117        0.044       10.553        9.771        0.857      347.479       26.480      863.539
08/14/2013  10:35:00      -26.874      -39.221        6.991       21.525       25.810       34.240      463.329      666.151     1172.378        0.231        0.115       47.545       17.112        0.130      346.671       25.087      863.530
08/14/2013  10:36:00      -14.917      -23.343       14.503       19.711       27.069       24.063      388.542      732.756      579.004        0.134        0.085       27.702       11.781        0.181      347.051       25.742      863.529
08/14/2013  10:37:00      -26.663      -13.028       20.095       34.826       30.109       18.529     1212.822      906.559      343.307        0.187        0.123       29.676       19.783        0.444      347.055       25.750      863.517
08/14/2013  10:38:00      -25.221       -2.639       16.062       30.027       18.173       19.900      901.605      330.248      396.006        0.126        0.081       25.358       17.377        0.470      347.159       25.927      863.517
08/14/2013  10:39:00        7.776        4.909       39.530       18.646       21.228       14.443      347.667      450.622      208.586        0.133        0.050        9.196        9.609        1.092      347.563       26.624      863.515
08/14/2013  10:40:00        3.637       32.854       55.141       31.166       46.654       18.379      971.341     2176.551      337.783        0.381        0.174       33.055       12.305        0.139      347.191       25.981      863.515
08/14/2013  10:41:00       75.597       44.956       16.066       28.990       30.615       36.438      840.443      937.271     1327.730        0.555        0.155       87.954       20.564        0.055      346.501       24.794      863.518
08/14/2013  10:42:00       74.178       58.632        9.529       35.061       32.334       33.544     1229.248     1045.460     1125.178        0.621        0.170       94.552       24.033        0.065      346.794       25.296      863.506
08/14/2013  10:43:00       20.662      109.081        5.985       38.202       52.422       36.449     1459.357     2748.080     1328.497        0.895        0.277      111.021       33.568        0.091      346.818       25.340      863.502
08/14/2013  10:44:00       22.670       75.501        3.997       32.320       51.059       38.625     1044.599     2607.010     1491.922        0.569        0.257       78.831       32.171        0.167      346.952       25.571      863.501
08/14/2013  10:45:00       41.966       48.438       11.904       29.810       30.159       30.722      888.655      909.564      943.864        0.350        0.137       64.089       17.245        0.072      347.146       25.905      863.483
08/14/2013  10:46:00       42.329       87.701      -13.938       32.850       44.129       21.203     1079.139     1947.410      449.554        0.658        0.174       97.382       19.365        0.040      346.721       25.171      863.486
08/14/2013  10:47:00       53.348       35.456       13.489       38.065       26.207       25.368     1448.936      686.832      643.550        0.353        0.139       64.056       20.109        0.099      346.646       25.044      863.478
08/14/2013  10:48:00       67.658       40.862        6.790       37.745       28.172       27.779     1424.683      793.639      771.651        0.464        0.149       79.040       15.054        0.036      346.740       25.206      863.473
08/14/2013  10:49:00       16.557       27.097       26.827       29.024       31.342       25.148      842.396      982.348      632.445        0.209        0.123       31.755       18.988        0.358      347.523       26.555      863.471
08/14/2013  10:50:00       45.441       68.452       -7.460       42.822       29.077       28.423     1833.740      845.489      807.870        0.515        0.174       82.161       23.585        0.082      346.941       25.553      863.455
08/14/2013  10:51:00       78.170       67.218       -0.253       33.541       36.189       31.985     1125.023     1309.620     1023.047        0.704        0.173      103.096       23.903        0.054      346.855       25.402      863.436
08/14/2013  10:52:00       64.631       94.383      -19.168       33.341       37.862       30.390     1111.639     1433.502      923.556        0.846        0.173      114.391       24.255        0.045      346.841       25.379      863.433
08/14/2013  10:53:00       44.303       42.672       24.342       28.001       23.871       36.045      784.070      569.829     1299.265        0.351        0.133       61.512       29.292        0.227      346.804       25.314      863.424
08/14/2013  10:54:00       10.944       31.602       27.604       25.142       50.236       35.268      632.099     2523.627     1243.856        0.314        0.220       33.443       11.531        0.119      347.167       25.940      863.409
08/14/2013  10:55:00       33.084       24.220        5.993       27.118       23.985       30.348      735.398      575.299      921.003        0.197        0.112       41.002       11.534        0.079      347.122       25.862      863.408
08/14/2013  10:56:00       27.256       21.482       16.386       19.163       18.220       23.308      367.210      331.955      543.270        0.136        0.062       34.704        7.051        0.041      347.457       26.442      863.406
08/14/2013  10:57:00       21.429       19.729       -5.604       32.852       21.811       25.018     1079.247      475.712      625.925        0.153        0.109       29.128        7.578        0.068      347.021       25.690      863.404
08/14/2013  10:58:00      -19.594       38.462        5.926       46.869       24.279       24.546     2196.681      589.493      602.528        0.264        0.169       43.165       20.716        0.230      347.332       26.224      863.391
08/14/2013  10:59:00     -114.043        5.210       -8.983       64.915       39.920       35.819     4214.002     1593.596     1283.019        1.010        0.355      114.162       38.205        0.112      347.078       25.788      863.385
08/14/2013  11:00:00      -95.376      -58.625      -11.784       35.077       55.017       19.141     1230.420     3026.909      366.368        0.865        0.231      111.953       13.698        0.015      346.670       25.085      863.384
08/14/2013  11:01:00      -45.164      -30.228        1.441       41.857       24.401       23.647     1751.987      595.428      559.193        0.293        0.145       54.347       23.862        0.193      346.950       25.566      863.363
08/14/2013  11:02:00       -4.920      -40.785       11.358       19.483       37.864       29.021      379.568     1433.709      842.198        0.224        0.133       41.080       28.761        0.490      347.423       26.385      863.365
08/14/2013  11:03:00      -46.159      -77.664        3.215       27.565       24.663       14.815      759.813      608.256      219.485        0.488        0.079       90.346       12.155        0.018      346.696       25.129      863.348
08/14/2013  11:04:00      -24.015      -10.275       24.435       34.837       31.590       28.101     1213.639      997.930      789.660        0.214        0.150       26.121       30.054        1.324      347.618       26.721      863.333
08/14/2013  11:05:00       21.010       42.103       55.366       38.662       35.910       30.111     1494.716     1289.529      906.661        0.448        0.185       47.054       29.577        0.395      347.257       26.096      863.328
08/14/2013  11:06:00        2.562        3.508       32.930       23.637       39.396       22.221      558.687     1552.031      493.770        0.185        0.130        4.344       22.749       27.426      347.506       26.525      863.316
08/14/2013  11:07:00        8.545       17.336       30.758       28.653       29.592       24.440      821.005      875.689      597.330        0.181        0.115       19.328       23.963        1.537      347.613       26.710      863.307
08/14/2013  11:08:00       16.648       47.110       33.245       40.274       35.965       31.187     1621.970     1293.508      972.628        0.374        0.194       49.965       30.298        0.368      347.653       26.779      863.298
08/14/2013  11:09:00       76.273       81.601        0.895       52.698       38.893       32.944     2777.071     1512.680     1085.287        0.893        0.269      111.697       25.686        0.053      347.299       26.167      863.307
08/14/2013  11:10:00       63.694       66.757       -2.823       52.424       48.240       26.277     2748.240     2327.067      690.497        0.714        0.288       92.268       13.190        0.020      347.189       25.977      863.304
08/14/2013  11:11:00        9.681       66.731      -24.051       27.688       70.236       26.454      766.631     4933.034      699.803        0.576        0.320       67.429       30.911        0.210      347.082       25.794      863.296
08/14/2013  11:12:00       29.761       17.044       23.481       49.509       34.761       26.259     2451.136     1208.306      689.531        0.304        0.217       34.296       14.225        0.172      347.791       27.016      863.291
08/14/2013  11:13:00       81.375       87.180       65.651       58.920       54.071       35.449     3471.544     2923.649     1256.610        1.309        0.383      119.257       24.910        0.044      347.336       26.232      863.284
08/14/2013  11:14:00       24.398        0.989       55.341       48.717       46.521       27.515     2373.347     2164.193      757.076        0.448        0.265       24.418       22.201        0.827      347.755       26.954      863.281
08/14/2013  11:15:00       44.669       59.943       62.884       47.440       58.687       36.937     2250.568     3444.112     1364.310        0.830        0.353       74.756       23.703        0.101      347.555       26.609      863.283
08/14/2013  11:16:00       30.334       10.403       68.726       41.651       43.383       40.281     1734.825     1882.051     1622.572        0.549        0.262       32.069       25.705        0.643      347.700       26.858      863.274
08/14/2013  11:17:00       41.884       21.026       66.279       46.520       52.498       39.804     2164.117     2756.042     1584.398        0.655        0.325       46.865       40.111        0.733      347.302       26.174      863.271
08/14/2013  11:18:00        0.246       47.392       70.356       29.895       41.318       27.055      893.730     1707.181      731.998        0.526        0.167       47.393       28.835        0.370      347.753       26.950      863.262
08/14/2013  11:19:00        0.451       17.214       65.020       31.276       51.977       26.119      978.197     2701.636      682.211        0.444        0.218       17.220       33.446        3.773      347.853       27.125      863.258
08/14/2013  11:20:00       31.856        3.684       32.400       33.038       60.537       24.218     1091.542     3664.749      586.528        0.371        0.267       32.068       27.635        0.743      347.484       26.488      863.257
08/14/2013  11:21:00       17.110       45.928       52.951       35.077       36.853       27.724     1230.428     1358.123      768.646        0.428        0.168       49.012       18.195        0.138      347.600       26.688      863.238
08/14/2013  11:22:00       21.762        6.521       41.289       33.158       31.328       33.955     1099.428      981.426     1152.942        0.273        0.162       22.718        7.885        0.120      347.878       27.165      863.243
08/14/2013  11:23:00       24.601       44.425        9.927       32.647       35.794       26.744     1065.825     1281.240      715.222        0.287        0.153       50.781       15.755        0.096      347.476       26.472      863.222
08/14/2013  11:24:00       27.819       15.729       22.723       34.070       49.455       44.552     1160.750     2445.794     1984.868        0.356        0.280       31.958       35.206        1.214      347.566       26.629      863.209
08/14/2013  11:25:00       61.575      100.769       80.251       57.929       41.997       44.129     3355.791     1763.742     1947.398        1.373        0.353      118.093       38.931        0.109      347.343       26.243      863.178
08/14/2013  11:26:00      121.570       53.871       37.931       63.767       51.611       49.592     4066.244     2663.713     2459.406        1.415        0.459      132.972       27.778        0.044      347.397       26.336      863.176
08/14/2013  11:27:00       93.276       53.407       21.630       60.668       52.252       35.328     3680.624     2730.241     1248.065        0.984        0.383      107.483       30.441        0.080      347.654       26.780      863.154
08/14/2013  11:28:00        3.809      -51.129        9.943       49.082       58.496       32.690     2409.071     3421.779     1068.627        0.481        0.345       51.271       27.507        0.288      348.012       27.397      863.140
08/14/2013  11:29:00       33.909       43.494       74.712       45.505       61.235       30.755     2070.665     3749.679      945.867        0.769        0.338       55.150       33.302        0.365      347.933       27.260      863.119
08/14/2013  11:30:00        2.579       11.499       56.131       46.305       76.180       50.588     2144.188     5803.409     2559.153        0.690        0.525       11.785       53.777       20.823      348.078       27.511      863.115
08/14/2013  11:31:00       31.911        3.212       59.396       50.142       56.708       43.153     2514.242     3215.783     1862.209        0.607        0.380       32.073       21.558        0.452      348.217       27.752      863.108
08/14/2013  11:32:00       27.024       19.077       47.023       33.058       44.982       32.324     1092.841     2023.406     1044.818        0.373        0.208       33.080       27.765        0.704      347.982       27.348      863.107
08/14/2013  11:33:00        6.126        3.659       52.551       28.630       63.363       37.373      819.664     4014.857     1396.778        0.452        0.312        7.136       45.841       41.265      347.806       27.043      863.093
08/14/2013  11:34:00        5.863       36.682       65.083       33.021       54.021       32.063     1090.418     2918.217     1028.037        0.533        0.252       37.147       32.376        0.760      347.874       27.159      863.077
08/14/2013  11:35:00       72.353       49.769       86.910       58.040       38.681       29.806     3368.667     1496.245      888.379        1.051        0.288       87.818       27.725        0.100      347.698       26.858      863.071
08/14/2013  11:36:00      112.267       84.813       69.003       96.757       72.806       57.686     9361.960     5300.681     3327.662        2.127        0.900      140.702       60.700        0.186      347.586       26.662      863.052
08/14/2013  11:37:00      102.222       61.910       27.111       68.565       43.646       40.312     4701.204     1904.947     1625.069        1.162        0.412      119.508       28.137        0.055      347.616       26.715      863.064
08/14/2013  11:38:00      116.063       83.702       12.287       59.914       51.783       37.177     3589.692     2681.479     1382.157        1.414        0.383      143.097       26.981        0.036      347.677       26.819      863.045
08/14/2013  11:39:00      146.350      111.667       24.128       49.595       39.450       35.245     2459.709     1556.333     1242.212        1.986        0.263      184.087       24.372        0.018      347.551       26.601      863.034
08/14/2013  11:40:00      101.333       91.863       22.319       61.757       33.108       42.507     3813.953     1096.135     1806.840        1.296        0.336      136.774       23.739        0.030      347.632       26.741      863.035
08/14/2013  11:41:00       49.431       19.812        2.960       42.139       29.483       27.015     1775.674      869.260      729.797        0.311        0.169       53.253       26.173        0.242      347.900       27.204      863.032
08/14/2013  11:42:00       45.443       59.226       21.614       29.712       22.923       32.919      882.809      525.485     1083.647        0.427        0.125       74.651       17.828        0.057      347.926       27.248      863.009
08/14/2013  11:43:00       51.626       25.685        6.738       27.483       29.955       26.983      755.293      897.274      728.074        0.288        0.119       57.662       15.776        0.075      347.790       27.015      862.998
08/14/2013  11:44:00      104.627       64.550       34.254       36.399       27.059       39.557     1324.885      732.174     1564.757        0.995        0.181      122.937       23.687        0.037      347.748       26.943      862.987
08/14/2013  11:45:00       96.970       30.083       36.063       37.569       28.615       46.102     1411.414      818.791     2125.419        0.798        0.218      101.529       20.139        0.039      347.627       26.734      862.978
08/14/2013  11:46:00      116.625       53.040       10.887       55.802       56.396       40.136     3113.914     3180.534     1610.886        1.222        0.395      128.120       29.338        0.052      348.028       27.426      862.957
08/14/2013  11:47:00       93.744      111.778       16.556       58.620       55.971       46.390     3436.355     3132.799     2152.008        1.514        0.436      145.884       24.230        0.028      347.941       27.275      862.935
08/14/2013  11:48:00       41.499       91.213        6.023       50.737       50.997       40.642     2574.197     2600.726     1651.810        0.845        0.341      100.210       32.129        0.103      348.097       27.543      862.922
08/14/2013  11:49:00       44.388       49.891       36.420       53.580       47.443       41.202     2870.850     2250.874     1697.612        0.630        0.341       66.779       36.981        0.307      348.420       28.103      862.913
08/14/2013  11:50:00        6.990       38.268       48.579       35.892       46.083       30.650     1288.241     2123.688      939.397        0.411        0.218       38.902       20.347        0.274      348.876       28.892      862.898
08/14/2013  11:51:00      148.103      116.087       16.327       66.365       48.149       48.616     4404.297     2318.301     2363.555        2.238        0.454      188.177       19.818        0.011      347.859       27.131      862.897
08/14/2013  11:52:00      152.716      111.298       15.991       39.146       31.393       39.874     1532.385      985.510     1589.939        2.004        0.205      188.969       11.596        0.004      347.729       26.908      862.889
08/14/2013  11:53:00      166.030      109.384       43.652       62.566       59.180       48.569     3914.524     3502.258     2358.923        2.560        0.489      198.824       29.436        0.022      347.764       26.966      862.870
08/14/2013  11:54:00       32.535       26.855       58.959       47.553       72.678       36.020     2261.282     5282.121     1297.470        0.705        0.442       42.187       39.357        0.870      347.902       27.209      862.864
08/14/2013  11:55:00       13.792       15.096       43.614       28.227       35.644       23.430      796.761     1270.474      548.965        0.247        0.131       20.447       17.225        0.710      348.194       27.713      862.850
08/14/2013  11:56:00       -1.180       -8.157       32.840       17.653       54.040       23.500      311.632     2920.282      552.242        0.246        0.189        8.242       28.425       11.895      348.035       27.437      862.834
08/14/2013  11:57:00       41.883       23.921       11.524       60.108       46.168       36.282     3612.996     2131.495     1316.389        0.476        0.353       48.233       21.486        0.198      347.965       27.317      862.830
08/14/2013  11:58:00       66.864       49.253       15.772       60.723       49.750       43.666     3687.230     2475.076     1906.715        0.761        0.403       83.046       31.351        0.143      348.304       27.902      862.809
08/14/2013  11:59:00       94.495       73.929       -4.499       51.067       42.018       38.454     2607.799     1765.521     1478.681        1.013        0.293      119.978       23.041        0.037      348.145       27.627      862.793
08/14/2013  12:00:00       99.427       64.265        0.447       34.066       27.110       26.526     1160.494      734.971      703.633        0.831        0.130      118.388       16.887        0.020      347.976       27.335      862.784
08/14/2013  12:01:00       28.745       56.169       47.812       59.788       37.788       37.092     3574.612     1427.941     1375.794        0.632        0.319       63.097       33.410        0.280      348.412       28.090      862.780
08/14/2013  12:02:00      151.921       94.415       10.874       49.047       40.263       40.130     2405.643     1621.088     1610.392        1.887        0.282      178.869       24.592        0.019      348.006       27.387      862.778
08/14/2013  12:03:00       99.581       74.901        8.939       55.075       47.353       38.564     3033.226     2242.316     1487.196        1.118        0.338      124.606       21.553        0.030      348.066       27.492      862.762
08/14/2013  12:04:00       54.954       73.820       16.319       30.420       32.218       33.169      925.383     1037.969     1100.180        0.590        0.153       92.029       19.987        0.047      348.324       27.937      862.754
08/14/2013  12:05:00      -12.599       30.316      -24.284       50.707       58.954       22.868     2571.155     3475.630      522.941        0.412        0.328       32.830       18.776        0.327      347.865       27.144      862.747
08/14/2013  12:06:00       -0.449       -0.140        8.123       65.546       61.572       35.771     4296.229     3791.090     1279.533        0.471        0.468        0.470       40.191     7310.976      348.316       27.926      862.730
08/14/2013  12:07:00       69.695       54.031        9.503       50.220       38.629       31.034     2521.999     1492.197      963.126        0.642        0.249       88.186       17.957        0.041      348.619       28.447      862.718
08/14/2013  12:08:00        7.043       89.270       -8.074       42.556       76.429       30.238     1811.011     5841.447      914.321        0.832        0.428       89.547       39.581        0.195      348.327       27.943      862.717
08/14/2013  12:09:00      -12.534      124.823       -3.121       25.134       49.970       25.251      631.730     2496.960      637.593        0.976        0.188      125.451       28.041        0.050      348.596       28.409      862.710
08/14/2013  12:10:00       33.422       35.873       17.831       45.820       43.434       33.964     2099.447     1886.474     1153.585        0.393        0.257       49.030       28.697        0.343      348.804       28.768      862.702
08/14/2013  12:11:00       21.695       35.660        2.467       38.903       33.577       22.620     1513.476     1127.400      511.653        0.245        0.158       41.741       19.703        0.223      348.574       28.370      862.696
08/14/2013  12:12:00       -5.963       53.197       -1.000       21.285       47.545       26.649      453.063     2260.522      710.162        0.314        0.171       53.530       19.576        0.134      348.812       28.784      862.680
08/14/2013  12:13:00      -12.703       20.453       13.889       18.794       22.320       21.761      353.225      498.180      473.546        0.105        0.066       24.077       15.184        0.398      349.235       29.514      862.685
08/14/2013  12:14:00      -12.431      -33.949        4.578       18.809       37.294       22.361      353.784     1390.857      500.000        0.179        0.112       36.153       10.349        0.082      348.570       28.363      862.674
08/14/2013  12:15:00        2.612      -18.763       27.938       38.056       41.162       25.172     1448.243     1694.331      633.619        0.246        0.189       18.944       21.389        1.275      349.098       29.279      862.659
08/14/2013  12:16:00      -55.342      -48.950        7.784       47.652       45.415       30.479     2270.667     2062.485      928.999        0.539        0.263       73.884       18.463        0.062      348.444       28.145      862.637
08/14/2013  12:17:00      -61.625      -68.471        3.372       54.530       45.887       35.673     2973.549     2105.622     1272.592        0.742        0.318       92.120       25.394        0.076      348.361       28.002      862.636
08/14/2013  12:18:00      -50.995      -17.885        8.096       40.619       49.895       29.549     1649.929     2489.529      873.161        0.400        0.251       54.040       29.490        0.298      348.577       28.375      862.641
08/14/2013  12:19:00      -56.053      -34.338        1.738       39.189       28.542       20.762     1535.754      814.620      431.072        0.355        0.139       65.735       24.989        0.145      348.520       28.278      862.635
08/14/2013  12:20:00       -8.440      -28.631        9.125       28.331       37.979       28.797      802.635     1442.375      829.269        0.202        0.154       29.849       21.912        0.539      348.546       28.322      862.632
08/14/2013  12:21:00      -25.556      -30.343        6.319       29.573       23.435       13.094      874.557      549.197      171.454        0.160        0.080       39.671        9.683        0.060      348.356       27.992      862.628
08/14/2013  12:22:00        5.973       18.852       15.935       30.092       19.353       21.578      905.530      374.539      465.630        0.120        0.087       19.775       11.321        0.328      348.628       28.464      862.614
08/14/2013  12:23:00       34.537       12.571       22.146       44.394       31.674       25.609     1970.795     1003.249      655.800        0.273        0.181       36.754       15.489        0.178      348.787       28.737      862.612
08/14/2013  12:24:00       35.481      -21.723       38.214       70.559       86.825       48.776     4978.560     7538.626     2379.127        0.904        0.745       41.603       59.162        2.022      348.818       28.790      862.596
08/14/2013  12:25:00       30.867        7.964       64.343       53.985       94.094       53.143     2914.418     8853.665     2824.205        0.987        0.730       31.878       67.677        4.507      348.640       28.483      862.607
08/14/2013  12:26:00       -6.472      -37.413       12.354       27.009       37.415       26.088      729.506     1399.876      680.576        0.220        0.140       37.969       18.456        0.236      348.441       28.139      862.609
08/14/2013  12:27:00       14.175       -5.499       44.050       43.231       37.612       21.046     1868.937     1414.691      442.918        0.295        0.186       15.205       19.874        1.708      348.992       29.094      862.594
08/14/2013  12:28:00       48.661       25.873       46.767       38.385       33.877       26.913     1473.418     1147.623      724.295        0.428        0.167       55.112       11.584        0.044      348.621       28.451      862.579
08/14/2013  12:29:00       19.030      -70.040       10.743       32.317       57.080       32.505     1044.377     3258.147     1056.550        0.537        0.268       72.580       36.668        0.255      348.690       28.571      862.568
08/14/2013  12:30:00       10.285      -66.508      -12.358       41.069       31.329       31.214     1686.688      981.496      974.333        0.416        0.182       67.299       10.870        0.026      348.253       27.814      862.573
08/14/2013  12:31:00      -34.586     -105.699        6.402       42.178       45.842       39.926     1778.944     2101.461     1594.119        0.894        0.274      111.213       21.262        0.037      348.297       27.890      862.555
08/14/2013  12:32:00     -124.114      -51.111       -3.931       49.720       47.476       25.173     2472.036     2253.928      633.664        1.169        0.268      134.225       15.841        0.014      348.181       27.690      862.550
08/14/2013  12:33:00      -45.728      -16.064       14.411       36.089       37.168       24.958     1302.405     1381.481      622.910        0.293        0.165       48.467       23.930        0.244      349.034       29.165      862.539
08/14/2013  12:34:00       -9.456       47.163       25.284       38.168       44.938       27.675     1456.793     2019.408      765.891        0.360        0.212       48.102       30.124        0.392      349.285       29.603      862.533
08/14/2013  12:35:00      -12.397       28.275       22.142       29.241       22.649       22.253      855.022      512.972      495.190        0.165        0.093       30.873       22.035        0.509      349.540       30.044      862.528
08/14/2013  12:36:00      -10.958       37.624       27.127       24.350       33.842       19.645      592.936     1145.291      385.928        0.220        0.106       39.187        6.671        0.029      349.312       29.648      862.511
08/14/2013  12:37:00       16.493       -0.980       11.876       26.635       42.663       22.509      709.443     1820.130      506.668        0.172        0.152       16.522       23.928        2.097      349.014       29.130      862.508
08/14/2013  12:38:00       78.104      -61.808        8.060       47.290       80.444       44.009     2236.346     6471.253     1936.780        1.031        0.532       99.602       52.152        0.274      348.926       28.980      862.492
08/14/2013  12:39:00      -29.974      -54.969        7.450       63.901       66.278       38.430     4083.387     4392.835     1476.841        0.696        0.498       62.610       39.471        0.397      348.825       28.802      862.480
08/14/2013  12:40:00      -55.954     -117.099       -9.210       36.294       45.530       41.106     1317.233     2072.943     1689.744        1.100        0.254      129.780       29.427        0.051      348.512       28.264      862.465
08/14/2013  12:41:00       -2.041      -10.822       37.048       24.208       37.620       25.679      586.050     1415.274      659.423        0.208        0.133       11.013       20.676        3.525      349.173       29.407      862.441
08/14/2013  12:42:00       -6.873      -16.236        7.757       30.411       19.292       19.759      924.799      372.186      390.418        0.103        0.084       17.630       15.284        0.752      349.115       29.307      862.432
08/14/2013  12:43:00       28.979       -7.690       24.853       28.105       31.544       28.472      789.873      995.050      810.636        0.206        0.130       29.982       24.165        0.650      348.781       28.728      862.411
08/14/2013  12:44:00        7.194       21.378       52.208       31.628       44.582       27.260     1000.304     1987.550      743.105        0.348        0.187       22.556       26.861        1.418      349.054       29.201      862.397
08/14/2013  12:45:00       27.304       14.075       38.994       43.365       46.594       35.805     1880.528     2170.975     1282.027        0.390        0.267       30.718       33.861        1.215      349.259       29.555      862.387
08/14/2013  12:46:00       11.764        1.319       40.041       33.785       38.183       37.798     1141.414     1457.935     1428.664        0.289        0.201       11.838       17.207        2.113      349.107       29.292      862.383
08/14/2013  12:47:00       34.620      -80.593       12.365       46.182       40.067       35.082     2132.798     1605.385     1230.747        0.641        0.248       87.714       28.375        0.105      348.913       28.955      862.374
08/14/2013  12:48:00       13.719       -6.205       32.299       25.645       42.081       29.621      657.682     1770.826      877.432        0.229        0.165       15.057       27.032        3.223      349.345       29.707      862.363
08/14/2013  12:49:00       -0.535       11.522       -2.392       38.272       23.123       16.176     1464.764      534.660      261.678        0.120        0.113       11.534       17.926        2.416      348.856       28.859      862.341
08/14/2013  12:50:00      -43.458       11.340        9.444       32.526       29.738       27.300     1057.919      884.328      745.267        0.240        0.134       44.914       21.548        0.230      349.369       29.748      862.328
08/14/2013  12:51:00      -14.889      -42.176        9.987       55.862       40.708       22.517     3120.617     1657.145      507.005        0.369        0.264       44.727       14.071        0.099      348.751       28.677      862.314
08/14/2013  12:52:00      -32.420      -29.058       11.318       53.516       45.560       27.095     2863.942     2075.716      734.152        0.385        0.284       43.536       21.357        0.241      349.149       29.367      862.298
08/14/2013  12:53:00      -14.997      -30.909       13.834       38.966       39.716       28.439     1518.378     1577.370      808.800        0.264        0.195       34.356       22.988        0.448      349.579       30.112      862.280
08/14/2013  12:54:00       31.959      -31.638       24.313       59.402       63.244       41.118     3528.581     3999.835     1690.716        0.591        0.461       44.970       36.901        0.673      349.601       30.149      862.268
08/14/2013  12:55:00       22.062      -27.536       26.297       31.870       37.411       29.447     1015.674     1399.590      867.123        0.261        0.164       35.284       30.189        0.732      349.317       29.657      862.249
08/14/2013  12:56:00       21.922      -59.031        5.482       33.627       48.022       27.590     1130.770     2306.151      761.234        0.410        0.210       62.970       28.944        0.211      349.098       29.275      862.243
08/14/2013  12:57:00       64.201     -139.743        7.043       80.366       66.814       53.229     6458.649     4464.072     2833.289        1.873        0.688      153.785       48.253        0.098      349.330       29.677      862.217
08/14/2013  12:58:00       -4.365      -39.079       34.810       34.861       61.751       41.509     1215.284     3813.189     1722.962        0.475        0.338       39.322       37.076        0.889      349.616       30.175      862.211
08/14/2013  12:59:00       97.805     -192.750      -36.461       80.892       79.634       51.523     6543.575     6341.642     2654.626        3.179        0.777      216.144       51.016        0.056      349.078       29.239      862.194
08/14/2013  13:00:00      -14.790      -63.569       29.208       51.898       64.669       43.419     2693.390     4182.140     1885.168        0.694        0.438       65.267       40.736        0.390      349.238       29.520      862.169
08/14/2013  13:01:00        1.397       27.708       64.997       48.797       59.461       45.719     2381.137     3535.667     2090.216        0.650        0.400       27.743       38.844        1.960      349.397       29.796      862.172
08/14/2013  13:02:00       22.428       48.738       48.143       41.147       38.765       42.104     1693.057     1502.693     1772.783        0.508        0.248       53.651       27.127        0.256      349.229       29.503      862.153
08/14/2013  13:03:00       44.073      -52.017       27.395       57.576       98.828       55.254     3314.970     9767.031     3053.029        1.076        0.807       68.177       58.194        0.729      349.454       29.893      862.156
08/14/2013  13:04:00       15.593       45.449       72.926       44.572       62.743       49.380     1986.684     3936.729     2438.394        0.799        0.418       48.050       48.250        1.008      349.086       29.256      862.139
08/14/2013  13:05:00       28.273      -20.621       24.139       37.281       32.732       23.149     1389.888     1071.378      535.867        0.240        0.150       34.994       20.899        0.357      348.965       29.048      862.123
08/14/2013  13:06:00       40.752      -51.334        8.893       45.181       59.704       31.041     2041.352     3564.527      963.531        0.547        0.328       65.543       35.690        0.297      349.011       29.126      862.116
08/14/2013  13:07:00       34.667        9.541       33.650       47.107       57.580       56.025     2219.051     3315.436     3138.780        0.555        0.434       35.955       53.557        2.219      349.318       29.657      862.093
08/14/2013  13:08:00       22.831      -71.417       12.662       32.279       61.522       34.363     1041.923     3785.003     1180.788        0.589        0.300       74.978       36.863        0.242      349.374       29.756      862.090
08/14/2013  13:09:00      -16.587      -38.337      -13.311       38.343       76.287       32.760     1470.208     5819.662     1073.191        0.514        0.418       41.771       31.700        0.576      349.037       29.172      862.080
08/14/2013  13:10:00      -33.605        0.779       16.249       24.610       29.357       19.154      605.632      861.847      366.876        0.161        0.092       33.614       14.206        0.179      349.649       30.233      862.063
08/14/2013  13:11:00       13.347       16.477       33.292       25.854       24.391       19.826      668.411      594.897      393.084        0.161        0.083       21.205       13.837        0.426      349.233       29.512      862.065
08/14/2013  13:12:00       67.240       36.725       69.998       59.210       61.468       44.870     3505.826     3778.265     2013.279        1.003        0.465       76.616       36.166        0.223      348.949       29.019      862.061
08/14/2013  13:13:00       83.201      -21.772       28.146       72.510       43.583       41.695     5257.710     1899.445     1738.489        0.854        0.445       86.003       36.880        0.184      349.344       29.703      862.054
08/14/2013  13:14:00       60.989       60.271       73.635       82.285       70.038       53.990     6770.791     4905.279     2914.939        1.368        0.730       85.745       53.713        0.392      349.301       29.628      862.048
08/14/2013  13:15:00       96.823       18.661       46.345       83.253       78.157       45.706     6931.113     6108.484     2089.051        1.350        0.756       98.605       48.446        0.241      349.173       29.405      862.034
08/14/2013  13:16:00      165.281       11.675       64.070       92.855       99.584       73.557     8622.061     9916.987     5410.692        2.775        1.197      165.693       57.456        0.120      349.168       29.395      862.007
08/14/2013  13:17:00       50.627       70.832       95.104       74.496       71.745       43.013     5549.724     5147.393     1850.101        1.458        0.627       87.064       31.061        0.127      349.291       29.608      861.988
08/14/2013  13:18:00       95.900       74.054       45.351       86.610       65.228       58.666     7501.220     4254.732     3441.645        1.597        0.760      121.165       26.845        0.049      349.458       29.900      861.964
08/14/2013  13:19:00       82.081       71.660       53.194       66.140       58.788       47.403     4374.478     3456.011     2247.059        1.239        0.504      108.961       30.278        0.077      349.813       30.518      861.947
08/14/2013  13:20:00       44.555      -15.860       45.663       49.591       64.980       42.133     2459.295     4222.411     1775.175        0.639        0.423       47.293       30.585        0.418      349.758       30.423      861.941
08/14/2013  13:21:00       68.062       22.244       56.132       75.630       90.110       42.117     5719.969     8119.868     1773.881        1.194        0.781       71.604       47.034        0.431      349.546       30.052      861.922
08/14/2013  13:22:00       87.616       64.990       63.322       70.055       67.778       47.945     4907.637     4593.867     2298.765        1.385        0.590      109.088       37.747        0.120      349.636       30.210      861.906
08/14/2013  13:23:00       -0.525       46.359       94.663       65.437       92.695       53.874     4282.066     8592.385     2902.450        1.344        0.789       46.362       57.945        1.562      349.649       30.232      861.883
08/14/2013  13:24:00      100.649       57.278       16.319       31.898       30.536       26.021     1017.460      932.421      677.083        0.815        0.131      115.806       13.539        0.014      348.838       28.825      861.890
08/14/2013  13:25:00       93.164       64.254       61.622       68.211       64.530       48.373     4652.737     4164.139     2339.965        1.388        0.558      113.173       41.650        0.135      349.133       29.336      861.867
08/14/2013  13:26:00      113.056     -105.741       -1.488       54.180       51.319       40.096     2935.472     2633.641     1607.679        1.557        0.359      154.799       31.368        0.041      349.053       29.198      861.848
08/14/2013  13:27:00      149.906     -160.407       -4.821       72.602       62.822       45.736     5271.094     3946.556     2091.757        2.977        0.565      219.550       30.797        0.020      349.382       29.766      861.815
08/14/2013  13:28:00       88.260      -30.723       10.483       59.715       67.776       41.748     3565.832     4593.653     1742.908        0.937        0.495       93.454       42.767        0.209      349.384       29.773      861.805
08/14/2013  13:29:00       -2.123      -34.933       17.964       21.554       44.138       24.641      464.571     1948.129      607.179        0.228        0.151       34.997       18.019        0.265      349.154       29.375      861.793
08/14/2013  13:30:00       35.478      -23.547       16.636       23.107       32.917       30.209      533.922     1083.523      912.606        0.231        0.127       42.581       16.673        0.153      349.588       30.127      861.772
08/14/2013  13:31:00       22.155        2.026       19.446       28.955       52.854       35.784      838.413     2793.543     1280.503        0.289        0.246       22.248       29.376        1.743      349.162       29.389      861.759
08/14/2013  13:32:00       99.722       49.361       64.755       97.196       63.043       59.597     9446.981     3974.466     3551.763        1.677        0.849      111.270       50.637        0.207      349.351       29.714      861.746
08/14/2013  13:33:00      113.887      -69.433       24.914      109.585       94.863       69.133    12008.767     8998.934     4779.431        2.210        1.289      133.383       39.574        0.088      349.561       30.077      861.710
08/14/2013  13:34:00       49.551       19.385      108.045       70.405      103.424       61.002     4956.865    10696.511     3721.245        1.694        0.969       53.208       52.870        0.987      349.637       30.211      861.704
08/14/2013  13:35:00        7.029       15.155       24.406       44.665       43.900       30.994     1994.926     1927.215      960.627        0.288        0.244       16.706       18.538        1.231      349.995       30.832      861.706
08/14/2013  13:36:00       43.457     -148.208      -43.626       58.903       83.096       35.743     3469.522     6904.953     1277.565        1.870        0.583      154.448       37.457        0.059      349.536       30.034      861.704
08/14/2013  13:37:00       75.838      -45.412       47.574       67.991      110.128       69.219     4622.717    12128.167     4791.262        1.581        1.077       88.395       79.490        0.809      349.774       30.448      861.687
08/14/2013  13:38:00       40.513        1.893       52.148       65.442       69.617       43.425     4282.600     4846.501     1885.746        0.769        0.551       40.557       45.770        1.274      349.717       30.350      861.679
08/14/2013  13:39:00       61.565       12.672       45.749       54.007       54.163       43.327     2916.706     2933.620     1877.230        0.688        0.386       62.856       34.191        0.296      349.433       29.859      861.659
08/14/2013  13:40:00       51.349       -3.172       17.668       50.822       48.765       36.100     2582.864     2378.047     1303.226        0.461        0.313       51.447       32.656        0.403      349.549       30.060      861.622
08/14/2013  13:41:00       58.126        0.193       12.867       29.551       36.939       27.308      873.289     1364.483      745.714        0.326        0.149       58.127       11.150        0.037      349.289       29.607      861.606
08/14/2013  13:42:00      102.045       41.615       44.406       69.128       66.514       52.256     4778.685     4424.165     2730.723        1.302        0.597      110.204       40.867        0.138      349.420       29.834      861.586
08/14/2013  13:43:00      148.154       83.441       34.164       78.721       74.632       45.521     6197.001     5569.929     2072.146        2.196        0.692      170.035       29.541        0.030      349.773       30.445      861.568
08/14/2013  13:44:00       54.485      -21.651       24.954       69.780       62.249       41.641     4869.272     3874.992     1733.968        0.727        0.524       58.629       38.788        0.438      349.659       30.250      861.561
08/14/2013  13:45:00      104.357      -66.377       33.004       97.931      103.832       58.785     9590.512    10781.074     3455.637        2.010        1.191      123.679       51.610        0.174      349.851       30.581      861.554
08/14/2013  13:46:00      153.002      -74.022       45.852       85.047      118.262       79.281     7232.992    13986.001     6285.484        2.924        1.375      169.968       72.155        0.180      349.795       30.483      861.564
08/14/2013  13:47:00       89.889       56.245       44.738       65.281       52.806       56.861     4261.561     2788.457     3233.162        1.176        0.514      106.036       41.085        0.150      349.376       29.759      861.573
08/14/2013  13:48:00       76.121       45.058       46.696       86.119       97.625       60.435     7416.503     9530.640     3652.427        1.530        1.030       88.456       62.048        0.492      349.422       29.838      861.564
08/14/2013  13:49:00      138.855       97.208       82.448       65.775       60.022       42.694     4326.356     3602.584     1822.784        2.264        0.488      169.500       31.547        0.035      349.512       29.991      861.568
08/14/2013  13:50:00       56.142       37.744       59.717       57.148       59.077       59.602     3265.945     3490.087     3552.443        0.922        0.515       67.650       53.185        0.618      349.459       29.903      861.583
08/14/2013  13:51:00       18.090       17.364       22.944       33.060       18.492       22.343     1092.945      341.956      499.210        0.154        0.097       25.075        5.179        0.043      349.693       30.307      861.579
08/14/2013  13:52:00       38.204       51.931       25.725       44.020       29.597       42.075     1937.796      875.979     1770.288        0.470        0.229       64.470       37.365        0.336      349.616       30.175      861.555
08/14/2013  13:53:00       64.470       -8.793       13.311       35.662       40.547       21.859     1271.768     1644.091      477.817        0.390        0.170       65.067       11.901        0.033      349.240       29.522      861.532
08/14/2013  13:54:00      -44.995      -25.100        7.813       44.107       32.350       23.956     1945.410     1046.513      573.906        0.314        0.178       51.523       28.914        0.315      349.686       30.296      861.507
08/14/2013  13:55:00       10.096       15.131       12.497       51.269       28.725       27.671     2628.497      825.124      765.659        0.235        0.211       18.190       14.740        0.657      349.846       30.576      861.485
08/14/2013  13:56:00       10.572       49.485       -7.765       27.627       51.030       18.484      763.254     2604.087      341.658        0.316        0.185       50.602       24.646        0.237      349.590       30.129      861.471
08/14/2013  13:57:00       37.965       49.555       12.601       53.931       37.662       29.030     2908.529     1418.404      842.742        0.461        0.258       62.426       14.623        0.055      350.098       31.012      861.449
08/14/2013  13:58:00       33.682      -37.960       -7.159       47.798       41.346       22.579     2284.673     1709.529      509.798        0.356        0.225       50.749       13.531        0.071      349.296       29.621      861.443
08/14/2013  13:59:00       26.510        5.321       26.370       25.501       25.369       19.186      650.280      643.593      368.085        0.154        0.083       27.038       13.185        0.238      349.479       29.938      861.437
08/14/2013  14:00:00       45.172        8.436       29.402       45.438       28.297       28.902     2064.636      800.721      835.311        0.334        0.185       45.952       26.548        0.334      349.101       29.282      861.435
08/14/2013  14:01:00        4.102       11.299       38.199       31.903       52.822       44.375     1017.792     2790.159     1969.126        0.369        0.289       12.021       39.667       10.889      349.680       30.286      861.428
08/14/2013  14:02:00       -6.403       24.406       16.810       26.323       43.219       31.295      692.887     1867.871      979.394        0.223        0.177       25.232       16.871        0.447      349.851       30.584      861.432
08/14/2013  14:03:00        7.263       56.596        5.305       27.239       48.035       32.402      741.983     2307.388     1049.877        0.369        0.205       57.060       30.446        0.285      350.115       31.040      861.422
08/14/2013  14:04:00      -23.715      140.066      -15.772       34.427       66.326       30.162     1185.204     4399.111      909.753        1.346        0.325      142.059       31.016        0.048      349.851       30.584      861.420
08/14/2013  14:05:00       -4.578      174.140      -17.468       46.682      105.795       35.424     2179.228    11192.668     1254.876        2.264        0.731      174.200       45.772        0.069      349.955       30.761      861.412
08/14/2013  14:06:00      -50.611      208.968       -8.868       70.780       75.639       43.346     5009.760     5721.221     1878.915        2.946        0.630      215.010       39.098        0.033      349.896       30.658      861.399
08/14/2013  14:07:00      -20.154       94.554      -11.038       24.383       48.979       23.070      594.554     2398.901      532.237        0.650        0.176       96.679       16.430        0.029      349.910       30.688      861.405
08/14/2013  14:08:00      -14.571       79.076        5.015       44.613       65.758       30.263     1990.317     4324.088      915.823        0.686        0.362       80.407       28.991        0.130      350.254       31.282      861.404
08/14/2013  14:09:00      -48.392      122.666       -3.562       36.061       62.152       31.632     1300.403     3862.868     1000.556        1.178        0.308      131.866       32.983        0.063      350.140       31.084      861.395
08/14/2013  14:10:00      -11.411       68.169       13.463       33.790       65.180       30.152     1141.790     4248.370      909.166        0.563        0.315       69.117       30.361        0.193      350.537       31.775      861.384
08/14/2013  14:11:00      -53.082       46.889      -10.313       56.239       40.042       37.212     3162.777     1603.362     1384.754        0.564        0.308       70.826       39.237        0.307      350.187       31.168      861.381
08/14/2013  14:12:00     -104.765      -26.895       -8.678       48.670       56.912       31.859     2368.756     3238.950     1014.967        0.920        0.331      108.162       32.433        0.090      350.109       31.031      861.365
08/14/2013  14:13:00      -13.667       -3.134       21.634       59.245       34.960       25.568     3510.022     1222.218      653.731        0.302        0.269       14.021       23.917        2.910      350.338       31.429      861.350
08/14/2013  14:14:00       31.749      -39.029       24.935       35.730       29.742       32.314     1276.652      884.611     1044.213        0.318        0.160       50.311       19.513        0.150      349.997       30.836      861.351
08/14/2013  14:15:00       25.778        9.094       26.638       30.710       31.017       21.427      943.085      962.070      459.131        0.191        0.118       27.335       20.678        0.572      349.807       30.506      861.341
08/14/2013  14:16:00       36.370        4.282       10.827       16.256       14.388       22.757      264.263      207.020      517.886        0.122        0.049       36.621        9.664        0.070      349.926       30.714      861.330
08/14/2013  14:17:00       45.544       -5.375       18.227       28.985       18.781       19.721      840.114      352.735      388.907        0.201        0.079       45.860        6.653        0.021      350.092       31.002      861.325
08/14/2013  14:18:00       51.368       43.721       12.631       37.652       40.368       35.227     1417.672     1629.604     1240.944        0.450        0.214       67.455       18.266        0.073      349.692       30.307      861.313
08/14/2013  14:19:00       16.055       19.741       32.791       32.279       30.003       24.039     1041.935      900.189      577.858        0.212        0.126       25.445       19.121        0.565      350.406       31.547      861.300
08/14/2013  14:20:00      -28.594       21.913       -3.199       42.306       53.283       28.415     1789.757     2839.127      807.409        0.337        0.272       36.025       19.494        0.293      350.222       31.228      861.284
08/14/2013  14:21:00       20.299       28.577       16.867       31.123       33.674       25.573      968.647     1133.961      653.962        0.213        0.138       35.053       17.201        0.241      350.660       31.988      861.271
08/14/2013  14:22:00       55.688       44.846        3.630       54.832       47.459       27.142     3006.564     2252.321      736.700        0.556        0.300       71.500       28.697        0.161      350.297       31.358      861.264
08/14/2013  14:23:00       11.933       41.424       -3.591       57.878       43.132       27.818     3349.887     1860.412      773.834        0.393        0.299       43.108       16.851        0.153      350.645       31.964      861.240
08/14/2013  14:24:00       98.443       90.071       35.231       89.100       78.784       64.622     7938.848     6206.845     4176.009        1.868        0.916      133.431       31.765        0.057      350.436       31.596      861.224
08/14/2013  14:25:00       94.728       67.509       12.653       58.312       67.539       43.396     3400.234     4561.551     1883.221        1.177        0.492      116.323       33.896        0.085      350.165       31.128      861.214
08/14/2013  14:26:00       87.685       71.995        0.349       42.394       37.026       34.052     1797.211     1370.939     1159.530        0.860        0.216      113.455       19.332        0.029      350.140       31.085      861.208
08/14/2013  14:27:00       31.361       41.704        4.347       39.921       35.173       23.209     1593.675     1237.138      538.638        0.305        0.168       52.180       14.640        0.079      350.444       31.613      861.221
08/14/2013  14:28:00       25.588       20.651       18.862       38.110       54.424       33.524     1452.336     2961.937     1123.864        0.349        0.277       32.882       15.054        0.210      350.352       31.454      861.204
08/14/2013  14:29:00       75.538       44.930        5.489       99.824       56.677       42.794     9964.764     3212.240     1831.316        1.138        0.750       87.890       21.759        0.061      350.433       31.593      861.180
08/14/2013  14:30:00       25.998      -33.149       28.202       37.299       45.282       33.575     1391.228     2050.428     1127.301        0.357        0.228       42.128       20.681        0.241      350.474       31.665      861.173
08/14/2013  14:31:00       24.354      -86.384        2.082       52.248       88.233       39.613     2729.905     7785.147     1569.214        1.007        0.604       89.752       42.236        0.221      350.147       31.096      861.155
08/14/2013  14:32:00       50.557      -63.203       29.789       79.253      126.435       52.555     6281.085    15985.757     2762.027        1.623        1.251       80.935       61.822        0.583      350.403       31.540      861.147
08/14/2013  14:33:00       55.975      -65.805       40.118       94.135      134.007       66.714     8861.446    17958.004     4450.774        2.017        1.564       86.392       87.768        1.032      350.541       31.780      861.119
08/14/2013  14:34:00      107.921      -93.842       16.229       93.905      120.158       74.989     8818.225    14437.885     5623.361        2.479        1.444      143.015       85.255        0.355      350.671       32.006      861.108
08/14/2013  14:35:00      122.073     -101.090       16.731      119.588      107.048       77.648    14301.199    11459.326     6029.271        2.859        1.589      158.496       74.020        0.218      350.631       31.937      861.116
08/14/2013  14:36:00      136.575     -217.870       -0.752      107.422      154.985       69.547    11539.404    24020.311     4836.791        5.325        2.020      257.138       91.564        0.127      350.303       31.365      861.114
08/14/2013  14:37:00      202.591     -313.858      -41.223       74.116       65.888       44.246     5493.142     4341.283     1957.711        7.652        0.590      373.563       39.382        0.011      350.115       31.037      861.122
08/14/2013  14:38:00      115.783     -229.568      -49.474       79.453       99.310       45.366     6312.736     9862.512     2058.068        4.339        0.912      257.114       37.229        0.021      350.082       30.980      861.125
08/14/2013  14:39:00       22.813      -24.784       46.704       53.260      105.664       62.283     2836.669    11164.904     3879.145        1.060        0.894       33.685       72.291        4.606      350.065       30.954      861.122
08/14/2013  14:40:00       59.052      -27.418       -4.767       46.313       31.772       28.702     2144.908     1009.448      823.833        0.412        0.199       65.107       19.421        0.089      349.851       30.583      861.129
08/14/2013  14:41:00       54.002       61.922       25.118       24.516       37.617       29.144      601.048     1415.018      849.379        0.512        0.143       82.162       21.114        0.066      349.732       30.377      861.114
08/14/2013  14:42:00       39.466        0.108       13.965       21.268       39.283       20.877      452.340     1543.192      435.838        0.209        0.122       39.466        7.563        0.037      349.804       30.502      861.098
08/14/2013  14:43:00       18.406       26.165       27.757       22.808       26.920       22.134      520.204      724.699      489.915        0.176        0.087       31.991       18.257        0.326      349.778       30.458      861.087
08/14/2013  14:44:00       58.292      -89.405      -14.394       85.438      128.731       40.692     7299.709    16571.558     1655.828        1.856        1.276      106.730       46.027        0.186      349.887       30.644      861.069
08/14/2013  14:45:00      158.822     -189.445      -32.024       56.723       77.514       35.930     3217.507     6008.373     1290.971        3.633        0.526      247.211       25.623        0.011      350.205       31.192      861.047
08/14/2013  14:46:00       29.060      -28.059       32.179       47.495       84.184       31.938     2255.752     7086.925     1020.047        0.651        0.518       40.395       36.427        0.813      350.348       31.445      861.041
08/14/2013  14:47:00       98.892     -168.182      -16.080       98.163      127.809       65.851     9635.906    16335.133     4336.311        3.431        1.515      195.102       60.696        0.097      350.094       31.003      861.022
08/14/2013  14:48:00      123.853     -217.624      -12.868      106.706      104.818       63.336    11386.155    10986.860     4011.461        4.462        1.319      250.399       66.636        0.071      350.183       31.157      861.010
08/14/2013  14:49:00       -7.391     -175.087      -23.308       91.444       83.463       58.814     8361.943     6966.152     3459.103        2.502        0.939      175.243       47.723        0.074      350.435       31.596      861.010
08/14/2013  14:50:00       17.878      -64.375       35.455       62.105      120.593       61.801     3856.991    14542.691     3819.397        1.397        1.111       66.812       75.476        1.276      349.982       30.809      861.011
08/14/2013  14:51:00       51.828      -46.651       33.041       56.200       68.249       49.663     3158.419     4657.912     2466.376        0.812        0.514       69.731       44.484        0.407      349.850       30.582      860.999
08/14/2013  14:52:00       80.325      -28.734       40.174       75.614      140.367       80.533     5717.499    19702.795     6485.484        2.039        1.595       85.310       90.227        1.119      350.393       31.522      860.997
08/14/2013  14:53:00       50.031      -63.491       30.812       55.860       97.158       42.320     3120.355     9439.647     1791.021        1.091        0.718       80.834       46.188        0.326      350.125       31.059      860.994
08/14/2013  14:54:00       65.034     -102.802       13.078      107.512      143.333       63.605    11558.831    20544.255     4045.651        2.555        1.807      121.646       85.173        0.490      350.184       31.161      860.953
08/14/2013  14:55:00       77.105       92.148      123.919       87.745      118.883       80.433     7699.186    14133.105     6469.447        2.904        1.415      120.152       95.633        0.634      350.171       31.136      860.950
08/14/2013  14:56:00      111.707     -135.451       -1.098       82.397      108.370       59.040     6789.261    11743.968     3485.724        2.642        1.101      175.572       72.500        0.171      350.117       31.042      860.954
08/14/2013  14:57:00       94.089      -41.028       22.715       71.339       99.345       51.773     5089.277     9869.377     2680.459        1.434        0.882      102.646       65.778        0.411      350.227       31.235      860.965
08/14/2013  14:58:00       80.601      -59.346       26.041       61.125       98.252       63.753     3736.324     9653.496     4064.413        1.407        0.873      100.092       69.096        0.477      350.185       31.162      860.951
08/14/2013  14:59:00       77.470       61.547       72.155       46.409       68.887       43.820     2153.766     4745.387     1920.194        1.191        0.441       98.942       47.611        0.232      349.864       30.605      860.940
08/14/2013  15:00:00      110.263      -28.104       24.172       45.375       53.158       40.298     2058.851     2825.768     1623.947        1.002        0.325      113.788       33.788        0.088      349.889       30.648      860.925
08/14/2013  15:01:00       40.855        7.123       16.812       47.926       42.177       39.428     2296.923     1778.904     1554.567        0.382        0.282       41.471       29.919        0.520      349.967       30.783      860.908
08/14/2013  15:02:00       36.597      -40.637      -13.655       50.906       44.065       28.390     2591.471     1941.766      806.011        0.426        0.267       54.687       29.066        0.282      350.326       31.409      860.892
08/14/2013  15:03:00      -49.828       29.225        9.655       68.025       36.659       25.321     4627.341     1343.856      641.172        0.502        0.331       57.766       19.569        0.115      350.687       32.036      860.872
08/14/2013  15:04:00     -123.209       51.709      -12.862       37.714       31.381       21.703     1422.339      984.760      471.018        1.045        0.144      133.620       18.638        0.019      350.378       31.499      860.854
08/14/2013  15:05:00     -106.788       36.266      -14.439       33.041       31.361       23.425     1091.735      983.498      548.743        0.778        0.131      112.778       13.443        0.014      350.417       31.566      860.847
08/14/2013  15:06:00      -10.689        7.291       16.401       33.404       35.048       31.287     1115.837     1228.367      978.866        0.188        0.166       12.939       29.459        5.184      350.195       31.180      860.839
08/14/2013  15:07:00       38.966       13.053       39.595       53.300       70.239       44.001     2840.933     4933.451     1936.048        0.648        0.486       41.094       40.447        0.969      349.874       30.624      860.821
08/14/2013  15:08:00       64.868      -46.487       22.165       72.373       75.881       56.714     5237.826     5757.991     3216.528        1.053        0.711       79.806       41.478        0.270      350.250       31.274      860.801
08/14/2013  15:09:00       84.672     -153.047      -28.008       67.970      104.964       54.779     4619.891    11017.452     3000.699        2.500        0.932      174.908       42.127        0.058      350.456       31.631      860.775
08/14/2013  15:10:00       47.830      -18.288       34.070       77.751       93.319       61.150     6045.144     8708.352     3739.358        1.113        0.925       51.207       71.151        1.931      350.271       31.312      860.776
08/14/2013  15:11:00       44.190      -15.085       32.881       53.224       58.012       39.355     2832.799     3365.399     1548.837        0.550        0.387       46.694       30.369        0.423      350.039       30.911      860.781
08/14/2013  15:12:00       24.878      -27.896       34.185       33.223       36.649       30.950     1103.782     1343.160      957.883        0.298        0.170       37.378       25.840        0.478      350.701       32.061      860.780
08/14/2013  15:13:00        9.755      -24.356       34.423       28.326       62.489       28.365      802.381     3904.831      804.600        0.369        0.276       26.237       28.745        1.200      350.495       31.702      860.785
08/14/2013  15:14:00       39.431      -85.536        4.791       36.023       52.352       33.449     1297.679     2740.767     1118.852        0.702        0.258       94.187       27.321        0.084      350.291       31.348      860.793
08/14/2013  15:15:00        5.261      -29.721      -16.328       28.244       50.208       23.225      797.736     2520.877      539.390        0.252        0.193       30.183       20.851        0.477      350.511       31.728      860.789
08/14/2013  15:16:00      -32.534      -88.347        2.101       27.872       44.234       23.035      776.830     1956.631      530.613        0.607        0.163       94.147       15.892        0.028      350.468       31.655      860.782
08/14/2013  15:17:00       -0.496      -34.394       10.740       40.563       55.153       35.385     1645.370     3041.854     1252.083        0.362        0.297       34.397       31.846        0.857      350.410       31.556      860.771
08/14/2013  15:18:00        5.624       31.966       52.510       26.746       42.052       28.940      715.356     1768.378      837.550        0.357        0.166       32.456       28.259        0.758      350.130       31.067      860.761
08/14/2013  15:19:00        5.278      -22.978        8.791       41.793       31.822       22.952     1746.653     1012.635      526.781        0.196        0.164       23.576       21.390        0.823      350.132       31.072      860.761
08/14/2013  15:20:00      -38.315        3.236       18.500       60.522       33.047       24.707     3662.955     1092.075      610.437        0.359        0.268       38.451       21.072        0.300      350.421       31.573      860.750
08/14/2013  15:21:00        6.681       22.382        4.495       29.588       46.057       24.686      875.439     2121.215      609.387        0.209        0.180       23.358       17.139        0.538      350.187       31.167      860.750
08/14/2013  15:22:00      -55.648       40.166       12.288       58.038       60.128       30.521     3368.460     3615.395      931.522        0.639        0.396       68.629       28.618        0.174      350.741       32.130      860.742
08/14/2013  15:23:00      -69.780      -36.470       -0.536       49.339       35.126       26.520     2434.332     1233.823      703.291        0.528        0.219       78.735       18.519        0.055      350.543       31.786      860.746
08/14/2013  15:24:00      -18.035      -14.911       14.712       67.896       44.798       34.765     4609.813     2006.891     1208.600        0.429        0.391       23.401       33.223        2.016      350.467       31.655      860.740
08/14/2013  15:25:00      -64.200       12.135        7.997       96.699       31.336       33.587     9350.678      981.919     1128.071        0.789        0.573       65.337       37.680        0.333      350.447       31.618      860.742
08/14/2013  15:26:00     -198.056       -7.564        2.575       78.561       66.622       36.649     6171.886     4438.491     1343.180        2.562        0.598      198.200       34.460        0.030      350.872       32.355      860.731
08/14/2013  15:27:00     -122.805       21.544        7.463      107.269      147.667       44.721    11506.733    21805.684     1999.929        2.545        1.766      124.680       54.101        0.188      350.585       31.858      860.721
08/14/2013  15:28:00      -85.926       28.983       -1.173       44.856       27.770       28.420     2012.059      771.188      807.691        0.591        0.180       90.683       28.544        0.099      350.556       31.807      860.698
08/14/2013  15:29:00      -93.108      -78.624        9.530      107.334       80.921       41.712    11520.518     6548.262     1739.851        1.737        0.990      121.864       42.107        0.119      350.878       32.368      860.695
08/14/2013  15:30:00     -162.331     -150.177        6.015      127.334       92.140       66.977    16214.074     8489.699     4485.961        3.906        1.459      221.144       67.092        0.092      350.607       31.894      860.697
08/14/2013  15:31:00     -147.906     -147.279       -9.692       75.486       60.096       37.712     5698.120     3611.496     1422.222        2.719        0.537      208.728       37.458        0.032      350.507       31.720      860.700
08/14/2013  15:32:00      -47.776      -24.989        8.379       59.148       36.785       28.805     3498.488     1353.121      829.735        0.433        0.284       53.916       32.271        0.358      350.902       32.411      860.685
08/14/2013  15:33:00     -172.122       23.580      -10.584      125.641       61.179       44.327    15785.563     3742.880     1964.926        2.589        1.075      173.729       59.934        0.119      350.868       32.348      860.661
08/14/2013  15:34:00     -169.563       48.163      -24.195       89.979       47.364       37.325     8096.251     2243.328     1393.155        2.169        0.587      176.270       32.562        0.034      350.728       32.104      860.658
08/14/2013  15:35:00     -133.712      -35.476        1.862      112.051       76.342       35.018    12555.353     5828.117     1226.255        1.937        0.980      138.338       40.471        0.086      350.722       32.095      860.637
08/14/2013  15:36:00     -174.820       -8.104       -9.412       94.506       70.852       40.376     8931.406     5019.954     1630.236        2.315        0.779      175.008       42.849        0.060      350.699       32.054      860.613
08/14/2013  15:37:00      -97.420       55.871      -13.121       52.162       54.538       25.882     2720.834     2974.427      669.865        0.957        0.318      112.304       21.857        0.038      350.807       32.244      860.605
08/14/2013  15:38:00      -72.929      134.319      -10.570       54.336       78.532       43.370     2952.395     6167.261     1880.939        1.723        0.550      152.841       39.041        0.065      350.815       32.257      860.596
08/14/2013  15:39:00     -136.973       71.581      -27.406       50.042       46.741       27.150     2504.189     2184.717      737.131        1.503        0.271      154.549       16.377        0.011      350.736       32.122      860.579
08/14/2013  15:40:00     -165.385       29.197      -11.481       57.210       59.879       36.816     3272.988     3585.461     1355.385        1.827        0.411      167.943       37.549        0.050      350.911       32.426      860.582
08/14/2013  15:41:00     -109.851       76.190      -26.236       69.320       48.883       28.981     4805.240     2389.500      839.877        1.330        0.402      133.687       17.975        0.018      350.632       31.939      860.586
08/14/2013  15:42:00      -54.006       -4.678        9.257       58.713       63.658       33.996     3447.163     4052.390     1155.728        0.584        0.433       54.209       36.985        0.465      351.024       32.624      860.574
08/14/2013  15:43:00      -88.104      -37.356        8.012       74.958       48.490       30.513     5618.634     2351.248      931.029        0.906        0.445       95.696       29.190        0.093      350.989       32.561      860.564
08/14/2013  15:44:00      -41.341       -1.867       10.167       37.341       40.067       25.456     1394.325     1605.342      647.995        0.273        0.182       41.383       24.700        0.356      350.809       32.247      860.560
08/14/2013  15:45:00      -57.087      -32.099        4.584       43.093       46.075       23.556     1856.974     2122.876      554.890        0.442        0.227       65.493       18.639        0.081      350.936       32.468      860.550
08/14/2013  15:46:00     -159.507     -130.372      -10.048      122.798       64.007       37.000    15079.324     4096.888     1368.990        3.154        1.027      206.008       40.013        0.038      350.836       32.292      860.542
08/14/2013  15:47:00     -282.137     -207.215        1.049      111.799      116.822       69.958    12498.968    13647.279     4894.118        7.679        1.552      350.056       56.162        0.026      350.875       32.359      860.520
08/14/2013  15:48:00     -138.515     -105.517       34.029      136.897      100.265       69.913    18740.816    10053.131     4887.770        3.257        1.684      174.127       60.354        0.120      350.890       32.387      860.516
08/14/2013  15:49:00     -195.004     -119.994        1.427      143.823       65.928       51.089    20685.117     4346.480     2610.051        4.003        1.382      228.965       63.219        0.076      350.946       32.483      860.514
08/14/2013  15:50:00     -104.316      -36.042       15.258       99.790      105.014       68.271     9958.073    11027.911     4660.871        1.903        1.282      110.367       57.969        0.276      351.249       33.013      860.509
08/14/2013  15:51:00     -272.841     -101.107      -20.143      113.321       67.487       38.980    12841.745     4554.488     1519.449        5.199        0.946      290.972       32.047        0.012      350.806       32.241      860.483
08/14/2013  15:52:00     -146.482        4.288        2.606      120.634       56.926       39.192    14552.598     3240.567     1535.992        2.040        0.966      146.544       53.745        0.135      351.101       32.754      860.464
08/14/2013  15:53:00     -195.694      -75.851       -5.602      118.941       96.603       51.866    14146.940     9332.145     2690.085        3.512        1.308      209.880       52.356        0.062      351.282       33.070      860.464
08/14/2013  15:54:00     -235.745      -36.778       -2.035      138.804      106.262       55.230    19266.639    11291.707     3050.324        4.526        1.680      238.597       45.326        0.036      351.066       32.692      860.460
08/14/2013  15:55:00     -288.143      -18.548       -1.555      161.513      132.387       65.674    26086.377    17526.298     4313.111        6.564        2.396      288.739       78.517        0.074      350.961       32.510      860.457
08/14/2013  15:56:00     -352.853      -43.271      -27.349      107.671       99.538       54.704    11593.029     9907.856     2992.510        7.581        1.225      355.496       57.055        0.026      350.760       32.160      860.442
08/14/2013  15:57:00     -306.073      -32.134      -35.603      114.696       90.113       39.367    13155.238     8120.290     1549.724        5.940        1.141      307.755       28.205        0.008      350.745       32.135      860.438
08/14/2013  15:58:00     -166.559      -40.479        1.161      119.554      105.970       44.415    14293.204    11229.594     1972.733        2.843        1.375      171.407       59.919        0.122      350.985       32.553      860.388
08/14/2013  15:59:00     -184.694      -96.247       22.871      162.516       96.629       64.217    26411.394     9337.248     4123.878        4.188        1.994      208.268       65.447        0.099      351.074       32.705      860.403
08/14/2013  16:00:00     -421.486     -164.745       -8.026      227.585      157.353       83.024    51795.051    24759.895     6892.917       14.414        4.172      452.539      109.231        0.058      350.895       32.397      860.382
08/14/2013  16:01:00     -356.517     -204.775      -18.354      174.357      148.228       58.351    30400.272    21971.650     3404.804       11.257        2.789      411.141       67.886        0.027      350.873       32.357      860.380
08/14/2013  16:02:00     -191.488     -155.720        4.853      150.544      112.703       73.055    22663.413    12701.991     5336.967        5.081        2.035      246.812       72.920        0.087      350.858       32.330      860.371
08/14/2013  16:03:00     -172.814      -88.401       21.734      137.751      101.260       53.199    18975.392    10253.658     2830.142        3.510        1.603      194.112       63.962        0.109      350.974       32.532      860.356
08/14/2013  16:04:00     -162.519      -46.242        2.155      129.186       96.032       60.985    16689.110     9222.161     3719.142        2.909        1.482      168.970       65.268        0.149      351.034       32.638      860.334
08/14/2013  16:05:00     -253.976     -256.509       10.317      225.022      168.944       98.768    50634.856    28542.123     9755.120       10.965        4.447      360.972      125.574        0.121      351.059       32.680      860.351
08/14/2013  16:06:00     -272.384      -75.522        9.852      179.938      137.341       92.350    32377.622    18862.666     8528.492        6.987        2.988      282.660      103.691        0.135      350.992       32.564      860.386
08/14/2013  16:07:00     -211.396      -81.653       -0.643      169.007      121.832       59.681    28563.521    14843.086     3561.861        4.915        2.348      226.617       80.407        0.126      351.022       32.619      860.385
08/14/2013  16:08:00     -431.361       31.760      -39.931      231.406      134.373       72.403    53548.594    18055.998     5242.224       13.275        3.842      432.528       96.387        0.050      350.855       32.325      860.356
08/14/2013  16:09:00     -355.708     -119.651      -11.897      173.136      127.825       84.517    29976.212    16339.238     7143.057        9.721        2.673      375.293       84.119        0.050      351.106       32.763      860.343
08/14/2013  16:10:00     -370.947      -99.697      -16.772      240.272      114.115       86.665    57730.557    13022.275     7510.850       11.303        3.913      384.111       87.448        0.052      350.851       32.319      860.353
08/14/2013  16:11:00     -302.802     -246.041      -13.642      152.138      150.736       71.958    23145.906    22721.410     5178.002       10.172        2.552      390.160       77.885        0.040      350.698       32.051      860.353
08/14/2013  16:12:00     -236.248     -152.591        6.312      148.293      131.348       69.270    21990.860    17252.427     4798.352        6.158        2.202      281.242       82.298        0.086      350.677       32.014      860.342
08/14/2013  16:13:00     -288.108      -92.686       -4.808      133.403      113.382       59.051    17796.460    12855.469     3487.053        6.287        1.707      302.650       75.058        0.062      350.933       32.462      860.349
08/14/2013  16:14:00     -323.479      -57.816       -9.021      126.703       93.773       60.183    16053.765     8793.469     3621.953        6.826        1.423      328.605       57.541        0.031      350.858       32.330      860.354
08/14/2013  16:15:00     -324.363      -11.125      -16.828      194.030      184.787       94.883    37647.762    34146.315     9002.714        9.319        4.040      324.554      104.346        0.103      350.863       32.340      860.326
08/14/2013  16:16:00     -392.485      -31.000      -22.423      164.407      141.570       73.762    27029.798    20041.984     5440.800       10.400        2.626      393.708       82.578        0.044      350.854       32.323      860.334
08/14/2013  16:17:00     -133.290     -142.657       16.735      142.132      134.613       66.036    20201.532    18120.556     4360.749        4.053        2.134      195.236       66.256        0.115      350.844       32.308      860.328
08/14/2013  16:18:00     -272.934     -148.567      -32.757       58.522      121.873       47.040     3424.802    14852.959     2212.746        5.906        1.025      310.750       29.177        0.009      350.752       32.146      860.310
08/14/2013  16:19:00     -179.817     -134.743      -11.120       66.527       95.991       46.366     4425.819     9214.241     2149.772        3.320        0.789      224.700       33.190        0.022      350.800       32.229      860.318
08/14/2013  16:20:00     -173.796      -67.001       -3.484       79.420       77.657       43.905     6307.474     6030.672     1927.616        2.448        0.713      186.264       38.967        0.044      351.041       32.650      860.296
08/14/2013  16:21:00     -253.678      -15.458      -22.472      110.794       97.334       49.144    12275.244     9473.873     2415.086        4.463        1.208      254.149       50.119        0.039      351.150       32.838      860.299
08/14/2013  16:22:00     -192.918       31.038       18.499      146.795       97.143       68.665    21548.858     9436.776     4714.850        3.711        1.785      195.399       64.031        0.107      351.098       32.750      860.285
08/14/2013  16:23:00      -97.448      -17.261        4.919      134.501      109.631       53.867    18090.425    12018.933     2901.629        2.141        1.651       98.965       64.900        0.430      351.224       32.969      860.286
08/14/2013  16:24:00      -80.068       29.881        1.826       95.790       44.741       53.492     9175.645     2001.773     2861.423        1.067        0.702       85.462       55.129        0.416      351.069       32.701      860.269
08/14/2013  16:25:00     -189.158       80.014      -21.646      103.623       95.690       56.652    10737.693     9156.573     3209.439        3.287        1.155      205.385       57.417        0.078      350.914       32.430      860.251
08/14/2013  16:26:00      -38.268      -36.492        6.934       81.730      106.823       49.385     6679.761    11411.143     2438.868        1.168        1.026       52.878       29.201        0.305      350.783       32.202      860.228
08/14/2013  16:27:00     -176.400      -72.318       10.133      153.348       81.831       60.058    23515.695     6696.388     3606.940        3.513        1.691      190.649       73.253        0.148      350.964       32.515      860.221
08/14/2013  16:28:00     -350.681       -3.843       -4.673      301.319      151.924       76.344    90793.369    23081.033     5828.475       12.134        5.985      350.702      119.992        0.117      350.929       32.455      860.187
08/14/2013  16:29:00     -510.769     -282.221      -10.593      189.363      133.499       90.408    35858.414    17822.099     8173.540       20.124        3.093      583.553       99.940        0.029      350.819       32.263      860.165
08/14/2013  16:30:00     -278.809     -154.340        6.559      177.197      147.534       77.587    31398.612    21766.214     6019.820        8.038        2.959      318.678       78.450        0.061      350.767       32.172      860.226
08/14/2013  16:31:00     -266.113      -95.940       -5.302      126.162       99.143       63.909    15916.839     9829.350     4084.300        5.493        1.492      282.879       67.658        0.057      350.940       32.475      860.225
08/14/2013  16:32:00     -262.223      -72.230        9.232      139.192      147.501       75.112    19374.499    21756.486     5641.873        6.041        2.339      271.989       71.856        0.070      350.941       32.474      860.217
08/14/2013  16:33:00     -216.514     -132.224       19.612      173.982      151.579       75.516    30269.626    22976.256     5702.722        6.184        2.947      253.696       89.021        0.123      351.003       32.584      860.218
08/14/2013  16:34:00     -302.125     -168.364       -8.709      203.424      148.215       70.295    41381.479    21967.619     4941.420        9.398        3.415      345.870       89.653        0.067      350.870       32.351      860.227
08/14/2013  16:35:00     -482.475     -248.436      -22.003      198.992      144.173       81.654    39597.632    20785.812     6667.331       18.101        3.353      542.681       80.846        0.022      350.603       31.886      860.221
08/14/2013  16:36:00     -311.266     -174.938       -7.359      158.806      111.687       63.126    25219.473    12473.960     3984.900        8.460        2.084      357.057       60.144        0.028      350.702       32.058      860.229
08/14/2013  16:37:00     -332.266     -239.927       -8.237      194.513      136.805       77.768    37835.179    18715.721     6047.834       11.531        3.130      409.836       85.748        0.044      350.676       32.015      860.236
08/14/2013  16:38:00     -324.621     -125.544      -10.013      135.420      137.342       69.577    18338.637    18862.764     4840.923        8.163        2.102      348.052       62.173        0.032      350.753       32.148      860.220
08/14/2013  16:39:00     -199.794     -166.891        1.046      109.125      118.206       63.537    11908.373    13972.754     4036.954        4.884        1.496      260.327       62.433        0.058      350.804       32.238      860.224
08/14/2013  16:40:00     -451.164     -111.777      -17.296      173.620      132.857       80.179    30143.863    17650.872     6428.624       13.527        2.711      464.805       81.515        0.031      350.795       32.220      860.215
08/14/2013  16:41:00     -484.192     -103.988       -7.954      200.996      158.642       75.281    40399.460    25167.147     5667.225       15.826        3.562      495.233       68.921        0.019      350.578       31.843      860.185
08/14/2013  16:42:00     -377.886     -110.061      -15.224      227.708      151.718      103.977    51850.716    23018.210    10811.180       12.040        4.284      393.588      126.267        0.103      350.813       32.252      860.173
08/14/2013  16:43:00     -265.492       -1.327       19.453      190.433      107.924       85.604    36264.832    11647.535     7328.068        6.304        2.762      265.495       98.324        0.137      350.719       32.089      860.195
08/14/2013  16:44:00     -147.146     -201.099       -3.964      140.286      115.654       67.424    19680.052    13375.808     4545.967        4.985        1.880      249.184       68.945        0.077      350.826       32.277      860.160
08/14/2013  16:45:00     -271.449     -130.412      -38.600      114.691      117.930       56.469    13153.952    13907.450     3188.785        6.121        1.513      301.151       51.624        0.029      350.848       32.314      860.146
08/14/2013  16:46:00     -364.042     -115.916      -10.713      215.843      137.133       84.969    46588.005    18805.396     7219.801       10.933        3.631      382.051      106.129        0.077      350.916       32.432      860.151
08/14/2013  16:47:00     -241.993     -139.002       16.429      168.911      136.467       75.659    28530.824    18623.157     5724.236        6.551        2.644      279.074       80.287        0.083      350.893       32.391      860.185
08/14/2013  16:48:00     -298.702     -260.496      -15.065      197.922      140.058       98.141    39173.198    19616.142     9631.713       11.285        3.421      396.334      103.731        0.069      350.653       31.972      860.155
08/14/2013  16:49:00     -255.633     -109.186      -23.092      155.688      142.851       73.991    24238.881    20406.397     5474.728        6.395        2.506      277.975       67.702        0.059      350.766       32.170      860.168
08/14/2013  16:50:00     -438.766     -142.048       -3.782      250.229      214.934      101.473    62614.356    46196.763    10296.785       16.589        5.955      461.187      122.803        0.071      350.723       32.095      860.164
08/14/2013  16:51:00     -274.148     -227.968      -11.134      189.399      175.549      104.184    35872.052    30817.297    10854.248       10.238        3.877      356.548      101.715        0.081      350.627       31.926      860.162
08/14/2013  16:52:00     -455.927     -215.626      -14.794      213.239      130.610       71.151    45470.770    17058.859     5062.494       16.108        3.380      504.345       87.436        0.030      350.495       31.697      860.143
08/14/2013  16:53:00     -335.285     -189.964        2.007      209.298      188.590       92.643    43805.844    35566.209     8582.683       11.822        4.398      385.360       83.085        0.046      350.649       31.967      860.157
08/14/2013  16:54:00     -468.963      -81.170      -36.582      198.938      152.923       79.621    39576.317    23385.507     6339.442       14.857        3.465      475.936       81.640        0.029      350.540       31.777      860.158
08/14/2013  16:55:00     -459.850     -107.688      -34.444      182.217      128.702       67.530    33203.018    16564.272     4560.277       13.928        2.716      472.291       77.521        0.027      350.631       31.935      860.148
08/14/2013  16:56:00     -210.872     -124.595       13.420      164.428      151.635       73.934    27036.549    22993.167     5466.215        5.782        2.775      244.931       87.037        0.126      350.811       32.250      860.149
08/14/2013  16:57:00     -123.348      -56.100        9.355       95.035      105.780       55.600     9031.699    11189.368     3091.344        2.088        1.166      135.506       46.529        0.118      350.909       32.419      860.156
08/14/2013  16:58:00     -135.441      -65.114        7.086      106.419      104.652       56.817    11325.038    10951.988     3228.188        2.407        1.275      150.280       55.666        0.137      351.004       32.586      860.158
08/14/2013  16:59:00     -349.789      -59.709        4.358      287.686      180.205      101.014    82762.975    32473.819    10203.887       12.567        6.272      354.848      136.991        0.149      350.720       32.092      860.159
08/14/2013  17:00:00     -437.125     -169.838      -14.459      224.787      198.719       92.919    50529.107    39489.355     8634.032       15.938        4.933      468.960      101.915        0.047      350.698       32.052      860.138
08/14/2013  17:01:00     -368.310      -38.494      -17.866      228.809      138.146       72.208    52353.367    19084.296     5213.995       10.704        3.833      370.316       85.449        0.053      350.638       31.947      860.133
08/14/2013  17:02:00     -521.185       59.661      -45.772      215.024      191.947       90.082    46235.283    36843.651     8114.852       18.423        4.560      524.589       90.850        0.030      350.576       31.838      860.103
08/14/2013  17:03:00     -412.340     -107.107      -11.549      255.988      195.545      106.112    65529.990    38237.719    11259.862       14.831        5.751      426.023      136.209        0.102      350.649       31.967      860.089
08/14/2013  17:04:00     -291.064     -127.278       -7.141      161.659      116.212       69.897    26133.747    13505.208     4885.549        7.274        2.226      317.676       73.345        0.053      350.628       31.929      860.108
08/14/2013  17:05:00     -231.127     -154.623        9.498      161.509      155.096       82.489    26085.293    24054.827     6804.457        6.717        2.847      278.079       77.992        0.079      350.607       31.893      860.098
08/14/2013  17:06:00     -281.844     -135.802       12.126      194.048      159.784       95.800    37654.762    25530.816     9177.573        8.518        3.618      312.855      103.162        0.109      350.534       31.766      860.083
08/14/2013  17:07:00     -376.281     -135.685       -3.077      183.281      123.045       73.600    33591.929    15140.110     5416.912       10.707        2.707      399.998       75.346        0.035      350.568       31.826      860.093
08/14/2013  17:08:00     -342.917     -244.849       -9.832      186.184      147.573       99.049    34664.467    21777.896     9810.721       12.194        3.313      421.359       93.194        0.049      350.568       31.826      860.091
08/14/2013  17:09:00     -521.573     -218.445      -12.709      222.492      135.809       88.116    49502.630    18444.123     7764.346       19.780        3.786      565.470       99.386        0.031      350.420       31.567      860.076
08/14/2013  17:10:00     -325.703     -213.923      -18.918      188.411      142.639       82.814    35498.699    20345.842     6858.194       10.744        3.135      389.674       87.118        0.050      350.383       31.504      860.040
08/14/2013  17:11:00     -348.246     -236.761       -9.258      233.738      161.006       94.601    54633.463    25922.882     8949.271       13.345        4.475      421.107      117.455        0.078      350.496       31.700      860.014
08/14/2013  17:12:00     -269.367     -163.504        0.442      192.143      118.543       72.763    36919.027    14052.485     5294.503        7.777        2.813      315.107       80.502        0.065      350.611       31.900      860.036
08/14/2013  17:13:00     -374.468     -237.860      -11.822      189.523      125.912       85.182    35918.937    15853.723     7255.994       12.798        2.951      443.626       88.332        0.040      350.525       31.751      860.025
08/14/2013  17:14:00     -305.148     -169.212       -7.589      173.025      158.270       73.027    29937.699    25049.522     5333.007        9.105        3.016      348.924       80.816        0.054      350.510       31.725      860.064
08/14/2013  17:15:00     -258.907     -161.207       10.508      188.061      182.437       99.025    35366.991    33283.213     9805.866        8.578        3.923      304.993      109.168        0.128      350.551       31.795      860.041
08/14/2013  17:16:00     -363.654     -319.693      -14.309      190.196      204.976      105.447    36174.493    42015.301    11119.134       16.197        4.465      484.198      114.475        0.056      350.390       31.518      860.012
08/14/2013  17:17:00     -293.961     -125.112       13.018      196.983      170.624       88.128    38802.221    29112.621     7766.556        8.895        3.784      319.478      106.542        0.111      350.440       31.603      860.060
08/14/2013  17:18:00     -328.817     -218.529        5.140      241.446      160.911      114.179    58296.018    25892.390    13036.808       12.655        4.861      394.811      126.693        0.103      350.425       31.578      860.037
08/14/2013  17:19:00     -219.172     -138.025        6.509      137.681      118.087       58.335    18956.114    13944.636     3402.952        5.171        1.815      259.012       58.225        0.051      350.486       31.681      860.061
08/14/2013  17:20:00     -480.035     -148.367      -23.855      175.141      156.743       86.796    30674.365    24568.357     7533.608       15.789        3.139      502.440       90.486        0.032      350.391       31.515      860.066
08/14/2013  17:21:00     -223.672      -32.500       13.853      210.214      105.473       82.283    44190.027    11124.593     6770.508        5.667        3.104      226.021       98.980        0.192      350.484       31.681      860.060
08/14/2013  17:22:00     -216.039        7.178       -0.691      133.226       89.759       47.409    17749.080     8056.759     2247.639        3.738        1.403      216.159       58.700        0.074      350.612       31.903      860.074
08/14/2013  17:23:00     -311.107        6.434       -6.753      168.206      126.407       67.192    28293.190    15978.622     4514.723        7.282        2.439      311.173       77.926        0.063      350.546       31.789      860.057
08/14/2013  17:24:00     -220.324      -26.070      -10.845      169.864       92.282       61.104    28853.942     8515.892     3733.721        4.521        2.055      221.861       77.280        0.121      350.523       31.747      860.030
08/14/2013  17:25:00     -224.895     -135.535       -1.506      154.974      131.024       74.435    24016.820    17167.321     5540.630        5.783        2.336      262.579       82.445        0.099      350.535       31.768      860.028
08/14/2013  17:26:00     -258.816     -125.424       -1.762      164.605      182.191       82.988    27094.939    33193.392     6886.959        7.494        3.359      287.605       75.731        0.069      350.620       31.916      860.037
08/14/2013  17:27:00     -461.092     -198.619      -23.251      202.193      152.700       76.054    40882.183    23317.392     5784.285       16.128        3.499      502.051       79.371        0.025      350.381       31.501      860.022
08/14/2013  17:28:00     -429.116     -119.003       -6.371      222.872      142.240       82.331    49672.105    20232.345     6778.319       13.750        3.834      445.311       91.985        0.043      350.461       31.639      860.020
08/14/2013  17:29:00     -329.641     -228.308        0.126      194.561      151.422       92.716    37853.891    22928.742     8596.229       11.507        3.469      400.983      102.887        0.066      350.299       31.357      860.027
08/14/2013  17:30:00     -300.138      -71.824      -19.501      155.356      129.007       66.205    24135.616    16642.860     4383.104        7.038        2.258      308.612       60.146        0.038      350.430       31.586      860.062
08/14/2013  17:31:00     -347.138      -57.000      -21.718      163.826      165.496       65.623    26838.807    27388.944     4306.423        9.137        2.927      351.786       71.034        0.041      350.477       31.669      860.057
08/14/2013  17:32:00     -372.153      -45.869      -16.490      214.200      205.414       90.590    45881.779    42194.736     8206.564       11.856        4.814      374.970      101.391        0.073      350.489       31.687      860.046
08/14/2013  17:33:00     -461.627      -82.937      -17.824      195.402      168.366       86.388    38181.843    28347.146     7462.900       14.713        3.700      469.019       90.308        0.037      350.425       31.576      860.034
08/14/2013  17:34:00     -476.020     -116.594      -11.564      201.089      186.589       83.812    40436.730    34815.505     7024.400       16.129        4.114      490.091      100.462        0.042      350.186       31.163      860.044
08/14/2013  17:35:00     -598.206     -172.836      -39.140      265.498      156.238       91.342    70489.394    24410.426     8343.310       24.623        5.162      622.674      117.072        0.035      350.244       31.262      860.068
08/14/2013  17:36:00     -529.396     -211.192      -19.564      224.649      129.015       83.041    50467.151    16644.894     6895.889       19.961        3.700      569.967       92.231        0.026      350.257       31.284      860.063
08/14/2013  17:37:00     -464.211      -57.642      -28.257      150.305      139.466       69.448    22591.726    19450.719     4823.069       13.323        2.343      467.776       81.756        0.031      350.244       31.261      860.079
08/14/2013  17:38:00     -443.046      -58.872      -27.562      203.481      112.467       73.041    41404.475    12648.919     5335.027       12.994        2.969      446.941       84.738        0.036      350.365       31.472      860.066
08/14/2013  17:39:00     -660.609     -112.599      -36.923      260.753      161.903      105.585    67992.187    26212.525    11148.112       27.788        5.268      670.137      128.152        0.037      350.100       31.011      860.038
08/14/2013  17:40:00     -392.268     -126.192       -7.163      203.946      167.513      104.332    41593.860    28060.666    10885.247       12.518        4.027      412.067      104.440        0.064      350.171       31.133      860.059
08/14/2013  17:41:00     -418.922       -8.022      -24.319      251.436      182.686       93.029    63220.087    33374.067     8654.467       14.068        5.262      418.999      105.866        0.064      350.278       31.322      860.043
08/14/2013  17:42:00     -457.815      -63.850      -35.605      188.643      166.608       65.794    35586.330    27758.086     4328.893       14.129        3.384      462.246       69.237        0.022      350.321       31.395      860.032
08/14/2013  17:43:00     -495.369     -159.322      -12.930      199.757      167.750       98.820    39902.854    28140.049     9765.301       17.436        3.890      520.360      104.241        0.040      350.205       31.194      859.999
08/14/2013  17:44:00     -372.702     -107.287       -9.264      186.054      151.998       85.074    34615.958    23103.442     7237.612       10.772        3.248      387.837       78.515        0.041      350.244       31.261      860.007
08/14/2013  17:45:00     -299.986       -5.872        6.751      172.620      162.653       82.194    29797.589    26456.017     6755.911        7.653        3.150      300.044       78.967        0.069      350.264       31.296      860.019
08/14/2013  17:46:00     -204.184      -45.463       -3.014      105.700       80.974       60.165    11172.588     6556.724     3619.787        3.255        1.067      209.184       62.285        0.089      350.376       31.494      860.016
08/14/2013  17:47:00     -261.509     -158.033      -12.161      157.635       97.824       59.505    24848.747     9569.455     3540.846        6.573        1.898      305.551       58.698        0.037      350.332       31.416      860.006
08/14/2013  17:48:00     -220.481      -95.739       -7.587      140.541      128.266       70.075    19751.900    16452.124     4910.505        4.947        2.056      240.370       67.777        0.080      350.421       31.572      860.017
08/14/2013  17:49:00     -201.404      -83.064        6.056      211.194      194.025       85.999    44602.959    37645.794     7395.768        6.856        4.482      217.861       98.500        0.204      350.354       31.453      860.012
08/14/2013  17:50:00     -459.096     -114.772      -27.148      217.576      187.062       88.397    47339.437    34992.231     7814.058       15.740        4.507      473.225       97.703        0.043      350.128       31.060      859.998
08/14/2013  17:51:00     -357.868     -133.795       -5.574      174.439      125.168       81.227    30428.955    15667.009     6597.877        9.934        2.635      382.061       85.812        0.050      350.160       31.116      859.999
08/14/2013  17:52:00     -189.668      -26.979       13.591      171.319      142.204       78.244    29350.092    20221.936     6122.152        4.628        2.785      191.578       78.217        0.167      350.208       31.200      859.990
08/14/2013  17:53:00     -396.482     -129.117      -15.274      176.046      157.904       83.587    30992.151    24933.704     6986.728       11.850        3.146      416.976       93.177        0.050      350.196       31.178      859.993
08/14/2013  17:54:00     -446.766      -38.431      -19.158      155.000      153.546       75.006    24025.087    23576.301     5625.891       12.733        2.661      448.416       69.878        0.024      350.227       31.232      859.997
08/14/2013  17:55:00     -531.933     -159.194      -24.650      211.733      159.397       86.928    44831.010    25407.314     7556.465       19.334        3.890      555.244       79.505        0.021      350.091       30.996      859.979
08/14/2013  17:56:00     -453.095     -121.911       -9.942      179.264      151.695       82.347    32135.407    23011.486     6780.963       14.108        3.096      469.210       92.814        0.039      350.142       31.083      859.969
08/14/2013  17:57:00     -389.376     -283.922      -15.920      178.791      167.338       87.437    31966.164    28001.909     7645.175       15.004        3.381      481.898       86.562        0.032      350.125       31.054      859.978
08/14/2013  17:58:00     -372.359     -129.601        6.842      247.525      174.959      104.134    61268.483    30610.803    10843.938       12.909        5.136      394.269      115.824        0.086      350.089       30.992      859.992
08/14/2013  17:59:00     -523.019      -91.431      -19.074      242.530      204.482      103.233    58820.608    41812.999    10657.041       19.676        5.565      530.951      113.065        0.045      349.979       30.802      859.975
08/14/2013  18:00:00     -458.251      -83.964      -36.456      183.778      173.640       92.029    33774.410    30150.863     8469.247       14.537        3.620      465.879       89.923        0.037      349.994       30.828      859.961
08/14/2013  18:01:00     -597.752      -40.471      -36.365      243.762      212.132      106.407    59419.911    44999.885    11322.443       23.799        5.787      599.120      113.817        0.036      349.970       30.786      859.956
08/14/2013  18:02:00     -519.468     -163.012       -2.600      257.634      165.801       95.340    66375.336    27490.128     9089.753       19.967        5.148      544.444      106.313        0.038      349.926       30.708      859.978
08/14/2013  18:03:00     -452.898     -128.320       -0.578      177.888      155.823       85.453    31644.184    24280.738     7302.295       14.239        3.161      470.725       81.925        0.030      349.960       30.768      859.990
08/14/2013  18:04:00     -459.561     -123.680       -7.328      184.370      201.460       87.641    33992.437    40586.129     7680.941       15.439        4.113      475.913       91.675        0.037      350.016       30.865      859.987
08/14/2013  18:05:00     -238.255      -51.572       11.684      169.959      128.982       91.836    28886.131    16636.342     8433.917        5.675        2.698      243.773       95.097        0.152      350.065       30.952      859.998
08/14/2013  18:06:00     -393.288      -38.804      -13.633      174.977      157.454       75.654    30617.077    24791.662     5723.594       10.874        3.057      395.198       81.991        0.043      349.944       30.741      859.996
08/14/2013  18:07:00     -367.396      -92.220       -2.373      283.718      155.201      105.908    80495.943    24087.333    11216.528       12.963        5.790      378.793      120.574        0.101      349.907       30.676      859.961
08/14/2013  18:08:00     -556.402      -38.456      -36.292      280.119      161.473       96.994    78466.425    26073.407     9407.803       21.314        5.697      557.729      114.792        0.042      349.892       30.650      859.960
08/14/2013  18:09:00     -451.278      -93.760      -12.102      216.737      189.215       94.105    46975.133    35802.133     8855.780       15.210        4.582      460.915      103.858        0.051      349.910       30.683      859.957
08/14/2013  18:10:00     -354.936      -93.831      -21.995      151.926      108.098       76.471    23081.649    11685.138     5847.817        8.793        2.031      367.129       73.169        0.040      349.970       30.785      859.965
08/14/2013  18:11:00     -464.986     -114.188       -8.264      248.445      171.927       94.165    61724.983    29558.749     8867.127       16.472        5.008      478.801      109.617        0.052      349.844       30.567      859.969
08/14/2013  18:12:00     -338.004      -44.145      -37.106      192.447      127.041       79.659    37035.831    16139.422     6345.618        8.854        2.976      340.875       88.705        0.068      349.905       30.675      859.955
08/14/2013  18:13:00     -527.923      -61.932      -31.537      188.914      178.901       85.048    35688.407    32005.521     7233.176       17.922        3.746      531.543       83.127        0.024      349.860       30.595      859.962
08/14/2013  18:14:00     -409.584      -37.676      -13.652      213.787      123.171       86.030    45704.869    15170.987     7401.179       11.881        3.414      411.314      108.645        0.070      349.880       30.629      859.976
08/14/2013  18:15:00     -420.590      -79.468      -23.868      147.382      132.234       66.865    21721.428    17485.947     4470.936       11.372        2.184      428.031       69.706        0.027      349.885       30.639      859.973
08/14/2013  18:16:00     -146.746     -107.534       23.629      148.375      120.185       65.767    22015.121    14444.443     4325.303        3.721        2.039      181.928       71.411        0.154      349.916       30.692      859.972
08/14/2013  18:17:00     -447.772       -1.457      -36.764      172.259      108.126       80.093    29673.285    11691.276     6414.817       12.481        2.389      447.774       85.351        0.036      349.853       30.583      859.970
08/14/2013  18:18:00     -383.126      -23.888      -12.582      175.160      112.661       72.569    30681.113    12692.562     5266.283        9.807        2.432      383.870       79.009        0.042      349.851       30.580      859.994
08/14/2013  18:19:00     -346.460     -101.760       13.883      210.568      155.702       94.756    44338.742    24243.179     8978.706       10.406        3.878      361.095       99.025        0.075      349.775       30.446      859.968
08/14/2013  18:20:00     -393.686     -255.177      -19.047      195.687      190.830       96.946    38293.446    36416.083     9398.433       15.227        4.205      469.152       99.374        0.045      349.716       30.343      859.965
08/14/2013  18:21:00     -275.103     -106.825        3.211      175.903      145.292       81.318    30942.023    21109.834     6612.614        7.287        2.933      295.115       84.407        0.082      349.729       30.366      859.962
08/14/2013  18:22:00     -261.207      -49.632        4.443      192.059      154.273       97.211    36886.843    23800.102     9449.886        7.041        3.507      265.881       98.231        0.136      349.743       30.392      859.973
08/14/2013  18:23:00     -354.807      -58.336        0.212      205.858      131.328       87.744    42377.484    17247.076     7698.925        9.830        3.366      359.571      102.518        0.081      349.704       30.323      859.976
08/14/2013  18:24:00     -329.923      -89.120        2.492      201.300      116.760       85.223    40521.649    13632.864     7262.906        8.910        3.071      341.748       93.114        0.074      349.719       30.348      859.949
08/14/2013  18:25:00     -239.790      -82.302       20.821      192.714      132.005       82.588    37138.720    17425.202     6820.809        6.304        3.069      253.521       92.717        0.134      349.705       30.326      859.959
08/14/2013  18:26:00     -189.267     -189.690       30.053      189.061      157.280       98.618    35744.183    24736.874     9725.422        7.145        3.510      267.964      116.242        0.188      349.661       30.249      859.940
08/14/2013  18:27:00     -385.435     -173.097      -11.723      179.223      133.150       80.750    32120.953    17728.939     6520.583       11.751        2.819      422.519       86.320        0.042      349.604       30.150      859.961
08/14/2013  18:28:00     -234.774     -178.261       19.820      228.698      182.488       98.790    52302.631    33301.805     9759.393        9.131        4.768      294.781      113.876        0.149      349.673       30.269      859.966
08/14/2013  18:29:00     -455.714     -143.335      -18.932      201.810      235.918       97.125    40727.181    55657.239     9433.314       16.718        5.291      477.724       99.818        0.044      349.611       30.164      859.960
08/14/2013  18:30:00     -412.769      -58.310       -3.455      227.566      136.875       90.839    51786.289    18734.817     8251.713       12.627        3.939      416.867       98.000        0.055      349.626       30.187      859.949
08/14/2013  18:31:00     -310.479      -84.186        5.601      149.694      142.125       75.259    22408.422    20199.525     5663.850        7.589        2.414      321.690       82.389        0.066      349.633       30.201      859.963
08/14/2013  18:32:00     -231.825      -66.799        0.102      155.736      101.674       78.373    24253.742    10337.645     6142.327        4.946        2.037      241.257       83.778        0.121      349.668       30.261      859.987
08/14/2013  18:33:00     -257.315     -154.177        2.600      160.092      103.935       77.320    25629.387    10802.558     5978.436        6.619        2.121      299.969       90.692        0.091      349.618       30.175      859.989
08/14/2013  18:34:00     -262.743      -82.781      -15.784      132.081      113.869       57.764    17445.422    12966.099     3336.637        5.494        1.687      275.475       57.231        0.043      349.621       30.181      859.979
08/14/2013  18:35:00     -420.506     -122.486       -4.840      216.020      161.620       82.254    46664.554    26121.045     6765.748       13.569        3.978      437.982       85.533        0.038      349.578       30.105      859.985
08/14/2013  18:36:00     -352.276     -224.230        6.854      226.081      199.106      106.262    51112.462    39643.216    11291.639       13.822        5.102      417.585      126.861        0.092      349.513       29.994      859.979
08/14/2013  18:37:00     -312.404     -196.478      -12.533      239.378      163.489      102.905    57301.769    26728.598    10589.520       11.547        4.731      369.052      112.211        0.092      349.503       29.974      859.986
08/14/2013  18:38:00     -238.325     -204.360        6.206      179.857      144.329       94.664    32348.518    20830.899     8961.199        8.036        3.107      313.946       95.769        0.093      349.503       29.976      860.009
08/14/2013  18:39:00     -344.073     -209.307        2.822      163.722      129.476       82.294    26804.746    16764.085     6772.322       10.626        2.517      402.735       87.224        0.047      349.518       30.003      860.024
08/14/2013  18:40:00     -254.606     -183.469        7.563      168.728      148.301       82.696    28468.996    21993.153     6838.711        7.791        2.865      313.824       93.070        0.088      349.522       30.009      860.029
08/14/2013  18:41:00     -289.709      -76.397       -3.970      125.352       82.543       55.652    15713.152     6813.366     3097.175        5.770        1.281      299.613       58.344        0.038      349.546       30.049      860.035
08/14/2013  18:42:00     -242.706     -105.956       -1.057      144.644      111.313       66.131    20922.007    12390.528     4373.344        5.390        1.884      264.826       66.011        0.062      349.518       30.002      860.030
08/14/2013  18:43:00     -259.673      -69.317       -4.747      193.946      104.921       60.164    37615.098    11008.506     3619.765        6.224        2.612      268.766       73.590        0.075      349.529       30.020      860.007
08/14/2013  18:44:00     -472.419      -90.288      -32.829      179.707      160.731       86.428    32294.506    25834.477     7469.863       14.899        3.280      480.969       95.337        0.039      349.481       29.936      859.982
08/14/2013  18:45:00     -461.308     -228.410       -8.886      224.334      221.937      103.303    50325.707    49256.194    10671.424       18.764        5.513      514.759      110.479        0.046      349.459       29.899      859.989
08/14/2013  18:46:00     -366.479     -161.988        9.711      179.416      210.873      105.692    32190.125    44467.351    11170.840       12.422        4.391      400.683      101.542        0.064      349.399       29.794      859.979
08/14/2013  18:47:00     -432.666      -68.724        2.004      288.493      172.675       87.788    83228.093    29816.519     7706.766       15.632        6.038      438.090      100.245        0.052      349.408       29.810      859.979
08/14/2013  18:48:00     -372.732     -197.830      -19.559      256.550      173.791       98.600    65818.017    30203.286     9722.057       14.208        5.287      421.978      117.209        0.077      349.400       29.797      859.969
08/14/2013  18:49:00     -381.894     -101.937       -9.263      236.430      161.321       96.126    55899.179    26024.513     9240.219       12.373        4.558      395.265      115.115        0.085      349.392       29.784      859.966
08/14/2013  18:50:00     -409.924     -215.762        0.198      209.217      209.138       98.688    43771.930    43738.730     9739.283       15.590        4.862      463.240      106.739        0.053      349.357       29.721      859.997
08/14/2013  18:51:00     -320.402     -171.866      -14.932      252.376      157.375      106.457    63693.579    24766.918    11333.150       11.609        4.990      363.587      133.648        0.135      349.329       29.672      859.990
08/14/2013  18:52:00     -243.440     -182.617       -1.319      205.136      140.833       94.831    42080.651    19833.873     8992.946        8.175        3.545      304.322       92.766        0.093      349.317       29.653      859.979
08/14/2013  18:53:00     -376.295      -52.414       10.350      224.812      154.170       83.747    50540.445    23768.273     7013.578       11.287        4.066      379.928       99.036        0.068      349.317       29.652      859.977
08/14/2013  18:54:00     -413.838      -96.375      -11.543      290.113      187.066       91.832    84165.297    34993.874     8433.044       15.412        6.380      424.912      109.406        0.066      349.303       29.628      859.957
08/14/2013  18:55:00     -415.605     -148.544       -2.671      209.671      168.946       84.983    43961.761    28542.904     7222.026       13.725        3.986      441.353       88.271        0.040      349.278       29.585      860.012
08/14/2013  18:56:00     -343.753      -27.463       -0.845      205.539      114.759       87.088    42246.255    13169.531     7584.244        9.095        3.150      344.848      101.713        0.087      349.285       29.598      859.993
08/14/2013  18:57:00     -230.226     -147.438       -2.707      238.220      129.672       78.135    56748.690    16814.859     6105.133        7.720        3.983      273.390      100.322        0.135      349.280       29.590      860.005
08/14/2013  18:58:00     -275.684     -131.822        6.744      173.795      153.789       94.763    30204.669    23650.980     8980.023        7.812        3.142      305.579       95.294        0.097      349.221       29.485      860.019
08/14/2013  18:59:00     -425.394      -54.145      -31.859      281.092      150.014       88.884    79012.928    22504.143     7900.391       14.714        5.471      428.826      124.814        0.085      349.202       29.455      860.031
08/14/2013  19:00:00     -321.385      -42.444        9.367      176.921      150.179       83.043    31300.895    22553.597     6896.116        8.295        3.038      324.175       97.694        0.091      349.223       29.490      860.033
08/14/2013  19:01:00     -331.107     -191.574       -4.303      181.924      147.400       87.867    33096.295    21726.661     7720.640       10.444        3.127      382.534      102.495        0.072      349.172       29.402      860.047
08/14/2013  19:02:00     -334.787     -104.897       -6.399      182.292      133.222       75.694    33230.271    17748.091     5729.577        8.991        2.835      350.836       82.746        0.056      349.183       29.422      860.060
08/14/2013  19:03:00     -373.638     -166.414       -1.012      240.055      185.319      100.905    57626.341    34343.061    10181.748       13.471        5.108      409.022      102.497        0.063      349.137       29.340      860.042
08/14/2013  19:04:00     -480.190     -192.760       -7.186      239.485      194.580       86.322    57353.195    37861.341     7451.489       18.521        5.133      517.435       94.897        0.034      349.126       29.320      860.057
08/14/2013  19:05:00     -265.743      -88.815       -2.393      112.965      105.533       62.168    12761.191    11137.166     3864.825        5.313        1.388      280.192       64.532        0.053      349.132       29.330      860.089
08/14/2013  19:06:00     -409.073     -197.958        1.428      277.531      178.764       98.106    77023.439    31956.462     9624.853       16.255        5.930      454.453      116.407        0.066      349.072       29.228      860.100
08/14/2013  19:07:00     -431.554      -55.231       -3.113      289.983      166.860       94.185    84090.054    27842.164     8870.880       15.503        6.040      435.074      120.357        0.077      349.033       29.162      860.100
08/14/2013  19:08:00     -291.007      -41.036        5.279      206.879      129.658       72.885    42799.053    16811.128     5312.271        7.565        3.246      293.886       80.702        0.075      349.075       29.231      860.089
08/14/2013  19:09:00     -314.971      -74.342       -2.318      212.158      151.668       99.092    45010.956    23003.330     9819.274        9.127        3.892      323.626      101.565        0.098      349.055       29.197      860.084
08/14/2013  19:10:00     -467.561      -17.041      -15.302      209.574      159.356       83.547    43921.338    25394.399     6980.155       14.770        3.815      467.871       94.886        0.041      349.008       29.117      860.110
08/14/2013  19:11:00     -462.153     -112.865      -16.453      264.378      151.185      108.889    69895.528    22857.007    11856.881       16.558        5.230      475.736      136.335        0.082      349.011       29.123      860.107
08/14/2013  19:12:00     -502.001     -134.711      -11.600      291.191      199.297      102.843    84791.995    39719.331    10576.631       20.266        6.754      519.762      132.585        0.065      348.968       29.048      860.083
08/14/2013  19:13:00     -504.398     -222.631       -8.434      253.967      200.439       91.037    64499.170    40175.798     8287.705       20.849        5.648      551.345      124.502        0.051      348.960       29.036      860.094
08/14/2013  19:14:00     -539.592     -153.777      -39.241      200.644      176.535       84.834    40258.125    31164.753     7196.731       19.747        3.931      561.076       86.634        0.024      348.954       29.025      860.118
08/14/2013  19:15:00     -514.514     -105.809      -18.017      219.405      206.029      105.272    48138.346    42448.048    11082.144       18.894        5.083      525.281      106.379        0.041      348.937       28.996      860.123
08/14/2013  19:16:00     -374.473     -112.600       -0.045      252.867      184.675      107.692    63941.660    34104.972    11597.584       13.126        5.482      391.035      129.284        0.109      348.928       28.980      860.100
08/14/2013  19:17:00     -480.136     -186.011      -20.099      251.163      213.312      101.444    63082.720    45501.892    10290.866       19.219        5.944      514.909      113.186        0.048      348.903       28.936      860.117
08/14/2013  19:18:00     -366.082     -100.095      -12.492      266.061      176.616       92.356    70788.467    31193.228     8529.592       12.733        5.526      379.519      110.361        0.085      348.891       28.914      860.131
08/14/2013  19:19:00     -415.636     -135.431        8.651      285.256      225.178      118.219    81370.944    50705.200    13975.653       16.859        7.303      437.144      137.170        0.098      348.877       28.890      860.124
08/14/2013  19:20:00     -290.926     -124.740       -8.775      232.498      150.351       94.319    54055.313    22605.446     8896.107        9.290        4.278      316.540      119.424        0.142      348.857       28.856      860.138
08/14/2013  19:21:00     -413.678     -230.968      -21.293      261.527      218.342      122.001    68396.297    47673.031    14884.171       17.792        6.548      473.789      135.450        0.082      348.805       28.764      860.137
08/14/2013  19:22:00     -464.655     -181.225      -12.706      307.456      219.932      120.879    94529.273    48369.940    14611.826       20.318        7.876      498.745      142.501        0.082      348.806       28.765      860.151
08/14/2013  19:23:00     -441.530     -152.600       -9.385      199.173      216.854       97.161    39669.751    47025.805     9440.341       15.721        4.807      467.157       98.937        0.045      348.808       28.771      860.145
08/14/2013  19:24:00     -319.924     -174.684       -0.656      220.960      157.852      106.112    48823.203    24917.223    11259.652       10.892        4.250      364.508       98.080        0.072      348.779       28.721      860.195
08/14/2013  19:25:00     -375.269      -75.889       -2.907      210.066      165.336       94.065    44127.851    27335.991     8848.160       11.344        4.016      382.866       97.202        0.064      348.766       28.698      860.214
08/14/2013  19:26:00     -234.542      -87.206        0.785      192.594      144.392       95.536    37092.593    20848.927     9127.179        6.483        3.353      250.229      103.457        0.171      348.754       28.678      860.228
08/14/2013  19:27:00     -170.017      -72.629       24.235      176.703      120.349       67.767    31224.109    14483.897     4592.311        4.253        2.515      184.881       84.573        0.209      348.689       28.566      860.241
08/14/2013  19:28:00      -99.524      -36.560       20.972      124.851      128.621       76.225    15587.718    16543.341     5810.324        2.481        1.897      106.027       79.013        0.555      348.695       28.578      860.230
08/14/2013  19:29:00     -204.286      -76.600        6.819      201.727      151.094      100.620    40693.864    22829.295    10124.403        6.063        3.682      218.175      111.173        0.260      348.667       28.528      860.246
08/14/2013  19:30:00     -228.774       -4.491        1.928      134.727       93.696       63.920    18151.258     8778.978     4085.790        4.168        1.551      228.818       71.321        0.097      348.590       28.395      860.268
08/14/2013  19:31:00     -406.956     -115.289      -20.816      212.749      143.810       85.158    45262.008    20681.454     7251.844       12.625        3.660      422.971      107.287        0.064      348.649       28.495      860.272
08/14/2013  19:32:00     -407.967     -141.684      -12.431      238.034      164.464       96.416    56660.313    27048.570     9296.125       13.982        4.650      431.870      112.955        0.068      348.614       28.434      860.265
08/14/2013  19:33:00     -234.409     -114.264        7.414      218.012      139.025       80.502    47529.027    19327.889     6480.644        7.069        3.667      260.776      114.756        0.194      348.581       28.379      860.288
08/14/2013  19:34:00     -260.740     -108.654      -10.573      175.271      129.632       67.821    30719.863    16804.383     4599.715        6.600        2.606      282.473       68.785        0.059      348.577       28.373      860.270
08/14/2013  19:35:00     -275.333      -60.305        2.875      188.871      129.147       80.520    35672.308    16678.841     6483.470        6.913        2.942      281.860       93.321        0.110      348.529       28.288      860.283
08/14/2013  19:36:00     -350.720     -105.153       -4.125      154.287      136.808       79.859    23804.401    18716.483     6377.480        9.148        2.445      366.144       68.868        0.035      348.542       28.309      860.296
08/14/2013  19:37:00     -349.582      -50.467      -12.076      172.519      111.856       83.302    29762.941    12511.768     6939.149        8.705        2.461      353.206       86.815        0.060      348.524       28.279      860.295
08/14/2013  19:38:00     -282.902     -100.715       -0.705      253.563      182.993      102.854    64294.408    33486.359    10578.878        9.925        5.418      300.295      131.006        0.190      348.486       28.216      860.302
08/14/2013  19:39:00     -430.238      -54.463      -16.505      178.727      201.364       88.575    31943.434    40547.326     7845.553       13.433        4.017      433.672       67.433        0.024      348.492       28.224      860.318
08/14/2013  19:40:00     -334.771     -126.627       -6.323      171.683      154.866       91.206    29474.977    23983.605     8318.592        9.495        3.089      357.919       82.407        0.053      348.462       28.173      860.329
08/14/2013  19:41:00     -407.717     -157.397      -14.746      239.073      195.594       97.673    57156.111    38256.975     9540.080       14.807        5.248      437.043      106.101        0.059      348.458       28.165      860.365
08/14/2013  19:42:00     -273.969      -84.908        9.015      161.593      128.011       73.680    26112.307    16386.897     5428.702        6.513        2.396      286.824       89.108        0.097      348.428       28.113      860.359
08/14/2013  19:43:00     -202.508      -50.741        3.785      109.751       87.462       43.975    12045.335     7649.583     1933.823        3.261        1.081      208.768       45.962        0.048      348.382       28.036      860.383
08/14/2013  19:44:00     -326.906       58.387      -26.254      188.523      140.063       69.040    35540.815    19617.570     4766.562        8.544        2.996      332.079       63.257        0.036      348.335       27.953      860.411
08/14/2013  19:45:00     -268.153     -127.601       -8.900      139.564      147.576       67.851    19478.148    21778.633     4603.802        6.706        2.293      296.965       62.735        0.045      348.349       27.976      860.410
08/14/2013  19:46:00     -228.612      -14.800       -2.919      138.850      120.262       78.562    19279.269    14462.858     6171.996        4.620        1.996      229.091       87.705        0.147      348.314       27.916      860.445
08/14/2013  19:47:00     -371.695     -110.766      -11.172      208.042      176.367       81.665    43281.485    31105.192     6669.105       11.579        4.053      387.848       99.133        0.065      348.301       27.893      860.464
08/14/2013  19:48:00     -455.817     -102.980        4.278      227.170      160.440       79.447    51606.401    25740.864     6311.809       15.101        4.183      467.305       81.866        0.031      348.307       27.905      860.508
08/14/2013  19:49:00     -403.612     -104.145      -26.658      184.128      149.505       77.336    33902.974    22351.685     5980.905       11.834        3.112      416.832       89.008        0.046      348.283       27.861      860.524
08/14/2013  19:50:00     -294.550     -107.996       -4.946      199.290      119.269       74.811    39716.586    14225.172     5596.633        7.898        2.977      313.724       78.124        0.062      348.258       27.819      860.526
08/14/2013  19:51:00     -446.322      -81.450      -13.067      205.869      130.221       90.414    42382.141    16957.576     8174.731       13.675        3.376      453.693      111.353        0.060      348.235       27.779      860.569
08/14/2013  19:52:00     -340.177      -69.420      -18.642      146.661      147.904       75.737    21509.534    21875.591     5736.019        8.500        2.456      347.188       71.514        0.042      348.211       27.738      860.609
08/14/2013  19:53:00     -271.402      -29.772        3.832      171.333      123.374       71.444    29355.139    15221.071     5104.292        6.211        2.484      273.030       89.021        0.106      348.186       27.694      860.642
08/14/2013  19:54:00     -269.522      -49.912      -23.716      119.679      149.811       68.988    14322.961    22443.258     4759.380        5.860        2.076      274.104       76.987        0.079      348.159       27.648      860.699
08/14/2013  19:55:00     -162.559      -42.307       14.694      136.740      122.734       58.151    18697.722    15063.723     3381.519        3.278        1.857      167.975       65.358        0.151      348.075       27.506      860.722
08/14/2013  19:56:00     -316.675      -11.162      -16.313      142.236      102.245       65.954    20230.963    10453.947     4349.954        6.785        1.752      316.872       73.020        0.053      348.126       27.592      860.745
08/14/2013  19:57:00     -373.538       11.199      -28.024      168.273      111.767       70.904    28315.966    12491.910     5027.327        9.313        2.292      373.706       71.311        0.036      348.135       27.607      860.786
08/14/2013  19:58:00     -388.490      -18.094      -33.760      143.898       87.092       60.736    20706.620     7585.055     3688.888        9.218        1.599      388.911       60.265        0.024      348.147       27.628      860.813
08/14/2013  19:59:00     -150.175       26.223       -2.837       96.549       97.316       53.524     9321.624     9470.364     2864.785        2.245        1.083      152.448       45.401        0.089      348.095       27.539      860.820
08/14/2013  20:00:00     -428.285       19.976      -38.814      240.221      145.705       87.353    57706.175    21229.804     7630.535       13.594        4.328      428.751       99.525        0.054      348.139       27.614      860.859
08/14/2013  20:01:00     -335.860     -151.204       -1.358      163.791      108.861       67.726    26827.430    11850.810     4586.874        8.946        2.163      368.327       73.394        0.040      348.123       27.587      860.882
08/14/2013  20:02:00     -127.356        8.448       -3.312      131.065      133.995       60.474    17178.059    17954.781     3657.078        2.754        1.939      127.636       60.152        0.222      348.053       27.466      860.915
08/14/2013  20:03:00     -274.659      -29.286      -36.279      147.243       92.869       62.613    21680.356     8624.585     3920.382        5.591        1.711      276.216       57.955        0.044      348.082       27.515      860.932
08/14/2013  20:04:00     -274.327      -47.716      -12.341      124.526      120.851       59.336    15506.821    14604.922     3520.734        5.565        1.682      278.446       53.240        0.037      348.061       27.479      860.930
08/14/2013  20:05:00     -177.664      -52.744       -7.251      116.173      101.179       60.814    13496.078    10237.124     3698.319        3.091        1.372      185.328       43.554        0.055      348.048       27.457      860.949
08/14/2013  20:06:00     -246.299      -68.240       -4.378      142.872      122.701       67.396    20412.460    15055.590     4542.271        5.267        2.001      255.578       64.002        0.063      348.008       27.386      860.948
08/14/2013  20:07:00     -242.597      -25.756      -24.982      102.509       91.687       44.462    10508.099     8406.545     1976.876        4.051        1.045      243.960       34.504        0.020      347.993       27.362      860.990
08/14/2013  20:08:00     -202.142      -79.098        2.935      124.481      115.699       58.813    15495.508    13386.343     3458.998        3.973        1.617      217.067       55.595        0.066      347.926       27.246      860.980
08/14/2013  20:09:00     -314.168        2.246      -18.117      141.042       97.201       60.597    19892.934     9447.987     3672.053        6.602        1.651      314.176       68.487        0.048      347.958       27.301      860.999
08/14/2013  20:10:00     -247.367       10.310      -42.657       81.424      140.329       42.619     6629.853    19692.344     1816.381        4.562        1.407      247.582       34.192        0.019      347.947       27.283      861.004
08/14/2013  20:11:00     -384.178       19.967      -42.063      181.699      115.159       65.883    33014.665    13261.617     4340.544       10.018        2.531      384.696       71.504        0.035      347.940       27.269      861.011
08/14/2013  20:12:00     -305.894       28.614      -24.189      121.956      118.765       72.035    14873.291    14105.062     5189.003        6.457        1.708      307.230       58.491        0.036      347.933       27.258      861.010
08/14/2013  20:13:00     -259.844      -55.211      -16.783      149.552      105.681       72.670    22365.729    11168.489     5280.877        5.483        1.941      265.645       76.894        0.084      347.903       27.207      861.004
08/14/2013  20:14:00     -320.605       20.212      -26.350      180.423      146.945       77.361    32552.401    21592.940     5984.754        8.200        3.007      321.242       85.828        0.071      347.900       27.202      860.992
08/14/2013  20:15:00     -516.417       59.124      -25.950      209.222      160.982       83.095    43773.797    25915.048     6904.785       17.371        3.830      519.791       95.062        0.033      347.917       27.231      860.994
08/14/2013  20:16:00     -390.076      -98.058      -25.259      194.063      148.410       80.361    37660.528    22025.480     6457.820       11.427        3.307      402.212       63.017        0.025      347.889       27.180      860.981
08/14/2013  20:17:00     -403.117     -121.100      -20.466      126.306      126.512       74.723    15953.251    16005.371     5583.503       10.756        1.877      420.913       66.345        0.025      347.880       27.165      860.957
08/14/2013  20:18:00     -369.028      -95.691      -20.123      136.102      113.771       69.419    18523.740    12943.892     4818.954        9.101        1.814      381.233       65.605        0.030      347.824       27.069      860.946
08/14/2013  20:19:00     -330.144      -48.259      -12.585      190.255      123.775       74.335    36196.788    15320.277     5525.619        8.425        2.852      333.652       80.625        0.058      347.795       27.021      860.960
08/14/2013  20:20:00     -423.387      -67.137      -34.589      188.698      133.967       74.169    35606.895    17947.112     5501.029       12.200        2.953      428.677       77.364        0.033      347.797       27.023      860.954
08/14/2013  20:21:00     -341.789      -95.040      -18.349      140.027      151.748       75.536    19607.460    23027.603     5705.716        8.726        2.417      354.757       68.508        0.037      347.788       27.007      860.925
08/14/2013  20:22:00     -382.574     -143.194        4.580      200.113      145.114       86.188    40045.025    21058.082     7428.369       11.770        3.427      408.494       94.207        0.053      347.773       26.982      860.932
08/14/2013  20:23:00     -464.090      -83.356      -12.663      203.363      183.029       91.337    41356.441    33499.528     8342.390       15.283        4.160      471.517      102.289        0.047      347.774       26.982      860.929
08/14/2013  20:24:00     -415.867      -66.480      -12.819      140.595      172.030       80.348    19767.050    29594.234     6455.842       11.666        2.791      421.147       64.459        0.023      347.779       26.992      860.924
08/14/2013  20:25:00     -351.469      -97.278       -8.443      129.596      144.620       62.612    16794.998    20914.982     3920.314        8.734        2.082      364.682       67.575        0.034      347.750       26.942      860.872
08/14/2013  20:26:00     -406.606      -67.320      -31.356      186.362      120.023       77.831    34730.906    14405.477     6057.642       11.301        2.760      412.141       81.466        0.039      347.719       26.889      860.844
08/14/2013  20:27:00     -295.536      -33.337       10.306      240.094      166.194      111.246    57644.976    27620.491    12375.562        9.308        4.882      297.410      132.267        0.198      347.648       26.766      860.819
08/14/2013  20:28:00     -330.884      -78.783        1.406      212.675      179.452       85.761    45230.650    32202.914     7354.950       10.023        4.239      340.134       99.886        0.086      347.643       26.757      860.836
08/14/2013  20:29:00     -268.918      -41.009        2.104      163.709      119.203       66.810    26800.549    14209.244     4463.599        5.973        2.274      272.027       72.681        0.071      347.630       26.736      860.830
08/14/2013  20:30:00     -298.465     -110.362       -2.589      158.495      143.119       73.254    25120.568    20482.930     5366.221        7.611        2.548      318.215       78.754        0.061      347.587       26.660      860.832
08/14/2013  20:31:00     -411.763     -138.012      -15.734      146.619      157.760       75.043    21497.213    24888.298     5631.477       12.042        2.601      434.277       71.027        0.027      347.607       26.697      860.836
08/14/2013  20:32:00     -349.082      -72.683       -5.482      284.129      137.221       83.550    80729.188    18829.481     6980.662       11.684        5.327      356.569       98.189        0.076      347.587       26.662      860.824
08/14/2013  20:33:00     -278.614      -73.450      -18.290      240.903      117.800       70.314    58034.125    13876.864     4944.055        8.009        3.843      288.133       81.764        0.081      347.554       26.607      860.838
08/14/2013  20:34:00     -466.492     -125.121      -21.183      182.326      137.752       69.860    33242.840    18975.479     4880.417       14.540        2.855      482.980       81.437        0.028      347.546       26.591      860.828
08/14/2013  20:35:00     -529.672      -28.516      -26.319      256.438      211.236       89.674    65760.488    44620.487     8041.467       20.022        5.921      530.439      110.785        0.044      347.517       26.539      860.856
08/14/2013  20:36:00     -505.730      -90.081      -13.684      248.197      158.108      108.197    61601.720    24998.059    11706.536       18.117        4.915      513.690      131.959        0.066      347.534       26.570      860.874
08/14/2013  20:37:00     -398.784      -95.066       -0.158      174.710      158.890       83.738    30523.424    25245.978     7011.985       11.541        3.139      409.959       91.470        0.050      347.487       26.488      860.906
08/14/2013  20:38:00     -589.215      -96.014      -31.910      213.078      184.061       94.611    45402.289    33878.396     8951.148       22.281        4.412      596.987       98.580        0.027      347.515       26.538      860.918
08/14/2013  20:39:00     -555.184      -56.582      -22.868      221.838      147.516       88.256    49212.162    21761.045     7789.154       19.535        3.938      558.060       89.117        0.026      347.522       26.549      860.951
08/14/2013  20:40:00     -398.986      -41.184      -25.680      149.282      126.133       75.565    22285.104    15909.595     5710.001       10.272        2.195      401.106       71.311        0.032      347.471       26.461      860.983
08/14/2013  20:41:00     -314.622      -78.466        1.005      157.806      136.632       71.608    24902.663    18668.173     5127.771        7.691        2.435      324.259       74.157        0.052      347.402       26.340      861.008
08/14/2013  20:42:00     -275.776      -39.905       -5.361      182.637      146.765       71.133    33356.325    21539.886     5059.964        6.880        2.998      278.648       67.026        0.058      347.395       26.330      860.984
08/14/2013  20:43:00     -550.076      -56.221      -55.633      169.149      147.072       92.356    28611.423    21630.309     8529.591       18.380        2.939      552.942       86.334        0.024      347.418       26.370      860.972
08/14/2013  20:44:00     -530.878     -103.848      -11.744      223.123      206.002       94.240    49783.800    42437.027     8881.162       19.691        5.055      540.939       99.822        0.034      347.408       26.350      860.964
08/14/2013  20:45:00     -544.855      -95.483      -15.520      198.458      199.319      102.146    39385.760    39727.969    10433.812       19.787        4.477      553.159       99.563        0.032      347.407       26.350      861.025
08/14/2013  20:46:00     -414.091     -116.153      -13.993      189.346      166.376       79.672    35851.791    27680.875     6347.585       12.751        3.494      430.073       70.279        0.027      347.395       26.329      861.004
08/14/2013  20:47:00     -489.825      -27.294      -33.130      210.856      158.102       87.287    44460.392    24996.376     7619.027       15.941        3.854      490.585       93.089        0.036      347.367       26.281      861.024
08/14/2013  20:48:00     -441.674      -71.162      -21.325      269.371      168.416       92.904    72560.934    28364.116     8631.111       15.506        5.478      447.370      102.301        0.052      347.361       26.271      861.004
08/14/2013  20:49:00     -440.443        5.758       -1.978      219.656      187.710      103.511    48248.804    35234.961    10714.501       14.410        4.710      440.481      103.975        0.056      347.317       26.195      861.028
08/14/2013  20:50:00     -207.651      -24.252       23.135      168.505      125.127       76.936    28393.814    15656.726     5919.079        4.710        2.498      209.062       83.619        0.160      347.259       26.096      861.057
08/14/2013  20:51:00     -390.700      -83.065      -32.740      168.277      141.917       81.699    28316.982    20140.372     6674.717       10.787        2.757      399.432       71.081        0.032      347.335       26.225      861.029
08/14/2013  20:52:00     -420.236     -105.490      -21.428      184.666      137.136       83.287    34101.715    18806.213     6936.643       12.400        2.992      433.274       80.266        0.034      347.294       26.156      861.065
08/14/2013  20:53:00     -405.207     -110.254       -4.867      168.888      142.212       80.216    28523.093    20224.246     6434.671       11.577        2.759      419.939       74.922        0.032      347.264       26.103      861.073
08/14/2013  20:54:00     -490.125      -41.864      -31.295      191.034      172.541       77.689    36493.850    29770.504     6035.646       15.762        3.615      491.910       84.666        0.030      347.333       26.223      861.079
08/14/2013  20:55:00     -478.806     -126.553       -7.476      200.500      165.825       87.739    40200.327    27497.805     7698.152       16.035        3.770      495.249       95.991        0.038      347.315       26.192      861.063
08/14/2013  20:56:00     -411.570      -94.655       -1.029      232.874      176.447       89.058    54230.524    31133.523     7931.270       13.581        4.665      422.314      101.955        0.058      347.275       26.122      861.118
08/14/2013  20:57:00     -355.646      -56.328        0.509      186.594      138.086       82.850    34817.451    19067.809     6864.193        9.519        3.037      360.079       94.656        0.069      347.253       26.084      861.133
08/14/2013  20:58:00     -529.705      -96.472      -11.147      254.448      243.236      110.302    64744.028    59163.651    12166.538       21.302        6.804      538.418      120.345        0.050      347.344       26.241      861.132
08/14/2013  20:59:00     -381.137      -89.869      -16.776      269.825      142.566       97.875    72805.521    20325.135     9579.489       12.815        5.136      391.589      131.692        0.113      347.334       26.226      861.187
08/14/2013  21:00:00     -222.487     -186.185       25.336      201.125      179.802      116.190    40451.314    32328.665    13500.160        8.553        4.314      290.113      112.843        0.151      347.355       26.262      861.164
08/14/2013  21:01:00     -473.109     -105.468      -31.095      265.511      195.605       92.503    70495.883    38261.266     8556.858       17.660        5.866      484.722      109.750        0.051      347.341       26.237      861.162
08/14/2013  21:02:00     -258.811     -178.975       -0.169      186.093      147.276       83.942    34630.460    21690.305     7046.254        8.118        3.168      314.667       88.988        0.080      347.320       26.200      861.148
08/14/2013  21:03:00     -463.659     -167.568      -10.545      216.489      207.044       98.518    46867.271    42867.103     9705.739       17.129        4.972      493.010      109.148        0.049      347.284       26.138      861.142
08/14/2013  21:04:00     -462.329      -67.856      -11.351      201.396      162.801       98.952    40560.219    26504.112     9791.543       14.766        3.843      467.282       98.789        0.045      347.281       26.134      861.167
08/14/2013  21:05:00     -369.037     -125.641      -18.994      195.855      178.633       91.572    38359.268    31909.783     8385.475       11.548        3.933      389.838       93.629        0.058      347.278       26.127      861.201
08/14/2013  21:06:00     -564.986     -126.511      -22.052      237.963      155.613       89.741    56626.438    24215.494     8053.460       21.228        4.445      578.977       86.106        0.022      347.319       26.198      861.208
08/14/2013  21:07:00     -459.531     -172.277       -4.654      263.588      176.821       98.637    69478.826    31265.837     9729.177       17.565        5.524      490.763      119.546        0.059      347.282       26.134      861.238
08/14/2013  21:08:00     -465.180      -64.455      -33.167      131.047      115.853       73.395    17173.312    13421.898     5386.848       12.881        1.799      469.624       67.088        0.020      347.257       26.091      861.271
08/14/2013  21:09:00     -427.039      -82.446      -11.468      146.393      107.143       65.561    21431.054    11479.643     4298.262       11.324        1.860      434.925       65.461        0.023      347.233       26.048      861.284
08/14/2013  21:10:00     -198.588      -76.190       -1.813      146.951      106.816       54.805    21594.481    11409.586     3003.616        4.062        1.800      212.702       67.595        0.101      347.156       25.919      861.297
08/14/2013  21:11:00     -356.057     -106.370        2.937      249.136      160.063       85.076    62068.776    25620.126     7237.884       11.650        4.746      371.606       78.915        0.045      347.201       25.995      861.320
08/14/2013  21:12:00     -420.217        2.354       -2.581      225.319      162.722       83.957    50768.453    26478.458     7048.785       13.043        4.215      420.223       96.483        0.053      347.188       25.974      861.359
08/14/2013  21:13:00     -373.200      -59.489       -9.680      144.441      132.052       78.044    20863.109    17437.819     6090.820        9.364        2.220      377.912       86.686        0.053      347.243       26.067      861.381
08/14/2013  21:14:00     -303.160     -108.852      -13.244      171.653      107.900       76.804    29464.893    11642.479     5898.919        7.546        2.350      322.110       72.113        0.050      347.206       26.004      861.414
08/14/2013  21:15:00     -221.790      -87.274       11.222      133.737      128.825       71.879    17885.637    16595.760     5166.590        4.828        1.982      238.343       59.104        0.061      347.162       25.929      861.407
08/14/2013  21:16:00     -357.213     -131.705      -13.900      174.652      118.814       62.181    30503.406    14116.832     3866.511        9.681        2.424      380.720       53.711        0.020      347.172       25.946      861.433
08/14/2013  21:17:00     -293.334     -123.811       -0.054      127.254      117.426       67.832    16193.498    13788.881     4601.215        6.797        1.729      318.393       68.551        0.046      347.126       25.865      861.443
08/14/2013  21:18:00     -191.561      -33.703        3.299      160.429      113.922       64.801    25737.335    12978.272     4199.228        4.037        2.146      194.504       75.839        0.152      347.088       25.802      861.462
08/14/2013  21:19:00     -256.334     -102.698        1.587      170.885      144.910       87.500    29201.558    20998.869     7656.284        6.705        2.893      276.141       87.329        0.100      347.115       25.847      861.450
08/14/2013  21:20:00     -356.567      -94.345      -18.178      130.098      108.462       64.038    16925.479    11763.964     4100.924        8.458        1.640      368.837       48.239        0.017      347.101       25.822      861.452
08/14/2013  21:21:00     -408.319      -60.687      -19.794      184.590      149.969       77.402    34073.400    22490.835     5991.126       11.667        3.128      412.804       91.502        0.049      347.147       25.903      861.428
08/14/2013  21:22:00     -375.815      -12.436      -14.844      178.747      158.987       82.607    31950.349    25276.953     6823.904       10.282        3.203      376.021       77.797        0.043      347.092       25.807      861.443
08/14/2013  21:23:00     -478.510     -111.877      -23.434      180.910      201.354       91.551    32728.559    40543.284     8381.637       16.183        4.083      491.415       96.384        0.038      347.149       25.907      861.444
08/14/2013  21:24:00     -430.693      -62.945      -23.935      173.859      202.909       83.311    30226.810    41172.229     6940.767       13.417        3.917      435.268       83.786        0.037      347.118       25.853      861.451
08/14/2013  21:25:00     -525.467      -54.529      -31.863      213.594      136.667       82.128    45622.226    18677.744     6744.974       17.556        3.552      528.288       96.642        0.033      347.108       25.835      861.488
08/14/2013  21:26:00     -427.642      -32.236      -26.625      216.984      112.816       80.128    47082.181    12727.477     6420.522       12.542        3.312      428.855      100.188        0.055      347.081       25.789      861.515
08/14/2013  21:27:00     -234.717      -18.645        0.948      174.483      147.594       68.890    30444.171    21783.974     4745.767        5.620        2.849      235.456       74.706        0.101      347.053       25.740      861.530
08/14/2013  21:28:00     -314.668      -67.052      -15.276      158.877      133.335       79.339    25241.805    17778.118     6294.659        7.652        2.466      321.733       77.427        0.058      347.007       25.662      861.536
08/14/2013  21:29:00     -282.830      -15.209       -7.153      176.909      126.895       70.588    31296.890    16102.465     4982.702        6.632        2.619      283.238       83.172        0.086      346.979       25.612      861.571
08/14/2013  21:30:00     -379.931     -103.074      -17.613      169.669      122.283       74.981    28787.533    14953.212     5622.086       10.231        2.468      393.665       84.772        0.046      347.019       25.683      861.572
08/14/2013  21:31:00     -333.843     -101.468      -17.556      164.979      122.458       64.907    27218.009    14995.938     4212.869        8.423        2.321      348.923       75.254        0.047      347.029       25.697      861.576
08/14/2013  21:32:00     -299.894      -62.439       13.600      137.798      115.472       62.054    18988.293    13333.882     3850.761        6.509        1.809      306.325       66.201        0.047      346.958       25.577      861.603
08/14/2013  21:33:00     -350.120      -41.268      -12.424      124.937       99.356       54.473    15609.364     9871.555     2967.336        7.644        1.422      352.544       62.242        0.031      347.016       25.676      861.624
08/14/2013  21:34:00     -266.209      -15.811      -15.687      114.380       79.191       44.367    13082.692     6271.166     1968.423        4.634        1.066      266.678       50.510        0.036      347.054       25.743      861.628
08/14/2013  21:35:00     -198.633      -34.796      -11.489      108.854       78.916       44.084    11849.237     6227.807     1943.438        3.041        1.001      201.658       33.501        0.028      346.974       25.605      861.639
08/14/2013  21:36:00     -288.952      -85.567      -10.105      201.075      128.371       56.774    40431.037    16479.077     3223.250        7.552        3.007      301.355       72.682        0.058      346.967       25.592      861.673
08/14/2013  21:37:00     -112.678      -42.652       16.858      109.517       73.459       53.729    11993.869     5396.157     2886.764        1.753        1.014      120.480       59.865        0.247      346.955       25.572      861.635
08/14/2013  21:38:00     -349.605     -153.982       -3.495      201.258      110.576       68.806    40504.856    12227.055     4734.298       10.170        2.873      382.013       79.719        0.044      346.956       25.574      861.640
08/14/2013  21:39:00     -264.000      -71.061      -20.197      164.803      109.572       64.518    27159.947    12005.968     4162.541        5.923        2.166      273.397       65.156        0.057      346.939       25.546      861.673
08/14/2013  21:40:00     -414.014      -68.150      -24.288      130.271      107.896       76.924    16970.559    11641.511     5917.366       10.558        1.726      419.585       72.041        0.029      347.070       25.770      861.708
08/14/2013  21:41:00     -237.067      -82.162       -6.573      109.821       84.550       59.361    12060.657     7148.767     3523.679        4.286        1.137      250.901       60.251        0.058      347.037       25.713      861.710
08/14/2013  21:42:00     -288.599      -43.262       -7.106      116.546      108.097       66.676    13582.865    11684.952     4445.624        5.746        1.486      291.824       64.472        0.049      346.967       25.591      861.712
08/14/2013  21:43:00     -409.660     -115.163      -28.201      118.384      156.206       62.801    14014.851    24400.420     3943.961       11.211        2.118      425.540       39.654        0.009      346.989       25.630      861.706
08/14/2013  21:44:00     -169.344      -87.790       13.090      141.477      112.725       72.885    20015.747    12706.957     5312.248        3.729        1.902      190.747       77.160        0.164      346.897       25.472      861.678
08/14/2013  21:45:00     -264.535      -28.780       -4.496      161.063       96.169       60.989    25941.167     9248.410     3719.667        5.486        1.945      266.096       74.440        0.078      346.828       25.354      861.689
08/14/2013  21:46:00     -382.859      -50.260       -9.903      155.487      113.520       75.654    24176.352    12886.742     5723.456        9.599        2.139      386.144       73.215        0.036      346.922       25.516      861.716
08/14/2013  21:47:00     -317.374      -45.358      -23.935      136.879      111.274       58.472    18735.804    12381.939     3418.954        6.894        1.727      320.599       57.790        0.032      346.958       25.576      861.710
08/14/2013  21:48:00     -195.625      -78.355       -1.761      122.942       82.264       51.473    15114.627     6767.316     2649.469        3.447        1.227      210.733       57.675        0.075      346.876       25.436      861.686
08/14/2013  21:49:00     -281.365     -113.998        0.492      173.947      129.935       73.345    30257.401    16883.179     5379.498        7.233        2.626      303.582       81.797        0.073      346.837       25.368      861.691
08/14/2013  21:50:00     -340.664      -98.622      -15.237      127.785      109.246       71.111    16328.991    11934.739     5056.749        7.966        1.666      354.652       70.789        0.040      346.967       25.592      861.749
08/14/2013  21:51:00     -257.015       27.695       -3.740      113.636       79.229       48.134    12913.070     6277.157     2316.896        4.417        1.075      258.503       46.666        0.033      347.026       25.695      861.734
08/14/2013  21:52:00     -159.217      -33.303        6.779      114.590       84.870       51.965    13130.765     7202.888     2700.340        2.477        1.152      162.662       55.017        0.114      346.938       25.543      861.714
08/14/2013  21:53:00     -302.190      -46.771      -32.177      159.305      123.968       76.104    25377.943    15368.104     5791.874        7.053        2.327      305.788       80.738        0.070      346.913       25.500      861.710
08/14/2013  21:54:00     -364.997      -87.929      -18.752      161.870      152.678       68.798    26201.865    23310.507     4733.224        9.777        2.712      375.439       69.292        0.034      346.918       25.507      861.714
08/14/2013  21:55:00     -226.139       38.353      -11.395       97.024       73.728       46.721     9413.701     5435.767     2182.897        3.488        0.852      229.368       42.150        0.034      346.925       25.520      861.729
08/14/2013  21:56:00     -208.759      -46.044        2.499       88.873       91.629       47.249     7898.349     8395.829     2232.459        3.211        0.926      213.776       46.958        0.048      346.845       25.383      861.741
08/14/2013  21:57:00     -304.608      -51.073      -12.606      144.964      127.889       62.405    21014.657    16355.694     3894.339        6.840        2.063      308.860       75.441        0.060      346.912       25.496      861.735
08/14/2013  21:58:00     -293.039      -89.199       -6.723      154.598      108.514       61.361    23900.553    11775.221     3765.156        6.665        1.972      306.315       74.629        0.059      346.907       25.490      861.733
08/14/2013  21:59:00     -174.869      -30.603        3.548      103.038       71.211       52.730    10616.828     5071.034     2780.486        2.500        0.923      177.527       45.368        0.065      346.852       25.395      861.723
08/14/2013  22:00:00     -249.485      -29.574      -10.672      127.021      125.282       59.289    16134.216    15695.629     3515.187        4.928        1.767      251.232       54.579        0.047      346.889       25.459      861.744
08/14/2013  22:01:00     -189.859      -76.264       -3.156      125.803      117.810       62.738    15826.430    13879.207     3936.114        3.775        1.682      204.604       55.692        0.074      346.912       25.499      861.741
08/14/2013  22:02:00     -318.361      -48.871      -13.289      118.477       99.299       53.072    14036.726     9860.332     2816.679        6.531        1.336      322.090       55.945        0.030      346.920       25.510      861.744
08/14/2013  22:03:00     -332.993        1.563      -26.392      146.864       75.309       58.417    21569.026     5671.386     3412.525        7.111        1.533      332.996       59.376        0.032      346.946       25.556      861.759
08/14/2013  22:04:00     -213.661       -4.572      -10.787      108.201       79.366       50.793    11707.488     6298.923     2579.932        3.318        1.029      213.710       42.365        0.039      346.920       25.512      861.756
08/14/2013  22:05:00     -252.078      -53.729       -9.558      170.685      109.723       59.926    29133.473    12039.139     3591.099        5.564        2.238      257.740       77.825        0.091      346.934       25.538      861.752
08/14/2013  22:06:00     -308.123      -84.604      -12.533      185.794      131.996       63.912    34519.586    17422.916     4084.788        7.913        2.801      319.527       84.292        0.070      346.966       25.592      861.762
08/14/2013  22:07:00     -374.275      -68.492      -19.221      136.278      126.230       65.421    18571.601    15933.937     4279.877        9.196        1.939      380.491       64.071        0.028      347.024       25.689      861.767
08/14/2013  22:08:00     -368.210      -33.643      -13.657      142.071      124.716       64.994    20184.194    15554.121     4224.217        8.842        1.998      369.743       69.383        0.035      347.044       25.724      861.773
08/14/2013  22:09:00     -284.208      -69.490       -0.871      129.740      125.740       65.092    16832.458    15810.548     4236.941        6.124        1.844      292.580       66.665        0.052      346.945       25.554      861.784
08/14/2013  22:10:00     -338.178      -43.988      -12.468      157.814      122.796       67.509    24905.191    15078.795     4557.519        8.049        2.227      341.027       84.306        0.061      346.987       25.626      861.828
08/14/2013  22:11:00     -379.003      -66.421      -10.087      147.901      141.004       65.093    21874.784    19882.080     4237.067        9.707        2.300      384.779       64.411        0.028      347.082       25.791      861.813
08/14/2013  22:12:00     -149.612      -19.020       -4.564       75.213       53.301       33.119     5657.023     2841.000     1096.888        1.618        0.480      150.816       18.739        0.015      346.969       25.598      861.827
08/14/2013  22:13:00     -174.591      -13.751       -5.060       55.106       62.081       41.785     3036.647     3854.065     1745.999        1.967        0.432      175.132       34.052        0.038      347.001       25.654      861.840
08/14/2013  22:14:00     -182.887       38.791      -16.108       55.757       82.589       34.171     3108.797     6820.873     1167.639        2.315        0.555      186.956       35.371        0.036      346.932       25.533      861.861
08/14/2013  22:15:00     -123.539       14.289       -4.867       45.970       66.778       39.276     2113.220     4459.364     1542.601        1.180        0.406      124.363       24.875        0.040      346.995       25.644      861.869
08/14/2013  22:16:00     -109.167       36.755      -10.407       61.285       58.646       30.706     3755.896     3439.373      942.853        1.076        0.407      115.188       22.939        0.040      346.948       25.562      861.861
08/14/2013  22:17:00      -21.482       41.033        4.784       29.937       48.723       23.907      896.214     2373.882      571.551        0.300        0.192       46.316       29.586        0.408      346.655       25.059      861.878
08/14/2013  22:18:00       13.840       14.229       20.178       27.145       18.461       12.793      736.877      340.796      163.649        0.102        0.062       19.850       12.468        0.395      346.563       24.899      861.896
08/14/2013  22:19:00      -15.132       35.246        5.828       35.501       50.124       26.534     1260.356     2512.421      704.071        0.299        0.224       38.357       19.101        0.248      346.759       25.239      861.913
08/14/2013  22:20:00       54.431       22.613        7.067       30.862       39.205       26.561      952.482     1537.030      705.502        0.336        0.160       58.941       23.736        0.162      346.443       24.695      861.890
08/14/2013  22:21:00       -1.137       -1.116       22.704       23.281       44.137       19.607      541.983     1948.100      384.429        0.170        0.144        1.593       11.168       49.152      346.019       23.966      861.891
08/14/2013  22:22:00       30.636       -7.813        9.115       24.569       17.813       15.533      603.633      317.286      241.277        0.112        0.058       31.617        9.094        0.083      346.209       24.291      861.910
08/14/2013  22:23:00       59.324       -9.293       23.897       29.168       22.639       18.729      850.798      512.503      350.769        0.295        0.086       60.047       11.556        0.037      346.156       24.200      861.910
08/14/2013  22:24:00       30.261      -47.426        7.933       32.494       33.219       14.899     1055.851     1103.515      221.973        0.280        0.119       56.257       18.591        0.109      346.341       24.520      861.926
08/14/2013  22:25:00       44.356      -53.586        5.339       27.953       52.782       31.457      781.380     2785.965      989.568        0.471        0.228       69.563       35.315        0.258      346.382       24.586      861.910
08/14/2013  22:26:00       21.801       76.133       82.926       38.266       35.490       23.180     1464.254     1259.556      537.295        0.820        0.163       79.193       23.277        0.086      345.774       23.546      861.894
08/14/2013  22:27:00       55.452      -38.622       -2.896       28.285       39.325       26.139      800.065     1546.424      683.272        0.380        0.151       67.577       26.769        0.157      346.337       24.513      861.941
08/14/2013  22:28:00       69.622       52.263       45.496       52.373       26.812       23.755     2742.926      718.861      564.319        0.684        0.201       87.056       22.969        0.070      346.146       24.182      861.935
08/14/2013  22:29:00       62.801       33.834       18.682       20.516       15.358       15.023      420.926      235.867      225.684        0.316        0.044       71.335       10.071        0.020      346.259       24.378      861.958
08/14/2013  22:30:00      103.563       47.969       11.971       33.035       28.851       20.915     1091.315      832.375      437.444        0.776        0.118      114.133       16.999        0.022      346.106       24.115      861.953
08/14/2013  22:31:00      119.899       66.332        9.191       29.324       29.527       23.655      859.879      871.862      559.567        1.058        0.115      137.025       13.030        0.009      345.989       23.913      861.949
08/14/2013  22:32:00      105.849       79.790        2.260       42.222       33.612       28.077     1782.681     1129.738      788.333        1.064        0.185      132.554       20.040        0.023      346.027       23.979      861.958
08/14/2013  22:33:00       87.991       49.106       17.639       43.816       34.280       23.360     1919.811     1175.097      545.687        0.705        0.182      100.767       10.248        0.010      346.094       24.095      861.965
08/14/2013  22:34:00       30.885       47.930        9.989       39.556       38.107       23.195     1564.672     1452.125      538.004        0.345        0.178       57.019       21.208        0.138      346.109       24.120      861.979
08/14/2013  22:35:00       58.769       33.234        8.458       49.442       30.180       18.515     2444.505      910.827      342.803        0.416        0.185       67.515       14.079        0.043      345.363       22.840      861.971
08/14/2013  22:36:00      114.312       46.746       23.283       54.289       43.922       31.263     2947.259     1929.170      977.362        1.082        0.293      123.500       22.535        0.033      345.208       22.575      861.935
08/14/2013  22:37:00       56.587       58.546       27.429       40.847       30.421       40.149     1668.482      925.417     1611.950        0.579        0.210       81.424       22.802        0.078      345.358       22.832      861.926
08/14/2013  22:38:00       39.304      126.016        5.873       44.088      107.963       43.818     1943.760    11655.953     1920.015        1.649        0.776      132.004       56.888        0.186      345.770       23.537      861.938
08/14/2013  22:39:00      120.829      118.603       12.147       56.990       70.467       45.641     3247.833     4965.596     2083.129        1.955        0.515      169.311       45.517        0.072      346.216       24.302      861.946
08/14/2013  22:40:00       65.607       39.070       16.317       67.545       34.653       36.226     4562.320     1200.853     1312.350        0.659        0.354       76.360       23.361        0.094      346.009       23.948      861.957
08/14/2013  22:41:00       15.031       59.727        2.434       40.152       43.834       25.659     1612.156     1921.390      658.360        0.399        0.210       61.589       22.967        0.139      346.036       23.995      861.994
08/14/2013  22:42:00       78.304       88.318        6.227       58.428       45.426       30.647     3413.813     2063.539      939.243        1.019        0.321      118.032       23.176        0.039      346.112       24.124      862.018
08/14/2013  22:43:00       90.155       74.294       23.508       34.069       30.813       33.136     1160.726      949.437     1097.962        0.870        0.160      116.822       23.830        0.042      346.084       24.076      862.039
08/14/2013  22:44:00       47.040      136.524        4.268       53.168      109.316       56.160     2826.786    11950.037     3153.890        1.940        0.897      144.400       67.557        0.219      346.163       24.212      862.038
08/14/2013  22:45:00       28.338      188.357      -33.166       30.011       67.042       32.038      900.643     4494.685     1026.441        2.190        0.321      190.477       37.486        0.039      346.254       24.367      862.063
08/14/2013  22:46:00       45.931      119.098        0.154       47.656       74.258       44.713     2271.078     5514.313     1999.293        1.304        0.489      127.648       44.860        0.124      346.086       24.079      862.066
08/14/2013  22:47:00      -30.077      248.963      -34.428       40.437       54.034       26.946     1635.115     2919.724      726.088        3.468        0.264      250.773       25.075        0.010      346.282       24.413      862.082
08/14/2013  22:48:00      -95.091      229.385      -35.851       74.894       64.074       35.247     5609.073     4105.527     1242.351        3.695        0.548      248.314       29.453        0.014      346.252       24.361      862.095
08/14/2013  22:49:00      -71.876      229.493      -25.630       37.696       55.706       31.814     1420.951     3103.173     1012.140        3.201        0.277      240.485       30.636        0.016      346.459       24.718      862.119
08/14/2013  22:50:00      -69.519      224.513      -22.697       57.328       64.285       31.993     3286.501     4132.567     1023.549        3.210        0.422      235.030       33.172        0.020      346.315       24.471      862.122
08/14/2013  22:51:00      -31.269      218.216      -19.682       44.917       73.687       35.525     2017.556     5429.774     1262.032        2.884        0.435      220.445       30.865        0.020      346.301       24.447      862.146
08/14/2013  22:52:00      -75.460       80.764      -14.830       39.012       69.236       25.340     1521.911     4793.644      642.117        0.970        0.348      110.531       26.026        0.055      346.474       24.749      862.152
08/14/2013  22:53:00       45.925        6.837       35.504       42.808       34.389       23.491     1832.493     1182.624      551.817        0.349        0.178       46.431       15.960        0.118      345.961       23.866      862.143
08/14/2013  22:54:00       70.601        1.800        5.200       25.964       53.113       27.457      674.150     2820.992      753.862        0.463        0.212       70.623       21.032        0.089      344.835       21.936      862.156
08/14/2013  22:55:00      159.362       85.330       26.944       53.497       33.111       36.878     2861.945     1096.306     1359.988        1.936        0.266      180.769       30.092        0.028      345.733       23.474      862.179
08/14/2013  22:56:00       54.315      106.702       -7.336       65.118       42.302       29.316     4240.372     1789.470      859.434        1.064        0.344      119.731       24.746        0.043      346.056       24.028      862.190
08/14/2013  22:57:00       74.023       99.195       -6.916       35.742       53.882       32.306     1277.456     2903.277     1043.708        1.029        0.261      123.771       35.780        0.084      346.014       23.957      862.208
08/14/2013  22:58:00       89.353       69.029       10.822       57.169       41.834       27.799     3268.254     1750.068      772.799        0.933        0.290      112.911       23.652        0.044      345.897       23.755      862.226
08/14/2013  22:59:00      105.901      114.298        7.399       89.908       65.850       54.260     8083.492     4336.269     2944.102        1.985        0.768      155.817       44.972        0.083      345.892       23.746      862.201
08/14/2013  23:00:00       64.627       24.996       -5.566       79.281       59.315       48.271     6285.535     3518.214     2330.059        0.848        0.607       69.292       29.557        0.182      345.621       23.282      862.183
08/14/2013  23:01:00      -17.076       81.318       -4.190       35.297       80.570       33.267     1245.880     6491.581     1106.710        0.788        0.442       83.092       27.498        0.110      345.605       23.256      862.242
08/14/2013  23:02:00        8.829      117.418      -17.524       49.029       40.484       29.312     2403.861     1638.923      859.221        0.954        0.245      117.749       24.413        0.043      345.708       23.433      862.258
08/14/2013  23:03:00      116.866      106.577       13.004       55.330       41.386       44.491     3061.441     1712.791     1979.463        1.597        0.338      158.166       31.805        0.040      345.730       23.468      862.220
08/14/2013  23:04:00      151.932      116.425       14.433       71.472       49.575       38.430     5108.250     2457.663     1476.880        2.294        0.452      191.411       23.492        0.015      345.695       23.405      862.184
08/14/2013  23:05:00      166.646      113.214       26.630       64.499       47.410       43.104     4160.088     2247.729     1857.934        2.478        0.413      201.465       31.990        0.025      345.805       23.597      862.190
08/14/2013  23:06:00      138.312      102.608       44.483       43.715       34.971       25.678     1911.011     1223.003      659.339        1.771        0.190      172.217       16.050        0.009      345.717       23.448      862.204
08/14/2013  23:07:00      173.416       99.135       27.955       60.769       55.101       43.242     3692.837     3036.125     1869.834        2.464        0.430      199.752       15.416        0.006      345.775       23.542      862.194
08/14/2013  23:08:00      130.669       77.809       22.641       48.449       47.415       40.135     2347.285     2248.162     1610.844        1.492        0.310      152.081       28.778        0.036      345.586       23.222      862.195
08/14/2013  23:09:00      107.223       72.748       21.005       56.200       40.868       34.159     3158.397     1670.229     1166.821        1.161        0.300      129.573       11.379        0.008      345.578       23.209      862.198
08/14/2013  23:10:00       82.215       72.081       38.053       37.861       41.559       41.419     1433.474     1727.124     1715.536        0.914        0.244      109.339       23.682        0.047      344.966       22.160      862.189
08/14/2013  23:11:00      106.026       67.202       26.761       56.961       27.254       35.748     3244.558      742.790     1277.945        1.087        0.263      125.530       21.244        0.029      344.884       22.020      862.185
08/14/2013  23:12:00      116.868       71.494       10.042       33.329       29.501       25.702     1110.828      870.336      660.606        1.076        0.132      137.002       10.373        0.006      345.234       22.620      862.191
08/14/2013  23:13:00       71.963       21.610       -4.774       24.793       31.814       25.856      614.674     1012.162      668.521        0.398        0.115       75.138       15.383        0.042      344.872       21.999      862.197
08/14/2013  23:14:00       53.891       30.714       -0.378       27.429       26.660       17.587      752.357      710.744      309.298        0.281        0.089       62.029       12.597        0.041      344.711       21.724      862.201
08/14/2013  23:15:00       79.564       69.762        5.565       35.305       18.878       22.821     1246.430      356.361      520.782        0.668        0.106      105.817       21.759        0.042      345.437       22.966      862.182
08/14/2013  23:16:00       12.409       36.649        5.042       31.552       35.238       20.512      995.517     1241.735      420.752        0.209        0.133       38.693       21.806        0.318      345.474       23.029      862.195
08/14/2013  23:17:00        0.345      131.926      -17.480       51.677       65.701       40.934     2670.502     4316.632     1675.620        1.318        0.433      131.926       41.733        0.100      345.692       23.403      862.225
08/14/2013  23:18:00      -61.453      175.815        2.120       51.511       76.048       49.527     2653.387     5783.304     2452.947        2.279        0.544      186.245       46.789        0.063      345.657       23.342      862.217
08/14/2013  23:19:00      -21.592       92.219      -11.570       27.357       48.581       21.389      748.422     2360.110      457.508        0.633        0.178       94.713       24.417        0.066      345.699       23.415      862.220
08/14/2013  23:20:00      -91.569       74.008      -16.364       63.918       33.274       25.855     4085.458     1107.143      668.495        0.999        0.293      117.737       30.195        0.066      345.672       23.369      862.247
08/14/2013  23:21:00      -61.633       35.083       -3.722       33.326       15.424       14.573     1110.606      237.893      212.375        0.330        0.078       70.918        7.177        0.010      345.632       23.301      862.250
08/14/2013  23:22:00      -51.152       73.416       -7.924       35.993       23.266       12.421     1295.489      541.300      154.276        0.503        0.100       89.479       18.408        0.042      345.593       23.233      862.256
08/14/2013  23:23:00      -77.896       42.541       -5.215       28.167       26.398       19.177      793.403      696.833      367.750        0.488        0.093       88.755       13.147        0.022      345.509       23.092      862.276
08/14/2013  23:24:00      -60.715       -7.103       -6.207       39.465       32.335       18.720     1557.452     1045.541      350.453        0.336        0.148       61.129       20.463        0.112      345.574       23.202      862.277
08/14/2013  23:25:00       41.943       26.979       19.323       33.340       35.660       35.222     1111.534     1271.668     1240.575        0.324        0.181       49.870       14.496        0.084      344.706       21.715      862.285
08/14/2013  23:26:00        9.591       10.570       16.635       20.820       29.866       24.307      433.469      891.949      590.854        0.120        0.096       14.272       16.783        1.383      344.702       21.708      862.282
08/14/2013  23:27:00        1.163       59.549        2.358       24.912       27.557       20.316      620.622      759.378      412.731        0.267        0.090       59.561       15.887        0.071      345.220       22.595      862.294
08/14/2013  23:28:00       -0.864       81.769       -2.757       35.103       52.942       18.769     1232.227     2802.815      352.264        0.554        0.219       81.774       26.292        0.103      345.374       22.859      862.298
08/14/2013  23:29:00      -84.509       13.536       -6.043       33.286       50.019       17.253     1107.961     2501.917      297.650        0.563        0.195       85.587        9.812        0.013      345.580       23.212      862.302
08/14/2013  23:30:00      -52.192      -39.462        0.433       64.909       42.919       33.843     4213.167     1842.013     1145.375        0.574        0.360       65.431       38.911        0.354      345.527       23.121      862.297
08/14/2013  23:31:00       11.747       23.623        8.467       26.058       27.324       20.673      679.032      746.596      427.373        0.131        0.093       26.383       10.265        0.151      345.100       22.389      862.302
08/14/2013  23:32:00       36.457        7.561       20.229       29.084       26.357       24.572      845.900      694.681      603.801        0.197        0.107       37.232        5.217        0.020      344.419       21.225      862.286
08/14/2013  23:33:00      -42.883       75.546       -5.346       68.859       56.628       29.764     4741.518     3206.708      885.906        0.820        0.442       86.869       35.648        0.168      344.916       22.074      862.284
08/14/2013  23:34:00      -13.887      101.894        0.625       39.288       54.437       32.884     1543.518     2963.333     1081.329        0.808        0.279      102.836       28.105        0.075      345.251       22.646      862.294
08/14/2013  23:35:00      -65.239       91.620       -2.287       55.521       51.473       41.530     3082.584     2649.503     1724.715        1.005        0.373      112.474       44.665        0.158      345.265       22.672      862.290
08/14/2013  23:36:00      -34.076       61.196        5.217       40.412       40.829       26.420     1633.129     1667.022      698.027        0.447        0.200       70.044       25.403        0.132      345.205       22.568      862.275
08/14/2013  23:37:00      -14.087       78.261       -4.485       30.744       54.087       25.497      945.213     2925.365      650.097        0.543        0.226       79.519       27.089        0.116      345.186       22.537      862.254
08/14/2013  23:38:00      -51.329       91.535      -19.881       40.304       56.617       23.740     1624.386     3205.460      563.585        0.840        0.270      104.944       24.302        0.054      345.303       22.736      862.251
08/14/2013  23:39:00      -72.097       96.802      -10.977       73.165       49.319       39.350     5353.155     2432.330     1548.410        1.201        0.467      120.700       42.530        0.124      345.211       22.579      862.254
08/14/2013  23:40:00      -68.073       56.744       -0.914       47.732       34.821       25.320     2278.345     1212.497      641.089        0.599        0.207       88.622       20.137        0.052      345.200       22.561      862.268
08/14/2013  23:41:00     -138.388       -8.755      -12.605       30.125       35.241       26.795      907.502     1241.949      717.971        1.113        0.143      138.665       21.969        0.025      345.270       22.681      862.271
08/14/2013  23:42:00      -68.746       43.613      -16.121       37.377       27.466       19.722     1397.024      754.396      388.945        0.471        0.127       81.413       17.278        0.045      345.342       22.803      862.280
08/14/2013  23:43:00      -63.484       27.352       -5.459       26.804       42.616       16.720      718.439     1816.104      279.555        0.381        0.141       69.126       13.716        0.039      345.345       22.809      862.279
08/14/2013  23:44:00      -84.996       73.284      -22.789       51.303       66.854       32.827     2632.019     4469.414     1077.611        1.065        0.409      112.227       26.196        0.054      345.326       22.776      862.290
08/14/2013  23:45:00      -77.766      102.129       -5.247       73.356       81.671       35.146     5381.112     6670.188     1235.215        1.489        0.664      128.366       52.695        0.169      345.250       22.644      862.265
08/14/2013  23:46:00     -117.332      106.649      -20.327       54.227       54.989       26.792     2940.522     3023.817      717.825        1.612        0.334      158.558       17.585        0.012      345.374       22.856      862.270
08/14/2013  23:47:00     -106.822       90.051      -16.509       39.477       53.478       28.134     1558.412     2859.869      791.520        1.250        0.260      139.715       25.084        0.032      345.308       22.746      862.283
08/14/2013  23:48:00      -65.644       44.849      -12.882       38.076       34.505       19.507     1449.818     1190.581      380.527        0.475        0.151       79.502       19.880        0.063      345.305       22.738      862.297
08/14/2013  23:49:00     -165.241        9.882      -17.465       58.536       58.814       29.027     3426.510     3459.139      842.545        1.772        0.386      165.536       27.056        0.027      345.318       22.761      862.313
08/14/2013  23:50:00     -113.391       79.307      -29.043       53.541       43.984       26.124     2866.658     1934.583      682.443        1.274        0.274      138.373       30.645        0.049      345.276       22.690      862.322
08/14/2013  23:51:00      -83.491       55.488       -6.204       48.077       29.313       25.183     2311.351      859.263      634.201        0.695        0.190      100.248       27.374        0.075      345.178       22.524      862.327
08/14/2013  23:52:00     -113.525       25.046      -17.770       50.773       26.978       27.270     2577.916      727.825      743.627        0.894        0.202      116.255       24.209        0.043      345.414       22.926      862.358
08/14/2013  23:53:00      -17.775       84.836       -5.034       27.750       38.905       18.507      770.074     1513.561      342.510        0.508        0.131       86.678       17.270        0.040      345.306       22.741      862.363
08/14/2013  23:54:00       23.959      103.274       -1.908       26.139       33.581       25.533      683.256     1127.688      651.940        0.685        0.123      106.017       18.081        0.029      345.261       22.665      862.366
08/14/2013  23:55:00     -124.775      107.226      -18.287       74.651       64.090       34.931     5572.844     4107.476     1220.165        1.915        0.545      164.518       35.229        0.046      345.259       22.660      862.380
08/14/2013  23:56:00     -102.026       77.141      -15.203       54.659       42.014       31.716     2987.584     1765.154     1005.910        1.117        0.288      127.906       34.489        0.073      345.249       22.642      862.408
08/14/2013  23:57:00      -58.791       61.256       -7.997       25.592       45.516       24.909      654.933     2071.741      620.447        0.531        0.167       84.904       10.997        0.017      345.149       22.473      862.407
08/14/2013  23:58:00      -90.101       48.644      -26.524       22.341       29.611       14.312      499.137      876.840      204.821        0.638        0.079      102.393       13.133        0.016      345.303       22.736      862.410
08/14/2013  23:59:00      -84.807       37.124       -7.151       27.163       28.116       23.108      737.813      790.538      533.980        0.534        0.103       92.577       14.604        0.025      345.223       22.600      862.416
